[[{"header":{"parameterUnit":"m.s-1","parameterCategory":1,"la1":30.6,"la2":28.766,"lo1":-90.7593,"lo2":-88.6598,"dy":0.0162,"dx":0.0183,"nx":116,"ny":114,"refTime":"2024-03-31T06:00:00:Z","depth":0,"parameterNumber":2,"parameterNumberName":"U-component_of_WINDS"},"data":[0.0,0.0,0.0,0.0,0.0,0.0,0.0,0.0,0.0,0.0,0.0,0.0,0.0,0.0,0.0,0.0,0.0,0.0,0.0,0.0,0.0,0.0,0.0,0.0,0.0,0.0,0.0,0.0,0.0,0.0,0.0,0.0,0.0,0.0,0.0,0.0,0.0,0.0,0.0,0.0,0.0,0.0,0.0,0.0,0.0,0.0,0.0,0.0,0.0,0.0,0.0,0.0,0.0,0.0,0.0,0.0,0.0,0.0,0.0,0.0,0.0,0.0,0.0,0.0,0.0,0.0,0.0,0.0,0.0,0.0,0.0,0.0,0.0,0.0,0.0,0.0,0.0,0.0,0.0,0.0,0.0,0.0,0.0,0.0,0.0,0.0,0.0,0.0,0.0,0.0,0.0,0.0,0.0,0.0,0.0,0.0,0.0,0.0,0.0,0.0,0.0,0.0,0.0,0.0,0.0,0.0,0.0,0.0,0.0,0.0,0.0,0.0,0.0,0.0,0.0,0.0,0.0,0.0,0.0,0.0,0.0,0.0,0.0,0.0,0.0,0.0,0.0,0.0,0.0,0.0,0.0,0.0,0.0,0.0,0.0,0.0,0.0,0.0,0.0,0.0,0.0,0.0,0.0,0.0,0.0,0.0,0.0,0.0,0.0,0.0,0.0,0.0,0.0,0.0,0.0,0.0,0.0,0.0,0.0,0.0,0.0,0.0,0.0,0.0,0.0,0.0,0.0,0.0,0.0,0.0,0.0,0.0,0.0,0.0,0.0,0.0,0.0,0.0,0.0,0.0,0.0,0.0,0.0,0.0,0.0,0.0,0.0,0.0,0.0,0.0,0.0,0.0,0.0,0.0,0.0,0.0,0.0,0.0,0.0,0.0,0.0,0.0,0.0,0.0,0.0,0.0,0.0,0.0,0.0,0.0,0.0,0.0,0.0,0.0,0.0,0.0,0.0,0.0,0.0,0.0,0.0,0.0,0.0,0.0,0.0,0.0,0.0,0.0,0.0,0.0,0.0,0.0,0.0,0.0,0.0,0.0,0.0,0.0,0.0,0.0,0.0,0.0,0.0,0.0,0.0,0.0,0.0,0.0,0.0,0.0,0.0,0.0,0.0,0.0,0.0,0.0,0.0,0.0,0.0,0.0,0.0,0.0,0.0,0.0,0.0,0.0,0.0,0.0,0.0,0.0,0.0,0.0,0.0,0.0,0.0,0.0,0.0,0.0,0.0,0.0,0.0,0.0,0.0,0.0,0.0,0.0,0.0,0.0,0.0,0.0,0.0,0.0,0.0,0.0,0.0,0.0,0.0,0.0,0.0,0.0,0.0,0.0,0.0,0.0,0.0,0.0,0.0,0.0,0.0,0.0,0.0,0.0,0.0,0.0,0.0,0.0,0.0,0.0,0.0,0.0,0.0,0.0,0.0,0.0,0.0,0.0,0.0,0.0,0.0,0.0,0.0,0.0,0.0,0.0,0.0,0.0,0.0,0.0,0.0,0.0,0.0,0.0,0.0,0.0,0.0,0.0,0.0,0.0,0.0,0.0,0.0,0.0,0.0,0.0,0.0,0.0,0.0,0.0,0.0,0.0,0.0,0.0,0.0,0.0,0.0,0.0,0.0,0.0,0.0,0.0,0.0,0.0,0.0,0.0,0.0,0.0,0.0,0.0,0.0,0.0,0.0,0.0,0.0,0.0,0.0,0.0,0.0,0.0,0.0,0.0,0.0,0.0,0.0,0.0,0.0,0.0,0.0,0.0,0.0,0.0,0.0,0.0,0.0,0.0,0.0,0.0,0.0,0.0,0.0,0.0,0.0,0.0,0.0,0.0,0.0,0.0,0.0,0.0,0.0,0.0,0.0,0.0,0.0,0.0,0.0,0.0,0.0,0.0,0.0,0.0,0.0,0.0,0.0,0.0,0.0,0.0,0.0,0.0,0.0,0.0,0.0,0.0,0.0,0.0,0.0,0.0,0.0,0.0,0.0,0.0,0.0,0.0,0.0,0.0,0.0,0.0,0.0,0.0,0.0,0.0,0.0,0.0,0.0,0.0,0.0,0.0,0.0,0.0,0.0,0.0,0.0,0.0,0.0,0.0,0.0,0.0,0.0,0.0,0.0,0.0,0.0,0.0,0.0,0.0,0.0,0.0,0.0,0.0,0.0,0.0,0.0,0.0,0.0,0.0,0.0,0.0,0.0,0.0,0.0,0.0,0.0,0.0,0.0,0.0,0.0,0.0,0.0,0.0,0.0,0.0,0.0,0.0,0.0,0.0,0.0,0.0,0.0,0.0,0.0,0.0,0.0,0.0,0.0,0.0,0.0,0.0,0.0,0.0,0.0,0.0,0.0,0.0,0.0,0.0,0.0,0.0,0.0,0.0,0.0,0.0,0.0,0.0,0.0,0.0,0.0,0.0,0.0,0.0,0.0,0.0,0.0,0.0,0.0,0.0,0.0,0.0,0.0,0.0,0.0,0.0,0.0,0.0,0.0,0.0,0.0,0.0,0.0,0.0,0.0,0.0,0.0,0.0,0.0,0.0,0.0,0.0,0.0,0.0,0.0,0.0,0.0,0.0,0.0,0.0,0.0,0.0,0.0,0.0,0.0,0.0,0.0,0.0,0.0,0.0,0.0,0.0,0.0,0.0,0.0,0.0,0.0,0.0,0.0,0.0,0.0,0.0,0.0,0.0,0.0,0.0,0.0,0.0,0.0,0.0,0.0,0.0,0.0,0.0,0.0,0.0,0.0,0.0,0.0,0.0,0.0,0.0,0.0,0.0,0.0,0.0,0.0,0.0,0.0,0.0,0.0,0.0,0.0,0.0,0.0,0.0,0.0,0.0,0.0,0.0,0.0,0.0,0.0,0.0,0.0,0.0,0.0,0.0,0.0,0.0,0.0,0.0,0.0,0.0,0.0,0.0,0.0,0.0,0.0,0.0,0.0,0.0,0.0,0.0,0.0,0.0,0.0,0.0,0.0,0.0,0.0,0.0,0.0,0.0,0.0,0.0,0.0,0.0,0.0,0.0,0.0,0.0,0.0,0.0,0.0,0.0,0.0,0.0,0.0,0.0,0.0,0.0,0.0,0.0,0.0,0.0,0.0,0.0,0.0,0.0,0.0,0.0,0.0,0.0,0.0,0.0,0.0,0.0,0.0,0.0,0.0,0.0,0.0,0.0,0.0,0.0,0.0,0.0,0.0,0.0,0.0,0.0,0.0,0.0,0.0,0.0,0.0,0.0,0.0,0.0,0.0,0.0,0.0,0.0,0.0,0.0,0.0,0.0,0.0,0.0,0.0,0.0,0.0,0.0,0.0,0.0,0.0,0.0,0.0,0.0,0.0,0.0,0.0,0.0,0.0,0.0,0.0,0.0,0.0,0.0,0.0,0.0,0.0,0.0,0.0,0.0,0.0,0.0,0.0,0.0,0.0,0.0,0.0,0.0,0.0,0.0,0.0,0.0,0.0,0.0,0.0,0.0,0.0,0.0,0.0,0.0,0.0,0.0,0.0,0.0,0.0,0.0,0.0,0.0,0.0,0.0,0.0,0.0,0.0,0.0,0.0,0.0,0.0,0.0,0.0,0.0,0.0,0.0,0.0,0.0,0.0,0.0,0.0,0.0,0.0,0.0,0.0,0.0,0.0,0.0,0.0,0.0,0.0,0.0,0.0,0.0,0.0,0.0,0.0,0.0,0.0,0.0,0.0,0.0,0.0,0.0,0.0,0.0,0.0,0.0,0.0,0.0,0.0,0.0,0.0,0.0,0.0,0.0,0.0,0.0,0.0,0.0,0.0,0.0,0.0,0.0,0.0,0.0,0.0,0.0,0.0,0.0,0.0,0.0,0.0,0.0,0.0,0.0,0.0,0.0,0.0,0.0,0.0,0.0,0.0,0.0,0.0,0.0,0.0,0.0,0.0,0.0,0.0,0.0,0.0,0.0,0.0,0.0,0.0,0.0,0.0,0.0,0.0,0.0,0.0,0.0,0.0,0.0,0.0,0.0,0.0,0.0,0.0,0.0,0.0,0.0,0.0,0.0,0.0,0.0,0.0,0.0,0.0,0.0,0.0,0.0,0.0,0.0,0.0,0.0,0.0,0.0,0.0,0.0,0.0,0.0,0.0,0.0,0.0,0.0,0.0,0.0,0.0,0.0,0.0,0.0,0.0,0.0,0.0,0.0,0.0,0.0,0.0,0.0,0.0,0.0,0.0,0.0,0.0,0.0,0.0,0.0,0.0,0.0,0.0,0.0,0.0,0.0,0.0,0.0,0.0,0.0,0.0,0.0,0.0,0.0,0.0,0.0,0.0,0.0,0.0,0.0,0.0,0.0,0.0,0.0,0.0,0.0,0.0,0.0,0.0,0.0,0.0,0.0,0.0,0.0,0.0,0.0,0.0,0.0,0.0,0.0,0.0,0.0,0.0,0.0,0.0,0.0,0.0,0.0,0.0,0.0,0.0,0.0,0.0,0.0,0.0,0.0,0.0,0.0,0.0,0.0,0.0,0.0,0.0,0.0,0.0,0.0,0.0,0.0,0.0,0.0,0.0,0.0,0.0,0.0,0.0,0.0,0.0,0.0,0.0,0.0,0.0,0.0,0.0,0.0,0.0,0.0,0.0,0.0,0.0,0.0,0.0,0.0,0.0,0.0,0.0,0.0,0.0,0.0,0.0,0.0,0.0,0.0,0.0,0.0,0.0,0.0,0.0,0.0,0.0,0.0,0.0,0.0,0.0,0.0,0.0,0.0,0.0,0.0,0.0,0.0,0.0,0.0,0.0,0.0,0.0,0.0,0.0,0.0,0.0,0.0,0.0,0.0,0.0,0.0,0.0,0.0,0.0,0.0,0.0,0.0,0.0,0.0,0.0,0.0,0.0,0.0,0.0,0.0,0.0,0.0,0.0,0.0,0.0,0.0,0.0,0.0,0.0,0.0,0.0,0.0,0.0,0.0,0.0,0.0,0.0,0.0,0.0,0.0,0.0,0.0,0.0,0.0,0.0,0.0,0.0,0.0,0.0,0.0,0.0,0.0,0.0,0.0,0.0,0.0,0.0,0.0,0.0,0.0,0.0,0.0,0.0,0.0,0.0,0.0,0.0,0.0,0.0,0.0,0.0,0.0,0.0,0.0,0.0,0.0,0.0,0.0,0.0,0.0,0.0,0.0,0.0,0.0,0.0,0.0,0.0,0.0,0.0,0.0,0.0,0.0,0.0,0.0,0.0,0.0,0.0,0.0,0.0,0.0,0.0,0.0,0.0,0.0,0.0,0.0,0.0,0.0,0.0,0.0,0.0,0.0,0.0,0.0,0.0,0.0,0.0,0.0,0.0,0.0,0.0,0.0,0.0,0.0,0.0,0.0,0.0,0.0,0.0,0.0,0.0,0.0,0.0,0.0,0.0,0.0,0.0,0.0,0.0,0.0,0.0,0.0,0.0,0.0,0.0,0.0,0.0,0.0,0.0,0.0,0.0,0.0,0.0,0.0,0.0,0.0,0.0,0.0,0.0,0.0,0.0,0.0,0.0,0.0,0.0,0.0,0.0,0.0,0.0,0.0,0.0,0.0,0.0,0.0,0.0,0.0,0.0,0.0,0.0,0.0,0.0,0.0,0.0,0.0,0.0,0.0,0.0,0.0,0.0,0.0,0.0,0.0,0.0,0.0,0.0,0.0,0.0,0.0,0.0,0.0,0.0,0.0,0.0,0.0,0.0,0.0,0.0,0.0,0.0,0.0,0.0,0.0,0.0,0.0,0.0,0.0,0.0,0.0,0.0,0.0,0.0,0.0,0.0,0.0,0.0,0.0,0.0,0.0,0.0,0.0,0.0,0.0,0.0,0.0,0.0,0.0,0.0,0.0,0.0,0.0,0.0,0.0,0.0,0.0,0.0,0.0,0.0,0.0,0.0,0.0,0.0,0.0,0.0,0.0,0.0,0.0,0.0,0.0,0.0,0.0,0.0,0.0,0.0,0.0,0.0,0.0,0.0,0.0,0.0,0.0,0.0,0.0,0.0,0.0,0.0,0.0,0.0,0.0,0.0,0.0,0.0,0.0,0.0,0.0,0.0,0.0,0.0,0.0,0.0,0.0,0.0,0.0,0.0,0.0,0.0,0.0,4.6579,4.7465,0.0,0.0,0.0,0.0,0.0,0.0,0.0,0.0,0.0,0.0,0.0,0.0,0.0,0.0,0.0,0.0,0.0,0.0,0.0,0.0,0.0,0.0,0.0,5.4586,5.5934,5.76,5.7735,5.7808,5.7881,0.0,0.0,0.0,0.0,0.0,5.46,5.416,5.3923,5.3923,5.3991,5.4025,5.4025,5.3585,5.2401,5.0642,0.0,0.0,0.0,0.0,0.0,0.0,0.0,0.0,0.0,0.0,0.0,0.0,0.0,0.0,0.0,0.0,0.0,0.0,0.0,0.0,0.0,0.0,0.0,0.0,0.0,0.0,0.0,0.0,0.0,0.0,0.0,0.0,0.0,0.0,0.0,0.0,0.0,0.0,0.0,0.0,0.0,0.0,0.0,0.0,0.0,0.0,0.0,0.0,0.0,0.0,0.0,0.0,0.0,0.0,0.0,0.0,0.0,0.0,0.0,0.0,0.0,0.0,0.0,0.0,0.0,0.0,0.0,0.0,0.0,0.0,4.6529,4.6446,0.0,0.0,0.0,0.0,0.0,0.0,0.0,0.0,0.0,0.0,0.0,0.0,0.0,0.0,0.0,0.0,0.0,0.0,0.0,0.0,0.0,5.0651,5.2354,5.3817,5.5536,5.7379,5.7588,5.7662,5.7881,5.7881,0.0,0.0,0.0,0.0,5.5919,5.5784,5.5649,5.5513,5.4905,5.4735,5.4972,5.4837,5.3788,5.1995,5.1589,0.0,0.0,0.0,0.0,0.0,0.0,0.0,0.0,0.0,0.0,0.0,0.0,0.0,0.0,0.0,0.0,0.0,0.0,0.0,0.0,0.0,0.0,0.0,0.0,0.0,0.0,0.0,0.0,0.0,0.0,0.0,0.0,0.0,0.0,0.0,0.0,0.0,0.0,0.0,0.0,0.0,0.0,0.0,0.0,0.0,0.0,0.0,0.0,0.0,0.0,0.0,0.0,0.0,0.0,0.0,0.0,0.0,0.0,0.0,0.0,0.0,0.0,0.0,4.9456,4.9228,4.8632,4.8672,4.8027,4.6897,4.6271,4.5438,4.4464,4.6244,0.0,0.0,0.0,0.0,0.0,0.0,0.0,0.0,0.0,0.0,0.0,0.0,0.0,0.0,0.0,0.0,0.0,0.0,0.0,5.0232,5.1894,5.3526,5.5314,5.7156,5.7514,5.7662,5.7881,5.7881,0.0,0.0,0.0,5.6765,5.6664,5.6055,5.5412,5.4735,5.4634,5.5243,5.6494,5.5852,5.5412,5.504,5.3044,5.1389,5.0015,0.0,0.0,0.0,0.0,0.0,0.0,0.0,0.0,0.0,0.0,0.0,0.0,0.0,0.0,0.0,0.0,0.0,0.0,0.0,0.0,0.0,0.0,0.0,0.0,0.0,0.0,0.0,0.0,0.0,0.0,0.0,0.0,0.0,0.0,0.0,0.0,0.0,0.0,0.0,0.0,0.0,5.3226,5.3847,0.0,0.0,0.0,0.0,0.0,0.0,0.0,0.0,0.0,0.0,0.0,0.0,0.0,5.0537,4.9604,4.94,4.9164,4.8862,4.8214,4.7615,4.6821,4.6392,4.5603,4.4516,4.428,0.0,4.5246,4.5001,0.0,0.0,0.0,0.0,0.0,0.0,0.0,0.0,0.0,0.0,0.0,0.0,0.0,0.0,0.0,0.0,0.0,0.0,0.0,0.0,0.0,5.3136,5.4829,5.6658,5.6834,5.7139,5.7662,5.7735,0.0,0.0,5.7577,5.7408,5.7408,5.7103,5.6562,5.5852,5.652,5.706,5.7223,5.707,5.6955,5.6888,5.4974,5.3439,5.2337,5.1329,0.0,0.0,0.0,0.0,0.0,0.0,0.0,0.0,0.0,0.0,0.0,0.0,0.0,0.0,0.0,0.0,0.0,0.0,0.0,0.0,0.0,0.0,0.0,0.0,0.0,0.0,0.0,0.0,0.0,0.0,0.0,0.0,0.0,0.0,0.0,0.0,0.0,0.0,0.0,5.3402,5.2652,5.3359,5.3182,5.3534,0.0,0.0,0.0,0.0,0.0,0.0,0.0,0.0,0.0,5.1017,5.0774,5.018,4.9249,4.8924,4.8496,4.794,4.7721,4.7121,4.6134,4.5962,4.5304,4.4388,4.399,4.3887,4.4042,4.393,4.4178,4.4656,0.0,0.0,0.0,0.0,4.3047,4.2771,0.0,0.0,0.0,0.0,0.0,0.0,0.0,0.0,0.0,0.0,0.0,0.0,5.1105,5.2539,5.4115,5.5988,5.629,5.6779,5.7708,5.7689,5.7729,5.8152,5.7983,5.7983,5.8186,5.8113,5.7842,5.7229,5.8193,5.8379,5.7968,5.8163,5.8196,5.8084,5.6756,5.5421,5.4033,5.2424,5.0618,0.0,0.0,0.0,0.0,0.0,0.0,0.0,0.0,0.0,0.0,0.0,0.0,0.0,0.0,0.0,0.0,0.0,0.0,0.0,0.0,0.0,0.0,0.0,0.0,0.0,0.0,0.0,0.0,0.0,0.0,0.0,0.0,0.0,0.0,0.0,0.0,0.0,0.0,5.2763,5.215,5.2681,5.2144,5.2403,0.0,0.0,0.0,0.0,0.0,0.0,5.1605,5.1471,5.1236,5.0786,5.0517,5.0002,4.9159,4.8845,4.8341,4.7481,4.732,4.6643,4.5673,4.5581,4.5127,4.4396,4.3984,4.3424,4.2856,4.3124,4.3284,4.3336,4.299,4.296,4.2986,4.1817,4.1227,4.0847,0.0,0.0,0.0,0.0,0.0,0.0,0.0,0.0,0.0,0.0,0.0,4.86,5.0461,5.172,5.3277,5.528,5.6053,5.6978,5.8294,5.7917,5.7965,5.893,5.8254,5.822,5.893,5.874,5.8556,5.8294,5.8394,5.8641,5.9085,5.8847,5.8639,5.851,5.8134,5.6446,5.3727,5.2137,5.0408,4.8651,0.0,0.0,0.0,0.0,0.0,0.0,0.0,0.0,0.0,0.0,0.0,0.0,0.0,0.0,0.0,0.0,0.0,0.0,0.0,0.0,0.0,0.0,0.0,0.0,0.0,0.0,0.0,0.0,0.0,0.0,0.0,0.0,0.0,0.0,0.0,0.0,0.0,0.0,0.0,5.1064,5.0673,0.0,0.0,0.0,0.0,5.2089,5.2206,5.1754,5.0441,5.0546,5.0216,4.9314,4.9729,4.9685,4.9092,4.9165,4.8865,4.7937,4.6943,4.6032,4.5101,4.4613,4.4068,4.3492,4.3406,4.3048,4.255,4.2578,4.2977,4.3329,4.2548,4.2757,4.32,4.1304,4.0585,4.03,0.0,0.0,0.0,0.0,0.0,4.3045,4.3711,4.4346,4.5183,4.6194,4.7189,4.8607,5.0814,5.1964,5.3263,5.507,5.5673,5.6515,5.7661,5.731,5.7272,5.7883,5.8119,5.8589,5.9329,5.8892,5.8858,5.9131,5.9285,5.9411,5.9399,5.9076,5.8788,5.8526,5.7427,5.6398,5.5083,5.3632,5.2044,5.039,4.8731,4.7303,0.0,0.0,0.0,0.0,0.0,0.0,0.0,0.0,0.0,0.0,0.0,0.0,0.0,0.0,0.0,0.0,0.0,0.0,0.0,0.0,0.0,0.0,0.0,0.0,0.0,0.0,0.0,0.0,0.0,0.0,0.0,0.0,0.0,0.0,0.0,0.0,0.0,5.0988,5.0835,0.0,5.1878,5.1573,5.1297,5.1119,5.1152,5.1092,5.0909,5.1139,5.1304,5.1224,5.1043,5.0365,4.9266,4.8934,4.8108,4.6687,4.5953,4.5127,4.4313,4.3958,4.3517,4.3184,4.3184,4.2849,4.2513,4.2314,4.2016,4.1618,4.1072,4.0557,4.0035,3.8972,3.8179,3.7631,0.0,0.0,0.0,0.0,0.0,4.2252,4.291,4.3928,4.5027,4.6177,4.7262,4.8732,5.0631,5.1966,5.3121,5.4267,5.5216,5.624,5.738,5.7008,5.7166,5.8241,5.8819,5.9053,5.8931,5.9321,5.9476,5.9392,5.9795,5.9792,5.9487,5.8895,5.8487,5.8211,5.6996,5.6308,5.6059,5.4857,5.3193,5.1336,4.9916,4.843,4.7088,0.0,0.0,0.0,0.0,0.0,0.0,0.0,0.0,0.0,0.0,0.0,0.0,0.0,0.0,0.0,0.0,0.0,0.0,0.0,0.0,0.0,0.0,0.0,0.0,0.0,0.0,0.0,0.0,0.0,0.0,0.0,0.0,0.0,0.0,5.0892,5.0537,5.1122,5.1031,5.1152,5.1967,5.1635,5.1453,5.1479,5.1416,5.1409,5.1762,5.1795,5.1846,5.1988,5.1353,5.0406,4.9078,4.8332,4.7264,4.5822,4.5017,4.4422,4.3764,4.3406,4.3073,4.2849,4.2849,4.2513,4.1834,4.1582,4.0793,3.9726,3.9682,3.9165,3.8254,3.7104,3.6339,3.569,0.0,0.0,0.0,0.0,0.0,4.1594,4.2252,4.4018,4.5387,4.5695,4.7413,4.8977,4.988,5.1573,5.2788,5.2966,5.4703,5.6263,5.7482,5.7033,5.7785,6.0137,6.0411,5.9744,5.7939,5.9993,6.0472,5.9329,5.9761,5.9739,5.9241,5.8487,5.7933,5.7495,5.6892,5.6506,5.625,5.5608,5.3741,5.1361,5.103,4.9758,4.8092,0.0,0.0,0.0,0.0,0.0,0.0,0.0,0.0,0.0,0.0,0.0,0.0,0.0,0.0,0.0,0.0,0.0,0.0,0.0,0.0,0.0,0.0,0.0,0.0,0.0,0.0,0.0,0.0,0.0,0.0,0.0,0.0,0.0,5.1086,5.0717,5.0631,5.1514,5.103,5.1088,5.2097,5.2217,5.2486,5.3114,5.2911,5.2842,5.2744,5.2218,5.1686,5.1104,5.0455,4.9588,4.849,4.7406,4.6326,4.5422,4.4377,4.3679,4.3406,4.3073,4.2762,4.2513,4.2513,4.1834,4.0687,4.0316,3.9216,3.7865,3.8595,3.862,3.8159,3.5927,3.5119,3.4897,0.0,0.0,0.0,4.0601,4.1159,4.1776,4.2329,4.4018,4.5484,4.6077,4.7426,4.8805,5.0035,5.1182,5.2246,5.2887,5.3923,5.5014,5.6416,5.6304,5.7314,5.9729,5.9172,5.9206,6.0158,6.0225,6.0258,6.0337,5.9935,5.9508,5.9062,5.7933,5.7084,5.6603,5.5948,5.5551,5.5451,5.527,5.4518,5.3315,5.2446,5.1723,5.0936,0.0,0.0,0.0,0.0,0.0,0.0,0.0,0.0,0.0,0.0,0.0,0.0,0.0,0.0,0.0,0.0,0.0,0.0,0.0,0.0,0.0,0.0,0.0,0.0,0.0,0.0,0.0,0.0,0.0,0.0,0.0,4.9283,4.9314,4.9944,5.0125,5.0455,5.1203,5.1374,5.1816,5.2554,5.2191,5.2052,5.2229,5.2499,5.2457,5.2281,5.2167,5.1868,5.1225,5.0244,4.9139,4.7953,4.7231,4.6056,4.4582,4.4342,4.3812,4.3073,4.2737,4.2513,4.2174,4.172,4.0894,3.9966,3.938,3.8432,3.721,3.756,3.7057,3.6015,3.5163,3.4164,3.3053,0.0,0.0,0.0,4.0758,4.1308,4.1851,4.2329,4.4018,4.5454,4.5843,4.7519,4.8985,4.9733,5.1178,5.2148,5.2425,5.3684,5.4878,5.5915,5.7248,5.8279,5.8951,5.9259,5.9871,6.0622,6.0324,6.0205,6.0292,5.9596,5.8972,5.8518,5.7275,5.6506,5.6145,5.5481,5.5179,5.5179,5.5179,5.497,5.4551,5.3969,5.3211,5.2516,5.1768,5.1289,5.096,5.0212,4.9494,4.8895,4.8626,0.0,0.0,0.0,0.0,0.0,0.0,0.0,0.0,0.0,0.0,0.0,0.0,0.0,0.0,0.0,0.0,0.0,0.0,0.0,0.0,0.0,0.0,0.0,0.0,4.8311,4.8488,4.9326,4.9833,5.0307,5.0862,5.168,5.2188,5.2469,5.2399,5.2339,5.2236,5.2167,5.208,5.1974,5.1534,5.1072,5.0517,4.9502,4.8426,4.7534,4.6837,4.5846,4.4864,4.4497,4.4219,4.3664,4.3099,4.2519,4.2037,4.1105,3.9966,3.867,3.8074,3.6989,3.589,0.0,0.0,0.0,0.0,3.3055,3.1919,0.0,0.0,0.0,4.1024,4.1503,4.1942,4.2359,4.4018,4.5304,4.5304,4.7549,4.9164,4.9164,5.1058,5.1994,5.1421,5.3346,5.4882,5.5826,5.868,5.9862,5.8474,6.0251,6.0968,6.0258,6.0436,6.0402,5.9943,5.9196,5.8557,5.8122,5.695,5.6335,5.61,5.5511,5.5179,5.5179,5.5179,5.5179,5.5179,5.5179,5.4461,5.3414,5.3324,5.2935,5.2426,5.2336,5.1887,5.1259,5.075,0.0,0.0,0.0,0.0,0.0,0.0,0.0,0.0,0.0,0.0,0.0,0.0,0.0,0.0,0.0,0.0,0.0,0.0,0.0,0.0,0.0,0.0,0.0,0.0,4.7462,4.776,4.8681,4.9449,5.0092,5.0672,5.1613,5.2232,5.211,5.2386,5.2594,5.2301,5.1731,5.1402,5.1402,5.0405,0.0,0.0,0.0,4.7677,4.7205,4.6391,4.5759,4.5472,4.497,4.4694,4.4618,4.3796,4.283,4.1894,4.0575,3.8953,3.7253,3.6502,3.552,3.4423,3.5294,3.5294,3.4571,3.3254,3.2194,3.1523,0.0,0.0,0.0,4.2107,4.2423,4.2682,4.2419,4.4018,4.5304,4.5304,4.716,4.8476,4.8476,4.9374,4.9884,4.9734,5.1001,5.3124,5.6176,5.7858,5.9218,6.0423,6.0536,6.0984,6.1966,6.1541,6.1382,6.1703,6.0761,6.0013,5.9536,5.7906,5.7068,5.6768,5.5722,5.5179,5.5179,5.5179,5.5179,5.5179,5.5179,5.5029,5.473,5.4221,5.3922,5.3743,5.3204,5.2576,5.2067,5.2486,5.1558,5.0272,5.0421,4.9553,0.0,0.0,0.0,0.0,0.0,0.0,0.0,0.0,0.0,0.0,0.0,0.0,0.0,0.0,0.0,0.0,0.0,0.0,0.0,4.6554,4.7236,4.7539,4.6998,4.8185,4.9765,5.128,5.1165,5.1186,5.1722,5.0989,5.0517,5.0517,4.9956,4.9502,4.9247,4.87,4.8379,4.8029,4.7349,4.7019,4.69,4.644,4.5924,4.5497,4.5372,0.0,4.4618,4.3678,4.268,4.1448,3.9665,3.8067,3.6502,3.552,3.4673,3.4047,3.3922,3.3796,3.3611,3.2976,3.2525,3.1973,0.0,0.0,0.0,4.2781,4.2924,4.2954,4.2869,4.4227,4.5304,4.5304,4.7309,4.8775,4.8775,4.9643,5.0242,5.0242,5.1728,5.3939,5.6787,5.8344,5.9811,6.1547,6.158,6.2081,6.3183,6.2278,6.1825,6.1821,6.0677,5.9815,5.9327,5.7992,5.7365,5.7232,5.6161,5.5688,5.5658,5.5329,5.5179,5.5179,5.5179,5.5179,5.5149,5.482,5.47,5.467,5.4311,5.3982,5.3683,5.3683,5.3054,5.2157,5.1828,5.105,5.0242,0.0,0.0,0.0,0.0,0.0,0.0,0.0,0.0,0.0,0.0,0.0,0.0,0.0,0.0,4.631,4.6041,0.0,4.6134,4.5833,4.6174,4.6567,4.6972,4.766,4.853,4.9693,4.9858,4.9938,5.0126,4.9616,4.9274,4.9072,4.8611,4.8379,4.8146,4.7703,4.7349,4.7257,4.678,4.6566,4.6566,4.6421,4.6175,4.5899,4.5899,4.5748,4.5447,4.4319,4.3335,4.2209,3.9863,3.8065,3.6721,3.5003,3.4047,3.367,3.3418,3.3418,3.3379,3.2949,3.2656,3.2422,0.0,0.0,0.0,4.353,4.332,4.3196,4.3349,4.4466,4.5304,4.5304,4.7399,4.8895,4.8895,4.9823,5.0571,5.0996,5.2729,5.4837,0.0,5.912,6.0684,6.2232,6.2729,6.3383,6.412,6.3002,6.2263,6.1902,6.0676,5.983,5.9201,5.8297,5.7751,5.7721,5.6852,5.6346,5.6316,5.5777,5.5478,5.5388,5.5388,5.5299,5.5179,5.5179,5.5179,5.5179,5.5029,5.4999,5.491,5.4221,5.3922,5.3623,5.2546,5.2037,5.1738,5.1349,5.075,0.0,0.0,0.0,0.0,0.0,0.0,0.0,0.0,0.0,4.6111,4.6056,4.5888,4.5548,4.5132,4.5196,4.5311,4.5236,4.5283,4.58,4.71,4.7299,4.7377,4.767,4.8435,4.8726,4.8469,4.8353,4.8146,4.7938,4.7586,4.7468,4.7468,4.7019,4.6686,4.6686,4.6446,4.6301,4.6301,4.6301,4.6301,4.6301,4.6301,4.6301,4.6301,4.508,4.3966,4.297,3.9946,3.795,3.6708,3.473,3.367,3.3418,3.3418,3.3418,3.3379,3.3047,3.2871,3.2754,0.0,0.0,0.0,4.4524,4.4174,4.3819,4.3675,4.4629,4.5304,4.5304,4.6591,4.7519,4.7519,4.7668,4.8471,5.0235,5.1258,5.3376,5.7352,5.9087,6.0884,6.3006,6.35,6.412,6.489,6.3936,6.3512,6.3667,6.2619,6.1765,6.1232,5.9624,5.8863,5.8832,5.7513,5.7004,5.6974,5.6915,5.6555,5.6077,5.6077,5.5718,5.5179,5.5179,5.5179,5.5119,5.4521,5.4311,5.4221,5.3533,5.2905,5.2396,5.2247,5.1409,5.0571,5.1079,5.075,5.0092,4.9434,4.8566,4.767,4.7095,4.6944,4.6917,0.0,0.0,4.4966,4.5465,4.4555,4.3592,4.3568,4.423,4.4643,4.437,4.5555,4.6501,4.6127,4.6493,4.6824,4.656,4.7298,4.7795,4.7795,4.7349,4.7019,4.6925,4.6661,4.6421,4.6421,4.6421,4.6326,4.6326,4.6301,4.6301,4.6301,4.6301,4.6301,4.6301,4.6301,4.6301,4.6301,4.5232,4.4207,4.2848,3.9108,3.6603,3.5301,3.4352,3.367,3.3418,3.3418,3.3418,3.3418,3.3379,3.3105,3.2793,0.0,0.0,0.0,4.529,4.4648,4.4065,4.3754,4.4629,4.5304,4.5304,4.68,4.7878,4.7878,4.8295,4.9337,5.1128,5.1795,5.3735,5.7521,5.8807,6.0684,6.3713,6.4035,6.4657,6.5832,6.4929,6.4342,6.436,6.3036,6.2085,6.1551,6.0145,5.9425,5.9183,5.8204,5.7693,5.7663,5.7274,5.6944,5.6675,5.6316,5.6017,5.5688,5.491,5.4371,5.4042,5.4162,5.3952,0.0,5.2845,5.2665,5.2695,5.2306,5.2097,5.2007,5.2276,5.1618,5.0418,4.8804,4.7583,4.6602,4.6031,4.5779,4.5664,4.5458,4.4901,4.4393,4.4465,4.3967,4.3702,4.3842,4.4248,4.4566,4.4891,4.5603,4.6045,4.6137,4.6415,4.6421,4.6326,4.6661,4.69,4.69,4.6661,4.6566,4.6566,4.6446,4.6301,4.6301,4.6301,4.6301,4.6301,4.6301,4.6301,4.6301,4.6301,4.6301,4.6301,4.6301,4.6301,4.6301,4.5428,4.3887,4.1761,3.973,3.7593,3.5341,3.4759,3.416,3.3418,3.3418,3.3418,3.3418,3.3418,3.3301,3.3164,0.0,0.0,0.0,0.0,0.0,4.4343,4.391,4.471,4.5304,4.5387,4.6976,4.8173,4.826,4.8944,5.0075,5.1716,5.2376,5.4102,5.751,5.869,6.0698,6.3848,6.4386,6.5194,6.6473,6.5658,6.509,6.4819,6.3516,6.2548,6.1922,6.0805,6.0106,5.9713,5.8804,5.8488,5.8351,5.7872,5.7543,5.7334,5.6675,5.6226,5.5777,5.464,5.3653,5.2965,5.3473,5.3234,5.2576,5.2097,5.2247,5.2546,5.2067,5.2247,5.2606,5.2426,5.1439,5.003,4.8415,4.7256,4.6305,4.5657,4.5244,4.4967,4.457,4.4296,4.4042,4.3883,4.3799,4.3707,4.3888,4.4181,4.4522,4.5121,4.5522,4.5849,4.625,4.6301,4.6301,4.6301,4.6301,4.6301,4.6301,4.6301,4.6301,4.6301,4.6301,4.6301,4.6301,4.6301,4.6301,4.6301,4.6301,4.6301,4.6301,4.6301,4.6301,4.6301,4.6301,4.6301,4.6301,4.5574,4.386,4.1365,4.0598,3.8741,3.6218,3.584,3.5087,3.4044,3.4152,3.3965,3.3721,3.3721,3.3642,3.3418,0.0,0.0,0.0,0.0,0.0,4.4692,4.4343,4.4841,4.5387,4.5664,4.684,4.7825,4.8248,4.8635,4.9688,5.1591,5.2345,5.3971,5.7036,5.9131,6.1193,6.3141,6.4588,6.5733,6.6507,6.6042,6.5603,6.5425,6.4636,6.38,6.3004,6.1922,6.1041,6.0377,5.9713,5.9285,5.9069,5.9069,5.868,5.8022,5.7334,5.6316,5.5149,5.4461,5.3384,5.2247,5.2247,5.1828,5.1289,5.1259,5.1259,5.1289,5.1259,5.1259,5.1139,5.0511,4.9404,4.8506,4.8774,4.7995,4.6949,4.6146,4.5745,4.5376,4.5191,4.4493,4.3909,4.3855,4.3628,4.3381,4.3098,4.3865,4.4618,4.4644,4.5573,4.6301,4.6301,4.6301,4.6301,4.6301,4.6301,4.6301,4.6301,4.6301,4.6301,4.6301,4.6301,4.6301,4.6301,4.6301,4.6301,4.6301,4.6301,4.6301,4.6301,4.6301,4.6301,4.6301,4.6301,4.6301,4.6301,4.5306,4.3903,4.2247,4.1009,3.9515,3.7905,3.7464,3.6763,3.5731,3.6119,3.5578,3.4556,3.4556,3.4044,3.3418,0.0,0.0,0.0,0.0,0.0,0.0,4.6545,4.5978,4.5897,4.665,4.8201,0.0,0.0,0.0,0.0,0.0,5.2877,5.4064,5.6315,5.7972,5.9877,6.2092,6.2986,6.3991,6.5241,6.4942,6.4774,6.4689,6.4255,6.3734,6.3088,6.2424,6.1753,6.1175,6.0586,6.0272,6.0272,6.0061,5.9561,5.8893,5.7811,5.6654,5.5421,5.456,5.3114,5.1618,0.0,5.1498,5.0511,5.0062,5.0212,5.0481,5.0062,5.081,5.1648,5.0571,4.9613,4.8895,4.8387,4.77,4.7182,4.7272,4.6743,4.6283,4.6201,4.5711,4.5236,4.502,4.5145,4.5181,4.5012,4.5283,4.5681,4.5978,4.6104,4.6112,4.625,4.6301,4.6301,4.6301,4.6301,4.6301,4.6301,4.6301,4.6301,4.6301,4.6301,4.6301,4.6301,4.6301,4.6301,4.6301,4.6301,4.6301,4.6301,4.6301,4.6301,4.6301,4.6301,4.6059,4.5574,4.5331,4.4199,4.2546,4.2006,4.0695,3.898,3.8723,3.7954,3.7147,3.704,3.668,3.5983,3.5187,3.4624,3.4064,0.0,0.0,0.0,0.0,0.0,0.0,0.0,0.0,0.0,0.0,0.0,0.0,0.0,0.0,0.0,0.0,0.0,5.4755,5.594,5.7476,5.9265,6.1321,6.2088,6.3091,6.458,6.445,6.4368,6.4368,6.4133,6.3727,6.3162,6.2611,6.1981,6.1231,6.0733,6.0462,6.0259,6.0126,5.9809,5.9175,5.8065,5.6798,5.5327,5.4398,5.2852,0.0,5.1708,5.1139,5.0182,4.9763,4.9733,4.9823,4.9404,4.9972,5.072,5.0361,4.9613,4.8865,4.8477,4.8235,4.8253,4.8412,4.8081,4.7544,4.7457,4.695,4.6323,4.6007,4.6169,4.6266,4.6055,4.6091,4.6306,4.656,4.6289,4.6003,4.6225,4.6301,4.6301,4.6301,4.6476,4.6602,4.6602,4.6778,4.6728,4.6326,4.6301,4.6301,4.6301,4.6301,4.6301,4.6301,4.6301,4.6301,4.6301,4.6301,4.6301,4.6301,4.6301,4.6059,4.5453,4.5453,4.457,4.32,4.2925,4.1833,4.0418,4.0396,3.9963,3.9042,3.9063,3.8445,3.7485,3.6552,3.5625,3.4772,0.0,0.0,0.0,0.0,0.0,0.0,0.0,0.0,0.0,0.0,0.0,0.0,0.0,0.0,0.0,0.0,0.0,0.0,5.5921,0.0,0.0,6.0819,6.1761,6.2888,6.4343,6.4377,6.4377,6.4377,6.4233,6.3819,6.3107,6.2706,6.1815,6.0739,6.0456,6.0074,5.9558,5.9558,5.9363,5.9006,5.8128,5.6726,5.5149,5.4092,5.2842,5.1572,5.1353,5.084,5.0242,5.0242,4.9793,4.9284,4.9314,4.8895,4.8626,4.9883,4.9344,4.8536,4.9134,4.961,4.9902,4.9622,4.9397,4.9149,4.8653,4.7948,4.7232,4.666,4.6729,4.684,4.6164,4.6336,4.6517,4.654,4.6178,4.6028,4.6276,4.6326,4.6326,0.0,0.0,0.0,4.7179,4.7606,4.7481,4.6476,4.6376,4.6351,4.6301,4.6301,4.6301,4.6301,4.6301,4.6301,4.6301,4.6301,4.6301,4.6301,4.6301,4.6059,4.5817,4.5817,4.5061,4.3802,4.3802,4.3177,4.1911,4.265,4.227,4.1527,4.1783,4.0874,3.9174,3.8378,3.7165,3.5595,0.0,0.0,0.0,0.0,0.0,0.0,0.0,0.0,0.0,0.0,0.0,0.0,0.0,0.0,0.0,0.0,0.0,0.0,5.6144,0.0,0.0,0.0,0.0,0.0,0.0,0.0,0.0,6.1264,6.2144,6.2441,6.2066,6.2709,6.2771,6.2207,6.1938,6.1724,6.1633,6.1299,6.0504,5.9361,5.8403,5.6714,5.4816,5.4452,5.3375,5.2094,5.2269,5.1509,0.0,0.0,0.0,4.9344,4.9853,4.9883,4.9793,5.0122,5.0002,4.9763,4.9942,4.9938,4.9991,5.0342,5.0132,4.9892,4.9669,4.8804,4.797,4.7843,4.7954,4.7791,4.7218,4.7459,4.7745,4.7638,4.6901,4.6391,4.6778,4.6577,0.0,4.6878,0.0,4.728,4.7682,4.7832,4.7807,4.7531,4.7154,4.6753,4.6326,4.6301,4.6301,4.6301,4.6301,4.6301,4.6301,4.6301,4.6301,4.6301,4.6301,4.6059,4.5817,4.5817,4.5306,4.4546,4.4546,4.4175,4.3678,4.3802,4.3802,4.3553,4.3051,4.2454,4.1661,4.0157,3.8979,3.8018,0.0,0.0,0.0,0.0,0.0,0.0,0.0,0.0,0.0,0.0,0.0,0.0,0.0,0.0,0.0,0.0,0.0,0.0,0.0,0.0,0.0,0.0,0.0,0.0,0.0,0.0,0.0,0.0,0.0,0.0,6.0885,6.1447,6.1567,6.1201,6.1033,6.0948,6.0778,6.0521,5.9891,0.0,0.0,5.6997,5.543,5.4961,5.3982,5.2877,0.0,0.0,0.0,0.0,0.0,4.9344,4.9703,4.9823,4.9883,5.0152,5.0242,5.0242,5.0242,5.0359,5.0564,5.0922,5.0728,5.0442,5.0442,4.9698,4.9049,4.9049,4.9149,4.8979,4.8443,4.8526,4.8517,0.0,0.0,0.0,4.6894,4.6622,4.6527,0.0,4.733,0.0,4.8234,4.851,4.856,4.8309,4.7581,4.7004,4.6702,4.6451,4.6301,4.6301,4.6301,4.6301,4.6301,4.6301,4.6301,4.6301,4.6301,4.618,4.6059,4.6059,4.5696,4.5306,4.5306,4.5061,4.4816,4.4939,4.4816,4.4693,4.4299,4.3927,4.3255,4.1822,4.0837,3.9936,0.0,0.0,0.0,0.0,0.0,0.0,0.0,0.0,0.0,0.0,5.5458,5.6145,0.0,0.0,0.0,0.0,0.0,0.0,0.0,0.0,0.0,0.0,0.0,0.0,0.0,0.0,0.0,0.0,5.9911,0.0,0.0,0.0,5.9655,5.9297,5.9297,5.9185,5.8946,5.8946,5.8753,5.8492,5.8052,5.7264,5.6366,0.0,0.0,0.0,0.0,0.0,0.0,0.0,5.0155,4.9494,4.9404,4.9404,4.9523,5.0182,5.0361,5.0361,5.0361,5.078,5.1229,5.1229,5.1011,5.0822,5.0822,5.0478,5.0132,5.0132,5.0115,4.9997,4.9465,4.9238,4.8978,4.8423,0.0,4.7043,4.707,4.6787,4.6698,4.7079,4.7581,4.8134,4.8711,4.9264,4.9389,4.8912,4.7933,4.728,4.7154,4.6677,4.6376,4.6301,4.6301,4.6301,4.6301,4.6301,4.6301,4.6301,4.6301,4.6301,4.6301,4.6301,4.618,4.5817,4.5817,4.5696,4.5453,4.5696,4.5696,4.5453,4.5428,4.5037,4.4422,4.3404,4.2622,4.1729,0.0,0.0,0.0,0.0,0.0,0.0,0.0,0.0,0.0,0.0,5.6896,5.6862,0.0,0.0,0.0,0.0,0.0,0.0,0.0,0.0,0.0,0.0,0.0,0.0,0.0,5.8287,5.8287,5.8287,5.8896,5.9201,0.0,5.9734,6.0038,5.9962,5.9962,5.9962,5.9852,5.9655,5.9242,5.8672,5.8208,5.7508,5.6533,0.0,0.0,0.0,0.0,0.0,0.0,0.0,5.0601,5.0336,5.0062,5.0062,5.0182,5.084,5.105,5.105,5.105,5.1139,5.1229,5.1229,5.1229,5.1105,5.1105,5.0624,0.0,5.0206,5.0046,4.9757,4.9251,4.9195,4.9274,4.9228,4.8819,4.8548,4.8205,4.8163,4.8069,0.0,4.7951,4.8383,4.8711,4.9264,4.9565,4.9464,4.8862,4.8083,4.7179,4.7054,4.6778,4.6326,4.6301,4.6301,4.6301,4.6301,4.6301,4.6301,4.6301,4.6301,4.6301,4.6301,4.6301,4.618,4.618,4.618,4.618,4.618,4.618,4.6059,4.5817,4.5696,4.5428,4.4669,4.4227,4.3712,0.0,0.0,0.0,0.0,0.0,0.0,0.0,5.5581,5.6697,5.7746,5.8254,5.8524,5.849,5.8118,5.7881,0.0,0.0,0.0,0.0,0.0,0.0,0.0,0.0,0.0,0.0,5.7881,5.7881,5.7881,0.0,5.8423,5.8457,5.8795,5.8964,5.8964,5.8964,5.8964,5.8964,5.889,5.8612,5.8275,5.7976,5.7549,0.0,0.0,0.0,0.0,0.0,0.0,0.0,0.0,5.2162,5.1846,5.0789,5.0573,5.087,5.1528,5.1498,5.1229,5.1229,5.1229,5.1229,5.1229,5.096,5.081,5.1139,0.0,0.0,5.069,5.0564,5.0283,4.9934,4.9791,0.0,4.9867,4.9803,4.961,4.9329,4.9153,4.889,4.8438,4.8428,4.8549,4.8913,4.9242,4.9391,4.9565,4.9339,4.8837,4.8033,4.7431,4.6878,4.6326,4.6301,4.6301,4.6301,4.6301,4.6301,4.6301,4.6301,4.6301,4.6301,4.6301,4.6301,4.6301,4.6301,4.6301,4.6301,4.6301,4.6301,4.6301,4.6059,4.6059,4.5939,4.555,4.5184,4.5013,0.0,0.0,0.0,0.0,0.0,0.0,5.5006,5.6664,5.8118,5.8761,5.9573,6.0013,5.9776,5.8761,5.8051,0.0,0.0,0.0,0.0,0.0,0.0,0.0,0.0,0.0,0.0,0.0,0.0,5.7881,5.7881,0.0,0.0,0.0,0.0,0.0,5.7881,5.7881,5.7881,5.7881,5.7881,0.0,0.0,5.7763,0.0,0.0,0.0,0.0,0.0,0.0,0.0,0.0,5.3742,5.3371,5.1754,5.1424,5.1686,5.1982,5.1802,5.1503,5.1259,5.1229,5.1229,5.1229,5.072,5.0421,5.1079,5.072,5.0421,5.1079,5.1011,5.0822,5.0567,0.0,5.0284,0.0,5.0696,5.0685,5.0378,5.0216,4.9988,4.9323,4.9049,0.0,4.9157,4.9237,4.9418,4.9748,4.9772,4.9417,4.8611,4.7657,4.6878,4.6326,4.6301,4.6301,4.6301,4.6301,4.6301,4.6301,4.6301,4.6301,4.6301,4.6301,4.6301,4.6301,4.6301,4.6301,4.6301,4.6301,4.6301,4.6301,4.6301,4.6301,4.6301,4.5939,4.5939,4.5817,0.0,0.0,0.0,0.0,0.0,0.0,5.6393,5.734,5.8863,6.1603,6.0892,6.0622,6.1941,6.0182,5.8626,0.0,0.0,0.0,0.0,0.0,0.0,0.0,0.0,0.0,0.0,0.0,0.0,5.7881,5.7881,0.0,0.0,0.0,0.0,0.0,0.0,5.7881,5.7881,5.7881,0.0,0.0,0.0,0.0,0.0,0.0,0.0,0.0,0.0,0.0,0.0,0.0,0.0,5.421,5.3632,5.3307,5.2916,5.1937,0.0,0.0,5.1473,5.1229,5.1229,5.1229,5.072,5.0421,5.1079,0.0,5.0421,5.1079,5.1229,5.1105,5.0822,0.0,0.0,0.0,0.0,5.1832,5.1537,5.2044,5.1766,5.0118,0.0,0.0,4.9469,4.9636,4.9845,5.0142,5.0432,4.9748,4.8033,4.7431,4.6878,4.6326,4.6301,4.6301,4.6301,4.6301,4.6301,4.6301,4.6301,4.6301,4.6301,4.6301,4.6301,4.6301,4.6301,4.6301,4.6301,4.6301,4.6301,4.6301,4.6301,4.6301,4.6301,4.6301,4.6301,4.6301,0.0,0.0,0.0,0.0,0.0,0.0,5.6055,5.7881,5.9641,6.0858,6.1298,6.1535,6.1704,6.0926,5.9911,5.866,0.0,0.0,0.0,0.0,0.0,0.0,0.0,0.0,0.0,0.0,5.7881,5.7881,5.7881,0.0,0.0,0.0,0.0,0.0,0.0,5.7881,5.7881,5.7881,0.0,0.0,0.0,0.0,0.0,0.0,0.0,0.0,0.0,0.0,5.6691,0.0,0.0,0.0,5.4883,5.4857,0.0,0.0,5.2178,5.1934,5.1383,5.1229,5.1229,5.1229,5.0421,4.9912,5.096,0.0,4.9942,5.099,5.1229,5.1229,5.1011,5.0822,5.1076,5.2082,5.2413,5.2642,5.2963,5.3274,5.2873,5.1486,5.1183,5.0898,5.0336,5.0372,5.0552,5.0996,5.0629,5.0097,4.9386,4.8472,4.7475,4.6591,4.6446,4.6301,4.6301,4.6301,4.6301,4.6301,4.6301,4.6301,4.6301,4.6301,4.6301,4.6301,4.6301,4.6301,4.6301,4.6301,4.6301,4.6301,4.6301,4.6301,4.6301,4.6301,4.6301,4.6301,0.0,0.0,0.0,0.0,0.0,5.5784,5.6021,5.8186,6.0013,6.0689,6.1535,6.2042,6.1975,6.1569,6.0858,5.9776,5.8795,0.0,0.0,0.0,0.0,0.0,0.0,0.0,0.0,0.0,5.822,5.822,5.8423,5.8524,0.0,0.0,5.822,5.822,0.0,0.0,0.0,0.0,0.0,0.0,0.0,0.0,0.0,0.0,0.0,0.0,0.0,0.0,0.0,0.0,0.0,0.0,0.0,0.0,0.0,0.0,5.2551,5.2154,5.1206,5.1173,5.1263,5.099,5.0242,4.9793,0.0,0.0,4.9883,5.099,5.1229,5.1229,5.1229,5.116,5.1572,5.2702,5.297,5.3318,5.4244,5.4311,5.4033,5.341,5.2778,5.229,5.182,5.1508,5.155,5.1927,5.1293,5.0987,5.08,4.973,4.8593,4.7163,4.69,4.6661,4.6446,4.6446,4.6421,4.6301,4.6301,4.6301,4.6301,4.6301,4.6301,4.6301,4.6301,4.6301,4.6301,4.6301,4.6301,4.6301,4.6301,4.6301,4.6301,4.6301,4.6301,4.6301,0.0,0.0,0.0,0.0,0.0,5.5953,5.6697,5.8051,5.9844,6.2076,6.1738,6.1873,6.3328,6.2178,6.1298,6.1298,5.9877,0.0,0.0,0.0,0.0,0.0,0.0,0.0,0.0,0.0,5.8998,5.8998,5.9708,6.008,6.0047,5.9336,5.8998,5.8964,0.0,0.0,0.0,0.0,0.0,0.0,0.0,0.0,0.0,0.0,0.0,0.0,0.0,0.0,0.0,0.0,0.0,0.0,0.0,5.6053,5.5247,0.0,5.3108,5.3466,5.1243,5.109,5.1329,5.0421,5.0242,5.0242,0.0,5.0242,5.0421,5.1079,5.1229,5.1229,5.1229,5.1738,5.2396,5.3084,5.3204,5.3764,5.5426,5.5189,5.5071,0.0,5.5051,5.4322,5.3971,5.31,5.2547,5.2575,5.257,5.2311,5.1677,5.108,4.9774,4.7703,4.7703,4.7349,4.6806,4.6806,4.6686,4.6301,4.6301,4.6301,4.6301,4.6301,4.6301,4.6301,4.6301,4.6301,4.6301,4.6301,4.6301,4.6301,4.6301,4.6301,4.6301,4.6301,4.6301,4.6301,0.0,0.0,0.0,0.0,0.0,0.0,5.6697,5.8051,5.9268,5.9979,6.0317,6.0655,6.1129,6.1264,6.1095,6.052,5.9573,0.0,0.0,0.0,0.0,0.0,0.0,0.0,0.0,5.8626,5.9268,5.9742,6.0554,6.0926,6.0926,6.0689,6.0013,5.8998,5.8761,5.8355,0.0,0.0,0.0,0.0,0.0,0.0,6.1535,0.0,0.0,0.0,0.0,0.0,0.0,0.0,0.0,0.0,0.0,0.0,0.0,5.4663,5.3967,5.3565,5.2541,5.2123,5.1972,5.1668,5.1,5.0607,5.1088,0.0,5.0421,5.1079,5.1229,5.1229,5.1229,5.1768,5.2276,5.2486,5.3294,5.4251,5.5227,5.5616,0.0,5.6373,5.5477,5.4574,5.4031,5.3473,5.3432,5.3755,5.3229,5.2954,5.3209,5.2484,5.1155,4.9274,4.87,4.8262,4.8029,4.7821,4.7611,4.7231,4.7231,4.7019,4.6686,4.6686,4.6566,4.6301,4.6301,4.6301,4.6301,4.6301,4.6301,4.6301,4.6301,4.6301,4.6301,4.6301,4.6301,4.6301,0.0,0.0,0.0,0.0,0.0,0.0,5.6731,5.7814,5.8693,5.8964,5.9404,5.981,6.008,6.0825,6.1095,6.0588,6.0148,0.0,0.0,0.0,0.0,0.0,0.0,0.0,5.8321,5.9032,5.9945,6.096,6.1738,6.2279,6.255,6.1975,6.1197,6.025,5.9404,5.8761,0.0,0.0,0.0,0.0,0.0,0.0,6.1839,0.0,0.0,0.0,0.0,0.0,0.0,0.0,0.0,0.0,0.0,0.0,0.0,0.0,5.5343,5.4537,5.3381,5.2953,5.2843,5.2329,5.1787,5.1364,5.1425,0.0,0.0,0.0,0.0,5.093,5.1169,5.1768,5.2276,5.2546,5.3503,5.461,5.5748,5.6077,0.0,5.6825,5.6212,5.5411,5.4525,5.4156,5.4124,5.4504,5.3914,5.3617,5.4052,5.3463,5.2594,5.1512,5.0378,4.9589,4.916,4.8957,4.8611,4.8262,4.8146,4.7795,4.7468,4.7375,4.7138,4.678,4.678,4.6661,0.0,4.6446,4.6421,4.6301,4.6301,4.6301,4.6301,4.6301,4.6301,4.6301,0.0,0.0,0.0,0.0,0.0,0.0,0.0,5.7442,5.8152,5.8829,5.893,5.9201,5.9877,6.0689,6.1231,6.1231,6.1332,0.0,0.0,0.0,0.0,0.0,0.0,0.0,5.8998,5.9708,6.0892,6.2482,6.3226,6.3971,6.4647,6.326,6.255,6.2313,6.0182,5.9201,0.0,0.0,0.0,0.0,6.0926,6.1264,0.0,0.0,0.0,0.0,0.0,0.0,0.0,0.0,0.0,0.0,0.0,0.0,0.0,0.0,0.0,0.0,0.0,5.3672,5.3818,5.2504,5.2529,5.2572,5.169,0.0,0.0,0.0,0.0,0.0,5.1109,5.1768,5.2396,5.3025,5.3713,5.488,5.6765,5.6615,0.0,0.0,5.7034,5.6555,5.5299,5.5006,5.4803,5.4803,5.4539,5.4406,5.4406,5.4097,5.4023,5.3919,5.2594,5.1402,5.0181,5.0181,4.9843,4.9301,4.893,4.8815,4.87,4.8379,4.8172,4.7821,4.7795,4.7468,4.6925,4.6925,4.6686,4.6301,4.6301,4.6301,4.6301,4.6301,4.6301,4.6301,0.0,0.0,0.0,0.0,0.0,0.0,0.0,0.0,0.0,0.0,5.8152,5.822,5.8389,5.9573,6.0385,0.0,0.0,0.0,0.0,0.0,0.0,0.0,0.0,0.0,5.8998,5.9708,6.1129,6.326,6.3971,6.4715,6.5425,6.5087,6.4005,6.2381,6.1839,6.096,0.0,0.0,0.0,0.0,6.0554,6.0757,0.0,0.0,0.0,0.0,5.8152,5.7881,0.0,0.0,0.0,0.0,0.0,0.0,0.0,0.0,5.7439,5.7147,5.6261,0.0,5.4985,5.4659,5.4137,5.3545,0.0,0.0,0.0,0.0,0.0,0.0,0.0,5.1862,5.2247,5.2396,5.3443,5.473,5.6196,5.7124,0.0,5.6496,5.6376,5.6077,5.5269,5.5179,5.5108,5.5108,5.5078,5.4976,5.4976,5.4976,5.4773,5.4568,5.4259,5.3471,5.2244,5.2056,5.1731,5.1072,5.1072,5.0489,4.9616,4.9643,4.9301,4.8726,4.8469,4.8146,4.7795,4.7586,4.7138,4.6686,4.6686,4.6566,4.6301,4.6301,4.6301,4.6301,0.0,0.0,0.0,0.0,0.0,0.0,0.0,0.0,0.0,0.0,5.7881,5.7881,5.7881,5.9201,6.0114,0.0,0.0,0.0,0.0,0.0,0.0,0.0,0.0,5.9268,6.0047,6.0452,6.1738,6.4005,6.441,6.5155,6.6203,6.5865,6.4884,6.3362,6.2347,6.1231,0.0,0.0,0.0,6.1264,6.0825,0.0,0.0,0.0,0.0,0.0,5.8017,5.7881,0.0,5.8355,5.822,5.7949,0.0,0.0,0.0,0.0,5.7735,5.7662,5.7439,5.6801,5.61,5.5861,5.5263,5.4717,5.4517,0.0,0.0,0.0,0.0,0.0,0.0,0.0,5.2617,5.3218,5.4321,5.5448,5.6466,0.0,5.7752,5.6705,5.6585,5.6346,5.5718,5.5658,5.5508,5.5209,5.5179,5.5179,5.5179,5.5179,5.5078,5.5006,5.5006,5.4436,5.3471,5.3261,5.2943,5.2516,5.238,5.1948,5.1375,5.1293,5.0851,5.0293,5.0041,4.9589,4.893,4.8611,4.8029,4.7349,4.7112,4.678,4.6566,4.6301,4.6301,4.6301,0.0,0.0,0.0,0.0,0.0,0.0,0.0,0.0,0.0,0.0,0.0,0.0,0.0,0.0,0.0,0.0,0.0,0.0,0.0,0.0,0.0,0.0,6.0216,6.0486,6.1298,6.14,6.2516,6.4613,6.4715,6.5459,6.6812,6.617,6.5392,6.4512,6.2279,6.0994,6.0486,6.1061,6.1366,6.1467,6.1366,0.0,0.0,0.0,0.0,0.0,0.0,0.0,0.0,5.8017,5.7983,5.7915,5.8017,0.0,0.0,0.0,0.0,0.0,5.7881,5.7581,5.723,5.6812,5.6343,5.6025,5.5783,0.0,0.0,0.0,0.0,0.0,0.0,0.0,0.0,5.4375,5.5501,5.6286,5.6615,5.7334,5.7573,5.6885,5.6795,5.6585,5.6077,5.6017,5.5777,5.5239,5.5179,5.5179,5.5179,5.5179,5.5179,5.5179,5.5179,5.4875,5.4126,5.4126,5.3919,5.3739,5.3366,5.3232,5.3126,5.2943,5.2516,5.1948,5.1948,5.1293,5.0293,4.9956,4.916,4.8262,4.7677,4.7231,4.678,4.6566,4.6301,4.6301,0.0,0.0,0.0,0.0,0.0,0.0,0.0,0.0,0.0,0.0,0.0,0.0,0.0,0.0,0.0,0.0,0.0,0.0,0.0,0.0,0.0,6.2042,6.0791,6.0486,6.1298,6.1907,6.299,6.4613,6.5222,6.5967,6.6812,6.6677,6.5899,6.4512,6.2279,6.1569,6.2009,6.1501,6.167,6.2178,6.1535,0.0,0.0,0.0,0.0,0.0,0.0,0.0,0.0,5.8626,5.8423,5.8017,5.8626,0.0,0.0,0.0,0.0,0.0,5.7881,5.8281,5.8605,5.8379,5.8074,5.7686,0.0,0.0,0.0,0.0,0.0,0.0,0.0,0.0,5.3209,0.0,0.0,5.5807,5.479,5.5688,5.6226,5.5568,5.5478,5.5448,5.5359,5.5329,5.5299,5.5209,5.5179,5.5179,5.5179,5.5179,5.5179,5.5179,5.5179,5.5179,5.4976,5.4976,5.4875,5.4598,5.4568,5.423,5.3785,5.3681,5.35,5.3184,5.2914,5.2487,5.1839,5.1293,5.0293,4.9186,4.8611,4.7912,4.7087,4.678,4.6566,4.6301,0.0,0.0,0.0,0.0,0.0,0.0,0.0,0.0,0.0,0.0,0.0,0.0,0.0,0.0,0.0,0.0,0.0,0.0,0.0,0.0,6.2381,6.2381,6.211,6.211,6.2482,6.2821,6.3903,6.5797,6.6136,6.688,6.803,6.7218,6.6034,6.4546,6.3125,6.2448,6.2381,6.2042,6.2076,6.2313,0.0,0.0,0.0,0.0,0.0,0.0,0.0,0.0,0.0,0.0,5.8186,5.7949,5.8287,0.0,0.0,0.0,0.0,0.0,5.7881,5.8457,5.8957,5.8882,5.8925,5.8964,0.0,0.0,0.0,0.0,0.0,0.0,0.0,0.0,5.5003,5.553,0.0,5.6161,5.5359,5.5777,5.6077,5.5748,5.5718,5.5718,5.5718,5.5718,5.5568,5.5209,5.5179,5.5179,5.5179,5.5179,5.5179,5.5179,5.5179,5.5179,5.5179,5.5179,5.5108,5.5006,5.5006,5.4875,5.4641,5.4641,5.4466,5.4156,5.4023,5.3681,5.3049,5.2516,5.1846,5.1151,5.0243,4.9505,4.8797,4.7675,4.6995,4.6702,0.0,0.0,0.0,0.0,0.0,0.0,0.0,0.0,0.0,0.0,0.0,0.0,0.0,0.0,0.0,0.0,0.0,0.0,0.0,6.1839,6.2212,6.2381,6.3125,6.3531,6.3531,6.4038,6.5121,6.6812,6.7184,6.7861,6.8808,6.7252,6.5865,6.4546,6.3666,6.2922,6.2381,6.2381,6.2381,6.2347,0.0,0.0,0.0,0.0,0.0,0.0,0.0,0.0,0.0,0.0,0.0,0.0,0.0,0.0,0.0,5.7881,5.7881,5.7881,5.7881,5.8457,5.9032,5.9032,0.0,0.0,0.0,0.0,0.0,0.0,0.0,0.0,0.0,5.7412,0.0,5.6668,5.6526,5.6233,5.6029,5.5957,5.5957,5.5957,5.5957,5.5957,5.5957,5.5957,5.5718,5.5239,5.5179,5.5179,5.5179,5.5179,5.5179,5.5179,5.5179,5.5179,5.5179,5.5179,5.5179,5.5179,5.5179,5.5179,5.5179,5.5179,5.5108,5.4905,5.4905,5.4657,5.4228,5.3809,5.3439,5.3133,5.2011,5.1017,5.006,4.8435,4.7551,4.7255,0.0,0.0,0.0,0.0,0.0,0.0,0.0,0.0,0.0,0.0,0.0,0.0,0.0,0.0,0.0,0.0,0.0,0.0,0.0,6.1366,6.167,6.2347,6.3125,6.3531,6.3531,6.5527,6.6643,6.6812,6.8233,6.8605,6.7963,6.6474,6.5358,6.4546,6.3091,6.2448,6.2381,6.2381,6.2381,6.2381,6.2347,0.0,0.0,0.0,0.0,0.0,0.0,0.0,0.0,0.0,0.0,0.0,0.0,0.0,5.7881,5.7881,5.7881,5.7881,5.7881,5.8457,5.9032,5.9032,0.0,0.0,0.0,0.0,0.0,0.0,0.0,0.0,0.0,5.8154,5.7239,5.7029,5.6264,5.5541,5.5269,5.5269,5.5269,5.5269,5.5269,5.5269,5.5269,5.5269,5.5239,5.5179,5.5179,5.5179,5.5179,5.5179,5.5179,5.5179,5.5179,5.5179,5.5179,5.5179,5.5179,5.5179,5.5179,5.5179,5.5179,5.5179,5.5179,5.5179,5.5179,5.5304,5.553,5.5247,5.4963,5.4783,5.3894,5.2069,4.9776,4.8774,4.8131,4.7857,0.0,0.0,0.0,0.0,0.0,0.0,0.0,0.0,0.0,0.0,0.0,0.0,0.0,0.0,0.0,0.0,0.0,0.0,0.0,6.0791,6.1434,6.1704,6.2888,6.3734,6.4174,6.5899,6.7286,6.8233,6.9282,6.9383,6.8605,6.7557,6.617,6.458,6.4005,6.326,6.2381,6.2381,6.2381,6.2381,6.2381,6.1467,0.0,0.0,0.0,0.0,0.0,0.0,0.0,0.0,5.7881,5.7881,5.7881,5.7881,5.7881,5.7881,5.7881,5.7881,5.7881,5.8084,0.0,0.0,0.0,0.0,0.0,0.0,0.0,0.0,0.0,0.0,0.0,0.0,5.8308,5.7623,5.6671,5.5849,5.528,5.5179,5.5179,5.5179,5.5179,5.5179,5.5179,5.5179,5.5179,5.5179,5.5179,5.5179,5.5179,5.5179,5.5179,5.5179,5.5179,5.5179,5.5179,5.5179,5.5179,5.5179,5.5179,5.5179,5.5179,5.5179,5.5179,5.5209,5.5628,5.5927,5.599,5.6169,5.6279,5.6246,5.4941,5.3216,5.1137,5.0085,4.9087,4.8385,0.0,0.0,0.0,0.0,0.0,0.0,0.0,0.0,0.0,0.0,0.0,0.0,0.0,0.0,0.0,0.0,0.0,0.0,5.8998,6.0013,6.0689,6.0926,6.2347,6.3396,6.3903,6.5831,6.7455,6.8707,6.9485,6.9451,6.8707,6.7929,6.6508,6.458,6.4377,6.3565,6.2381,6.2381,6.2381,6.2381,6.2381,6.1467,0.0,0.0,0.0,0.0,0.0,0.0,0.0,0.0,5.7881,5.7881,5.7881,5.7881,5.7881,5.7881,5.7881,5.7881,5.7881,5.7881,5.7949,0.0,0.0,0.0,0.0,0.0,0.0,0.0,0.0,0.0,0.0,0.0,0.0,5.8304,5.7413,5.6556,5.5511,5.528,5.528,5.5179,5.5179,5.5179,5.5179,5.5179,5.5179,5.5179,5.5179,5.5179,5.5179,5.5179,5.5179,5.5179,5.5179,5.5179,5.5179,5.5179,5.5179,5.5179,5.5179,5.5179,5.5179,5.5179,5.5179,5.5239,5.5897,5.6286,5.6526,5.6944,5.7172,5.7137,5.5735,5.3992,5.2165,5.0929,4.9924,4.8962,0.0,0.0,0.0,0.0,0.0,0.0,0.0,0.0,5.7881,5.7881,5.8558,0.0,0.0,0.0,0.0,0.0,0.0,0.0,5.8964,5.9032,5.9336,6.0047,6.1569,6.2381,6.2381,6.529,6.7151,6.7895,6.8707,6.8673,6.7895,6.7151,6.6034,6.458,6.3869,6.3125,6.2415,6.2381,6.2381,6.2381,6.2381,6.1467,6.0114,0.0,0.0,0.0,0.0,0.0,0.0,0.0,5.7881,5.7881,5.7881,5.7881,5.7881,5.7881,5.7881,5.7881,5.7881,5.7881,0.0,0.0,0.0,0.0,0.0,0.0,0.0,0.0,0.0,6.2226,6.2802,6.1885,6.0566,5.9128,5.8494,5.7598,5.5871,5.5581,5.5481,5.5179,5.5179,5.5179,5.5179,5.5179,5.5179,5.5179,5.5179,5.5179,5.5179,5.5179,5.5179,5.5179,5.5179,5.5179,5.5179,5.5179,5.5179,5.5179,5.5179,5.5179,5.5179,5.5179,5.5179,5.5239,5.5897,5.6526,5.7154,5.7842,5.7744,5.7191,5.5876,5.4231,5.2465,5.1497,5.0487,4.959,0.0,0.0,0.0,0.0,0.0,0.0,0.0,0.0,5.7881,5.7881,5.8558,0.0,0.0,0.0,0.0,0.0,0.0,0.0,5.822,5.8727,5.9099,5.9336,6.0791,6.1873,6.2381,6.4275,6.6406,6.8741,6.7895,6.7624,6.7861,6.6609,6.5797,6.5324,6.4613,6.3869,6.3159,6.2618,6.2381,6.2381,6.2381,6.1467,6.0114,0.0,0.0,0.0,0.0,0.0,0.0,0.0,0.0,0.0,5.7881,5.7881,5.7881,5.7881,5.7881,5.7881,5.7881,0.0,0.0,0.0,0.0,0.0,0.0,0.0,0.0,0.0,0.0,6.2333,6.2532,6.173,6.0684,5.9809,5.8843,5.7777,5.6537,5.6244,5.5948,5.5481,5.5481,5.5381,5.5179,5.5179,5.5179,5.5179,5.5179,5.5179,5.5179,5.5179,5.5179,5.5179,5.5179,5.5179,5.5179,5.5179,5.5179,5.5179,5.5179,5.5179,5.5179,5.5179,5.5448,5.5927,5.6555,5.7184,5.7872,5.853,5.8267,5.7191,5.6394,5.4734,5.2465,5.1721,5.0741,4.959,0.0,0.0,0.0,0.0,0.0,0.0,0.0,0.0,5.7881,5.7881,5.8287,5.8389,0.0,0.0,0.0,0.0,0.0,0.0,5.7881,5.8321,5.8693,5.8998,6.0182,6.1467,6.2821,6.37,6.5189,6.732,6.6373,6.617,6.6576,6.5967,6.5527,6.5222,6.4783,6.4038,6.3024,6.2279,6.1772,6.1467,6.1467,6.0757,5.9674,0.0,0.0,0.0,0.0,0.0,0.0,0.0,0.0,0.0,5.7881,5.7679,5.7442,5.7442,5.7442,5.7442,5.7442,0.0,0.0,0.0,0.0,0.0,0.0,0.0,0.0,0.0,0.0,6.2459,6.268,6.2166,6.1399,6.0323,5.9691,5.8864,5.7495,5.7053,5.67,5.6244,5.6145,5.5948,5.5651,5.5651,5.5551,5.5381,5.5381,5.528,5.5179,5.5179,5.5179,5.5179,5.5179,5.5179,5.5179,5.5179,5.5179,5.5179,5.5179,5.5179,5.5179,5.5179,5.5538,5.6226,5.7124,5.7872,5.853,5.8949,5.8415,5.7191,5.6623,5.4852,5.2465,5.1846,5.0715,4.959,0.0,0.0,5.7881,5.7881,0.0,0.0,0.0,0.0,5.7881,5.7881,5.7881,5.7881,0.0,0.0,0.0,0.0,0.0,0.0,0.0,5.7881,5.822,5.8998,5.9776,6.1231,6.3362,6.3429,6.37,6.4309,6.4444,6.4546,6.4613,6.5222,6.5189,6.4613,6.4546,6.37,6.2347,6.1603,6.0858,6.0114,6.0114,5.9674,5.9032,5.9032,0.0,0.0,0.0,0.0,0.0,0.0,0.0,0.0,5.7881,5.7374,5.6799,5.6799,5.6799,5.6799,0.0,0.0,0.0,0.0,0.0,0.0,0.0,0.0,0.0,6.3125,0.0,6.2505,6.3054,6.2911,6.2232,6.0699,6.075,6.042,5.8642,5.8087,5.7808,5.7275,5.6988,5.67,5.6409,5.6409,5.6213,5.578,5.5681,5.5581,5.528,5.5179,5.5179,5.5179,5.5179,5.5179,5.5179,5.5179,5.5179,5.5179,5.5179,5.5179,5.5179,5.5179,5.5598,5.6316,5.7633,5.856,5.9099,5.9099,5.8335,5.7191,5.6623,5.4734,5.2465,5.1846,5.0715,4.959,0.0,0.0,5.7881,5.7881,0.0,0.0,0.0,0.0,0.0,0.0,0.0,0.0,0.0,0.0,0.0,0.0,0.0,0.0,0.0,5.7881,5.822,5.8998,6.0317,6.1535,6.2618,6.2618,6.2415,6.2009,6.3193,6.4038,6.458,6.4174,6.4208,6.458,6.4005,6.326,6.2347,6.1603,6.0858,6.0114,6.0114,5.9674,5.9032,5.9032,5.8558,0.0,0.0,0.0,0.0,0.0,0.0,0.0,5.7881,5.7374,5.6799,5.6799,5.6799,5.6799,0.0,0.0,0.0,0.0,0.0,0.0,0.0,0.0,0.0,6.255,6.2516,6.2336,6.2312,6.2186,6.1991,6.1219,6.1069,6.0647,5.9739,5.9355,5.8876,5.8119,5.7933,5.7746,5.7244,5.6988,5.6796,5.6506,5.6213,5.5948,5.5581,5.5481,5.5381,5.5179,5.5179,5.5179,5.5179,5.5179,5.5179,5.5179,5.5179,5.5179,5.5179,5.5179,5.5807,5.6974,5.8321,5.8979,5.9099,5.8882,5.8225,5.7191,5.602,5.435,5.2465,5.1596,5.0487,4.959,0.0,0.0,0.0,0.0,0.0,0.0,0.0,0.0,0.0,0.0,0.0,0.0,0.0,0.0,0.0,0.0,0.0,0.0,0.0,0.0,5.8389,5.9471,6.0689,6.1467,6.1873,6.1873,6.1501,6.0723,6.1501,6.2279,6.3024,6.299,6.3362,6.4038,6.3294,6.255,6.1806,6.0689,5.9742,5.9032,5.9032,5.8829,5.8457,5.8457,5.822,5.7881,5.7881,0.0,0.0,0.0,0.0,0.0,0.0,0.0,5.6799,5.6799,5.6799,5.6731,0.0,0.0,0.0,0.0,0.0,0.0,0.0,0.0,6.2381,6.2381,6.2381,6.2381,6.2189,6.2189,6.203,6.179,6.1595,6.1317,6.0769,6.0397,6.0054,5.9476,5.9266,5.8998,5.8514,5.8272,5.7902,5.7244,5.6892,5.6409,5.575,5.5681,5.5481,5.5179,5.5179,5.5179,5.5179,5.5179,5.5179,5.5179,5.5179,5.5179,5.5209,5.5807,5.6645,5.7633,5.865,5.9099,5.9099,5.8773,5.8114,5.7191,5.5876,5.4231,5.2465,5.1497,5.0487,4.959,0.0,0.0,0.0,0.0,0.0,0.0,0.0,0.0,0.0,0.0,0.0,0.0,0.0,0.0,0.0,0.0,0.0,0.0,0.0,0.0,0.0,5.9844,6.0655,6.1095,6.1095,6.1095,6.0689,5.9911,5.9776,6.0148,6.0926,6.1806,6.2584,6.3294,6.255,6.1772,6.0994,5.9607,5.8592,5.7881,5.7881,5.7881,5.7881,5.7881,5.7881,5.7881,5.7881,5.7881,5.7881,5.7881,0.0,0.0,0.0,0.0,5.6799,5.6799,5.6799,5.663,0.0,0.0,0.0,0.0,0.0,0.0,0.0,0.0,6.2245,6.2347,6.2381,6.2381,6.2381,6.2381,6.2302,6.211,6.2076,6.1917,6.1547,6.135,6.1103,6.0886,6.06,6.0312,5.9849,5.9619,5.9088,5.818,5.7653,5.6892,5.6115,5.575,5.5481,5.5179,5.5179,5.5179,5.5179,5.5179,5.5179,5.5179,5.5179,5.5239,5.5388,5.6466,5.7304,5.7992,5.877,5.9099,5.9099,5.8773,5.8114,5.7191,5.5761,5.4112,5.2465,5.1372,5.0359,4.959,0.0,0.0,0.0,0.0,0.0,0.0,0.0,0.0,0.0,0.0,5.7881,5.7881,0.0,0.0,0.0,0.0,0.0,0.0,5.7002,0.0,0.0,5.9167,5.9877,6.025,6.025,6.025,5.9911,5.9167,5.849,5.8592,5.9336,6.0791,6.1839,6.2516,6.1772,6.0994,6.0216,5.937,5.8592,5.7881,5.7881,5.7881,5.7881,5.7881,5.7881,5.7881,5.7881,5.7881,5.7881,5.7881,5.7881,0.0,0.0,0.0,5.6799,5.6799,5.6799,0.0,0.0,0.0,0.0,0.0,0.0,0.0,0.0,0.0,6.1637,6.2245,6.2381,6.2381,6.2381,6.2381,6.2381,6.2381,6.2381,6.2268,6.1917,6.1917,6.1756,6.1383,6.1301,6.1103,6.082,6.043,6.0001,5.9411,5.8546,5.7653,5.6603,5.6145,5.5681,5.5179,5.5179,5.5179,5.5179,5.5179,5.5179,5.5179,5.5179,5.5478,5.6047,5.6226,5.6645,5.7304,5.856,5.9099,5.9099,5.8555,5.7863,5.7078,5.5323,5.3779,5.2465,5.1094,5.0232,4.959,0.0,0.0,0.0,0.0,0.0,0.0,0.0,0.0,0.0,0.0,0.0,5.7881,0.0,0.0,0.0,5.6833,5.6731,5.6697,5.6799,5.778,5.8592,5.8998,5.9336,5.9471,5.9471,5.9471,5.9133,5.8389,5.7645,5.7881,0.0,5.9708,6.0419,6.1095,6.0757,6.0216,5.9438,5.8693,5.8186,5.7881,5.7881,5.7881,5.7881,5.7881,5.7881,5.7881,5.7881,5.7881,5.7881,5.7881,5.7881,5.7881,5.7881,0.0,0.0,0.0,0.0,0.0,0.0,0.0,0.0,0.0,0.0,0.0,0.0,0.0,6.1501,6.2245,6.2381,6.2381,6.2381,6.2381,6.2381,6.2381,6.2381,6.2381,6.2268,6.2189,6.2189,6.1951,6.1984,6.187,6.1595,6.1185,6.0717,6.0087,5.9209,5.8211,5.718,5.6634,5.6047,5.5481,5.5381,5.5381,5.5179,5.5179,5.5179,5.5179,5.5179,5.5329,5.5628,5.6017,5.6705,5.7693,5.8291,5.877,5.9099,5.8664,5.7974,5.7191,5.5644,5.4019,5.2465,5.1372,5.0359,4.959,0.0,0.0,0.0,0.0,0.0,0.0,0.0,0.0,0.0,0.0,0.0,0.0,0.0,0.0,0.0,0.0,5.6021,5.5953,5.6494,5.7205,5.7881,5.8423,5.8626,5.8727,5.8727,5.8727,5.8457,5.7881,5.7171,0.0,5.8727,5.893,5.9201,0.0,5.9945,5.981,5.9235,0.0,0.0,5.7881,5.7881,5.7881,5.7881,5.7881,5.778,5.7611,5.7611,5.7611,5.7611,0.0,5.7746,5.7881,5.7881,5.7881,0.0,0.0,0.0,0.0,0.0,0.0,0.0,0.0,0.0,0.0,0.0,0.0,6.1501,6.2245,6.2381,6.2381,6.2381,6.2381,6.2381,6.2381,6.2381,6.2381,6.2381,6.2381,6.2381,6.2381,6.2381,6.2302,6.211,6.179,6.1301,6.0717,5.9859,5.8882,5.7871,5.718,5.6506,5.5651,5.5581,5.5481,5.5179,5.5179,5.5179,5.5179,5.5179,5.5179,5.5209,5.5867,5.6795,5.7872,5.8052,5.8501,5.9099,5.8773,5.8114,5.7191,5.5876,5.4231,5.2465,5.1497,5.0487,4.959,0.0,0.0,0.0,0.0,0.0,0.0,0.0,0.0,0.0,0.0,0.0,0.0,5.7881,5.7239,5.6528,5.5818,5.575,5.575,5.5784,5.6461,5.6867,5.69,5.7577,0.0,5.7949,5.7949,5.7915,5.7881,5.7171,5.7205,5.7949,5.8693,5.866,5.8051,5.9471,6.008,5.9945,0.0,0.0,5.7881,5.7881,5.7881,5.7881,5.7881,5.7476,5.6867,5.6867,5.6867,0.0,0.0,0.0,5.7881,5.7881,5.7881,5.7881,0.0,0.0,0.0,0.0,0.0,0.0,0.0,0.0,0.0,0.0,6.1264,6.1501,6.2245,6.2381,6.2381,6.2381,6.2381,6.2381,6.2381,6.2381,6.2381,6.2381,6.2381,6.2381,6.2381,6.2381,6.2381,6.2381,6.211,6.1756,6.1383,6.0685,5.9707,5.861,5.7808,5.6957,5.5918,5.5651,5.5481,5.5179,5.5179,5.5179,5.5179,5.5179,5.5179,5.5209,5.5867,5.6526,5.7184,5.7842,5.8501,5.9099,5.8773,5.8114,5.7191,5.5876,5.4231,5.2465,5.1497,5.0487,4.959,0.0,0.0,0.0,0.0,0.0,0.0,0.0,0.0,0.0,0.0,0.0,0.0,0.0,5.6833,5.6021,5.575,5.5277,5.5006,5.5006,5.6122,5.6799,5.6799,5.7509,5.7881,5.7881,5.7881,5.7881,5.7881,5.7171,5.7171,5.7881,5.8152,5.8423,5.866,5.9641,5.9573,5.866,5.8118,0.0,5.7881,5.7881,5.7881,5.7848,5.7374,5.7036,5.6731,0.0,0.0,0.0,0.0,0.0,0.0,5.7881,5.7881,5.7881,0.0,0.0,0.0,0.0,0.0,0.0,0.0,0.0,5.8693,6.0182,6.1298,6.2212,6.2956,6.3463,6.3666,6.3193,6.2719,6.2381,6.2381,6.2381,6.2381,6.2381,6.2381,6.2381,6.2381,6.2381,6.2381,6.2381,6.2189,6.1917,6.1628,6.1103,6.0397,5.9564,5.8728,5.7902,5.6862,5.6311,5.575,5.5179,5.5179,5.5179,5.5179,5.5179,5.5418,5.5837,5.6077,5.6735,5.7782,5.8022,5.8501,5.9099,5.8991,5.8335,5.7191,5.6366,5.4616,5.2465,5.1721,5.0614,4.959,0.0,0.0,0.0,0.0,0.0,5.7881,5.7881,5.7881,5.7881,5.7881,0.0,0.0,0.0,0.0,5.5987,5.575,5.5243,5.4972,5.4972,5.6122,5.6799,5.6799,5.7509,5.7881,5.7881,5.7881,5.7881,5.7881,5.7408,5.7408,5.7881,5.8152,5.8389,5.866,5.9404,5.9201,0.0,0.0,0.0,5.7881,5.7881,5.7881,5.7848,5.734,5.6867,0.0,0.0,0.0,0.0,0.0,0.0,0.0,5.7881,5.7881,5.7881,5.7881,0.0,0.0,5.7171,0.0,0.0,0.0,0.0,5.866,6.0148,6.1298,6.2245,6.299,6.3531,6.37,6.3226,6.2719,6.2381,6.2381,6.2381,6.2381,6.2381,6.2381,6.2381,6.2381,6.2381,6.2381,6.2381,6.2268,6.203,6.187,6.1513,6.0986,6.0259,5.9652,5.8637,5.7338,5.6669,5.6047,5.5381,5.528,5.528,5.5179,5.5179,5.5538,5.6196,5.6376,5.7094,5.8141,5.8351,5.871,5.9099,5.9099,5.8415,5.7191,5.6623,5.4852,5.2465,5.1846,5.0715,4.959,0.0,0.0,5.7881,5.7881,5.7881,5.7881,5.7881,5.7881,5.7881,5.7881,0.0,0.0,0.0,0.0,0.0,5.5784,5.5716,5.5716,5.5716,5.6393,5.6799,5.6799,5.7509,5.7881,5.7881,5.7881,5.7881,5.7881,5.7881,5.7881,5.7915,5.8626,5.8592,5.7915,5.866,5.8998,5.893,0.0,5.7881,5.7881,0.0,5.7881,5.7881,0.0,0.0,0.0,5.5683,5.5683,0.0,5.5683,0.0,5.7848,5.7881,5.7881,5.7881,5.7881,5.7881,0.0,0.0,0.0,0.0,0.0,5.8998,5.9404,6.0892,6.1264,6.1501,6.2212,6.2381,6.2381,6.2347,6.2381,6.2381,6.2347,6.2381,6.2381,6.2381,6.2381,6.2381,6.2381,6.2381,6.2381,6.2381,6.2381,6.2268,6.1997,6.1997,6.1676,6.0802,6.0259,5.9088,5.718,5.6603,5.6145,5.5581,5.5581,5.5481,5.5179,5.5209,5.5568,5.6226,5.6825,5.7513,5.8201,5.883,5.9099,5.9099,5.9099,5.8415,5.7303,5.6623,5.4852,5.2588,5.1846,5.0715,4.959,0.0,5.7881,5.7881,5.7881,5.7881,5.7881,5.7881,5.7881,5.7881,0.0,0.0,0.0,5.7881,5.7239,5.6494,5.5784,5.5716,5.5716,5.5716,5.6393,5.6799,5.6799,5.7509,5.7881,5.7881,5.7881,5.7881,5.7881,5.7881,5.7881,5.7881,5.8084,5.8084,5.7915,5.8118,5.8186,5.8186,5.7983,0.0,5.7881,5.7881,5.7881,0.0,0.0,0.0,0.0,0.0,5.5243,5.5649,0.0,5.5886,5.7205,5.7712,5.7881,5.7881,5.7881,5.7881,5.7881,5.7881,0.0,0.0,0.0,0.0,0.0,5.9539,6.052,6.1366,6.1569,6.2009,6.2212,6.1548,6.1773,6.1908,6.1245,6.1852,6.2381,6.2381,6.2381,6.2381,6.2381,6.2381,6.2381,6.2381,6.2381,6.2381,6.2268,6.2302,6.211,6.1676,6.0736,5.9531,5.7933,5.7338,5.6669,5.5849,5.5681,5.5481,5.5209,5.5658,5.6226,5.6855,5.7543,5.8201,5.883,5.9039,5.9099,5.9099,5.9099,5.8555,5.7557,5.6964,5.5295,5.3173,5.2588,5.1346,4.9976,5.7881,5.7881,5.7881,5.7881,5.8152,5.8355,5.8355,5.8355,5.8355,0.0,0.0,0.0,5.7881,5.7509,5.7103,5.6664,5.663,5.663,5.663,5.7036,5.7273,5.7273,5.7645,5.7881,5.7881,5.7881,5.7881,5.7881,5.7881,5.7881,5.7881,5.7881,5.7881,5.7881,5.7881,5.7881,5.7881,5.7881,0.0,0.0,5.7881,0.0,0.0,5.7408,5.707,0.0,0.0,0.0,5.5615,5.4837,5.5581,5.6934,5.7645,5.7881,5.7881,5.7881,5.7881,5.7881,5.7881,5.7881,5.7881,5.7881,0.0,0.0,5.893,5.9471,5.9979,6.0283,6.0926,6.112,6.0256,6.0886,6.1245,6.0315,6.1088,6.1886,6.2156,6.2302,6.2381,6.2381,6.2381,6.2381,6.2381,6.2381,6.2381,6.2381,6.2381,6.2223,6.1917,6.1069,6.0054,5.8818,5.8272,5.7433,5.6213,5.6047,5.5651,5.5209,5.5867,5.6496,5.7124,5.7812,5.8471,5.9099,5.9099,5.9099,5.9099,5.9099,5.8555,5.7781,5.7078,5.5528,5.3631,5.2834,5.1596,5.0232,0.0,5.7881,5.7915,5.8017,5.8558,5.9032,5.9133,5.9133,5.9133,0.0,5.8558,5.8084,5.8017,5.8017,5.7983,5.7881,5.7881,5.7881,5.7881,5.7881,5.7881,5.7881,5.7881,5.7881,5.7881,5.7881,5.7881,5.7881,5.7881,5.7881,5.7881,5.7881,5.7881,5.7881,5.7881,5.7881,5.7881,5.7881,5.7848,5.778,5.778,5.7712,0.0,0.0,5.7239,5.6596,5.5852,5.5581,5.548,5.4803,5.5513,5.6799,5.7543,5.7814,5.7881,5.7881,5.7881,5.7881,5.7881,5.7881,5.7881,5.7881,5.7881,0.0,5.8727,5.8355,5.8084,5.8761,5.9404,5.9565,5.8698,5.9843,6.0539,5.96,6.0293,6.1189,6.1795,6.2156,6.2381,6.2381,6.2381,6.2415,6.2516,6.2516,6.2516,6.2516,6.2448,6.2223,6.179,6.135,6.0652,5.9707,5.9266,5.8272,5.6796,5.6409,5.5979,5.5299,5.5957,5.6585,5.7244,5.7932,5.856,5.9099,5.9099,5.9099,5.9099,5.9099,5.8664,5.7781,5.7191,5.5761,5.4139,5.32,5.197,5.0715,5.7881,5.7881,5.8084,5.8693,5.893,5.9201,5.981,5.9877,5.9877,5.9877,5.9742,5.9438,5.8863,5.8795,5.8558,5.7949,5.7881,5.7881,5.7881,5.7881,5.7881,5.7881,5.7881,5.7881,5.7881,5.7881,5.7881,5.7881,5.7881,5.7881,5.7881,5.7881,5.7881,5.7881,5.7881,5.7881,5.7881,5.7881,5.7543,5.7002,5.7002,5.6664,5.6156,5.6156,5.6055,5.5818,5.5074,5.4803,5.4769,5.4634,5.5175,5.6055,5.6799,5.7408,5.7881,5.7881,5.7881,5.7881,5.7881,5.7881,5.7881,5.7881,5.7881,0.0,5.8084,5.7983,5.7915,5.8084,5.822,5.818,5.7674,5.8806,5.9622,5.9059,5.9818,6.0592,6.1155,6.1852,6.2381,6.2381,6.2381,6.2618,6.3226,6.3294,6.3294,6.3294,6.2719,6.2302,6.1917,6.1837,6.135,6.0292,5.9707,5.8728,5.6988,5.6506,5.6191,5.5987,5.6615,5.7274,5.7932,5.862,5.8979,5.9099,5.9099,5.9099,5.9099,5.9099,5.8882,5.8445,5.7892,5.6708,5.5412,5.4497,5.3173,5.1747,5.7881,5.7881,5.8118,5.8896,5.9302,5.981,6.0588,6.0689,6.0689,6.0689,6.0351,5.981,5.9099,5.9032,5.8693,5.7949,5.7881,5.7881,5.7881,5.7881,5.7881,5.7881,5.7881,5.7881,5.7881,5.7881,5.7881,5.7881,5.7881,5.7881,5.7881,5.7881,5.7881,5.7881,5.7881,5.7881,5.7881,5.7881,5.7476,5.6799,5.6799,5.6359,5.5716,5.5716,5.5716,5.5615,5.4871,5.4363,5.4093,5.4465,5.4837,5.5412,5.6867,5.734,5.7509,5.822,5.8186,5.7881,5.7881,5.7881,5.7881,5.7881,5.7881,0.0,0.0,5.7611,5.734,5.734,5.7645,5.7707,5.7043,5.8111,5.883,5.8075,5.8719,5.9421,5.9533,6.0819,6.1818,6.2156,6.2302,6.255,6.2922,6.2956,6.2956,6.2956,6.2618,6.2381,6.2189,6.2189,6.1709,6.0685,6.0226,5.9056,5.7275,5.6796,5.6382,5.6196,5.6795,5.7453,5.8141,5.88,5.9099,5.9099,5.9099,5.9099,5.9099,5.9099,5.8991,5.8773,5.8114,5.7191,5.6251,5.497,5.3658,5.2465,5.7881,5.7881,5.8118,5.8896,5.9607,6.0385,6.1197,6.1434,6.1501,6.1501,6.0825,6.0047,5.9302,5.8964,5.849,5.7746,5.7543,5.7543,5.7679,5.7679,5.7679,5.7679,5.7814,5.7814,5.7679,5.7814,5.7881,5.7881,5.7881,5.7881,5.7881,5.7881,5.7881,5.7881,5.7881,5.7881,0.0,0.0,0.0,5.6799,5.6664,5.6258,5.5716,5.5716,5.5615,5.5412,5.4634,5.4093,5.3788,5.4397,5.4668,5.5141,5.707,5.7374,5.7273,5.8626,5.8693,5.8321,5.8321,5.822,5.8084,5.8084,5.8017,5.7881,0.0,0.0,0.0,5.7002,5.7476,5.764,5.6814,5.779,5.8346,5.7363,5.7873,5.8308,5.8286,5.9533,6.0819,6.1492,6.1964,6.2245,6.2381,6.2651,6.2821,6.2821,6.2685,6.2618,6.2618,6.2482,6.1951,6.0986,6.0567,5.9323,5.7433,5.6957,5.664,5.6346,5.6855,5.7513,5.8321,5.886,5.9099,5.9099,5.9099,5.9099,5.9099,5.9099,5.9099,5.8991,5.8225,5.7669,5.6964,5.544,5.4231,5.3146,5.7881,5.7881,5.8118,5.8896,5.9607,6.0385,6.1197,6.1839,6.2279,6.2279,6.1637,6.0858,6.0047,0.0,0.0,0.0,0.0,5.6258,5.6867,5.6934,5.6934,5.6934,5.7543,5.7577,5.6934,5.7577,5.7881,5.7881,5.7881,5.7881,5.7881,5.7881,5.7881,5.7881,5.7881,0.0,0.0,0.0,5.6867,5.6731,5.6089,5.5784,5.5716,5.5716,5.531,5.4634,5.389,5.3991,5.4465,5.4566,5.504,5.575,5.663,5.7306,5.7915,5.8761,5.9404,5.9844,5.9844,5.937,5.8896,5.8896,5.8389,5.7881,5.7881,0.0,5.778,5.778,0.0,5.7775,5.756,0.0,0.0,5.8063,5.8053,5.8241,5.8747,5.873,5.9007,5.9944,6.084,6.167,6.2347,6.3565,6.4343,6.4343,6.3734,6.3396,6.3396,6.2753,6.1951,6.0986,6.0567,5.9323,5.7433,5.6957,5.6854,5.7004,5.7064,5.7752,5.9009,5.9069,5.9099,5.9099,5.9099,5.9099,5.9099,5.9099,5.9099,5.9099,5.8664,5.8335,5.7974,5.6964,5.5817,5.4616,5.7808,5.7881,5.8118,5.8896,5.9268,5.9877,6.1129,6.1907,6.2381,6.2381,6.211,6.1467,0.0,0.0,0.0,0.0,0.0,5.6934,0.0,0.0,5.7239,5.6833,5.7509,5.7746,5.7442,5.7712,5.7881,5.7881,5.7881,5.7881,5.7881,5.7881,5.7881,5.7881,5.7881,0.0,5.7239,0.0,5.6562,5.6156,5.5852,5.5716,5.5716,5.5716,5.5243,5.4499,5.3754,5.3957,5.4532,5.4093,5.4465,5.5277,5.6427,5.7002,5.7577,5.9167,5.9877,6.0114,6.0114,5.9877,5.9539,5.9133,5.8795,5.8423,5.7983,5.7881,5.7881,5.7881,0.0,0.0,0.0,0.0,0.0,0.0,5.7453,5.7321,5.7574,5.7498,5.813,6.0013,6.0829,6.1603,6.2313,6.2843,6.31,6.31,6.2589,6.2259,6.2259,6.1877,6.1268,6.0397,5.9968,5.8908,5.7275,5.67,5.6686,5.7094,5.7094,5.7812,5.9099,5.9099,5.9099,5.9099,5.9099,5.9099,5.9099,5.9099,5.9099,5.9099,5.8991,5.8773,5.8335,5.7332,5.6279,5.5295,5.7439,5.7735,5.7977,5.8626,5.8863,5.9471,6.0757,6.1434,6.1772,6.1772,0.0,0.0,6.0216,5.9742,0.0,0.0,5.7814,5.7442,0.0,0.0,5.7273,5.6528,5.7408,5.7712,5.7306,5.7679,5.7881,5.7881,5.7881,5.7881,5.7881,5.7881,5.7881,5.7881,0.0,5.7577,5.7103,0.0,5.6799,5.6292,5.6089,5.5886,5.5683,5.548,5.5074,5.4499,5.3754,5.3957,5.4499,5.3991,5.4296,5.5108,5.6393,5.6934,5.7442,5.9268,5.9945,6.0114,6.0114,6.0114,5.9911,5.9201,5.8957,5.8721,5.7977,5.7904,5.7965,5.7965,5.8059,0.0,0.0,0.0,5.7557,5.7287,0.0,5.6447,5.6369,5.6447,5.7276,5.9421,6.0459,6.1332,6.2201,6.2278,6.2139,6.2058,6.1732,6.1617,6.17,6.1135,6.0581,6.0087,5.9452,5.8455,5.6988,5.6506,5.6586,5.7094,5.7094,5.7812,5.9099,5.9099,5.9099,5.9099,5.9099,5.9099,5.9099,5.9099,5.9099,5.9099,5.9099,5.8991,5.8664,5.7781,5.6964,5.5992,5.668,5.7214,0.0,5.7915,5.8524,5.9268,6.0013,6.0148,6.0182,0.0,0.0,0.0,0.0,0.0,0.0,0.0,0.0,5.7137,5.7814,0.0,5.6528,0.0,0.0,5.7239,0.0,5.7171,5.7881,5.7881,5.7881,5.7881,5.7881,5.7881,5.7881,5.7881,5.7881,5.7881,5.7848,5.7848,5.7848,5.7746,5.7036,5.6359,5.5649,5.4905,5.46,5.4499,5.3754,5.3957,5.46,5.4566,5.504,5.5818,5.6562,5.7273,5.8017,5.8795,5.9539,6.0114,6.0114,6.0114,5.9911,5.9201,5.8849,5.853,5.7756,5.7859,5.8053,5.8053,5.8462,5.88,5.88,5.8171,5.7549,5.7149,5.6479,0.0,0.0,5.5781,5.6369,5.7315,5.9043,6.0646,6.1862,6.2475,6.2582,6.2131,6.191,6.1949,6.2409,6.1098,6.0294,6.0264,5.9351,5.818,5.67,5.6409,5.6586,5.7094,5.7094,5.7812,5.9099,5.9099,5.9099,5.9099,5.9099,5.9099,5.9099,5.9099,5.9099,5.9099,5.9099,5.9099,5.8991,5.8773,5.8114,5.7078,5.5781,5.61,0.0,0.0,0.0,0.0,5.9911,6.0114,0.0,0.0,0.0,0.0,0.0,6.0114,6.0047,0.0,0.0,5.866,5.7949,5.8118,0.0,0.0,0.0,5.8389,0.0,5.8389,5.8626,5.8626,5.7971,5.7735,0.0,5.7439,5.7364,5.7514,0.0,5.7364,0.0,0.0,0.0,5.6774,5.6684,5.652,5.6292,5.5074,5.46,5.4499,5.3754,5.4296,5.5243,5.4769,5.5412,5.6461,5.6731,5.7306,5.8017,5.8795,5.9539,6.0114,6.0114,6.0486,6.0646,5.9717,5.9362,5.9108,5.853,5.8018,5.7615,5.7456,5.754,5.7624,5.7624,5.7184,5.6825,5.6694,5.5854,5.5197,0.0,5.5295,5.5864,5.6676,5.8668,6.0165,6.0665,6.0986,6.1047,6.0705,6.0096,5.9659,5.9612,5.886,5.8367,5.8154,5.7652,5.7053,5.6213,5.5948,5.6214,5.7094,5.7094,5.7812,5.9099,5.9099,5.9099,5.9099,5.9099,5.9099,5.9099,5.9099,5.9099,5.9099,5.9099,5.9099,5.9099,5.8803,5.8225,5.7416,5.4448,5.4856,0.0,0.0,0.0,0.0,0.0,0.0,0.0,0.0,6.0655,0.0,6.052,0.0,6.1197,0.0,6.0689,6.0114,5.9167,5.9302,0.0,5.7645,5.849,0.0,5.8626,5.8788,5.8714,5.8552,5.8018,5.7633,0.0,0.0,5.6801,5.6801,0.0,5.689,5.7266,5.7532,5.7199,5.6578,5.627,5.6292,5.6303,5.5131,5.5002,5.5277,5.4566,5.4905,5.5649,5.5141,5.5818,5.6799,5.6799,5.7306,5.7983,5.8457,5.8856,5.9227,5.9227,5.965,5.99,5.9007,5.8742,5.8528,5.7866,5.7151,5.6676,5.677,5.686,5.6916,5.7174,5.6531,5.6039,5.5953,5.4988,5.4253,0.0,5.4348,5.4793,5.5325,5.751,5.902,5.912,5.9474,5.9437,5.888,5.8451,5.8152,5.8028,5.7712,5.7549,5.7536,5.734,5.6922,5.6213,5.6254,5.6594,5.7094,5.7334,5.8022,5.9099,5.9099,5.9099,5.9099,5.9099,5.9099,5.9099,5.9099,5.9099,5.9099,5.9099,5.9099,5.9099,5.8882,5.8445,5.764,5.2941,5.3692,0.0,0.0,5.7198,0.0,0.0,0.0,5.901,0.0,5.9505,5.9641,6.1129,6.1332,6.1637,6.2347,6.1772,6.1332,6.1298,6.0588,0.0,0.0,5.9099,5.8795,5.7977,5.8504,5.8354,5.7614,5.7873,5.7532,0.0,0.0,5.6067,5.5941,5.5941,0.0,5.7119,5.7806,5.7904,5.7376,5.6195,5.5752,5.5837,5.5181,5.5682,5.6727,5.5916,5.575,5.5784,5.5784,5.6258,5.6867,5.6867,5.734,5.7881,5.7881,5.7735,5.7588,5.7514,5.7825,5.7919,5.7143,5.7086,5.689,5.5946,5.5609,5.5566,5.6031,5.6304,5.6684,5.7183,5.6217,5.5345,5.507,5.3923,5.2935,5.2935,5.2935,5.2993,5.3227,5.5397,5.7053,5.7385,5.784,5.77,5.6741,5.7121,5.7428,5.7623,5.7586,5.7825,5.8298,5.8258,5.775,5.6636,5.7239,5.7333,5.7154,5.7812,5.8471,5.9099,5.9099,5.9099,5.9099,5.9099,5.9099,5.9099,5.9099,5.9099,5.9099,5.9099,5.9099,5.9099,5.9099,5.8773,5.8085,5.396,5.4419,5.5055,0.0,5.6136,5.6915,0.0,0.0,0.0,0.0,5.9869,6.0216,6.1197,6.1772,6.2178,6.2381,6.2212,0.0,0.0,0.0,0.0,5.965,6.0155,6.0203,5.9689,5.9276,5.8819,5.827,5.6981,5.6137,5.5701,5.4902,5.4736,5.5017,5.4685,5.5357,5.6884,5.7077,5.7538,5.8105,5.7312,5.7282,5.754,5.7053,5.7044,5.7133,5.5928,5.5913,5.6528,5.6528,5.7002,5.7611,5.7465,5.7493,5.7588,5.7289,5.7214,5.7063,5.6724,5.7099,5.747,5.6792,5.6564,5.6453,5.6511,5.5915,5.5434,5.5783,5.6277,5.6553,5.6213,5.5684,5.5189,5.4573,5.3193,5.2155,5.1941,5.2306,5.2487,5.2547,5.3295,5.4197,5.5184,5.5579,5.5715,5.5256,5.5466,5.5603,5.5395,5.6134,5.6636,5.6714,5.7166,5.7243,5.6959,5.7139,5.7468,5.7872,5.8052,5.8471,5.9099,5.9099,5.9099,5.9099,5.9099,5.9099,5.9099,5.9099,5.9099,5.9099,5.9099,5.9099,5.9099,5.8882,5.8664,5.8445,5.3611,5.4046,0.0,5.5411,0.0,0.0,5.8019,5.8323,0.0,5.9868,6.0203,0.0,6.1357,6.1828,6.2144,6.2144,6.203,0.0,6.1379,0.0,0.0,6.0391,6.0571,6.0445,5.996,5.9102,5.8297,5.7609,5.6136,5.5172,5.4601,5.3922,5.3664,5.3836,5.3577,5.4172,5.5506,5.5879,5.6594,5.7401,5.6471,5.6435,0.0,5.6136,5.6206,5.6479,5.5655,5.6021,5.6761,5.6761,5.7029,5.7364,5.7214,5.7139,5.6954,5.6724,5.6492,5.6257,5.602,5.5961,5.5845,5.5513,5.5346,5.5304,5.5343,5.5101,5.4884,5.5114,5.5475,5.553,5.5135,5.4491,5.3667,5.2698,5.1997,5.1602,5.1416,5.1423,5.1516,5.1819,5.1668,5.1941,5.2947,5.3806,5.4145,5.3772,5.443,5.4684,5.4389,5.582,5.6436,5.6196,5.7334,5.7842,5.7543,5.8112,5.859,5.8979,5.8979,5.9189,5.9518,5.9249,5.9099,5.9099,5.9099,5.9099,5.9099,5.9099,5.9099,5.9099,5.9099,5.9099,5.9099,5.8882,5.8882,5.8773,5.335,5.3615,0.0,0.0,0.0,0.0,5.7528,5.8736,5.9498,6.0008,0.0,6.0826,6.158,6.1762,6.1829,6.1814,6.165,6.1534,6.1434,6.1434,6.1202,6.0903,6.0423,5.9928,5.9512,5.8274,5.7223,5.624,5.5248,5.4348,5.3521,5.2993,5.2757,5.2577,5.2577,5.3008,5.3745,5.4515,5.5317,5.5998,5.4758,5.4621,5.5096,5.4403,5.4635,5.5389,5.5389,5.5912,5.6603,5.6603,5.6603,5.6603,5.6525,5.6336,5.6146,5.6067,5.5588,5.5213,5.5228,5.4645,5.3994,5.4057,5.4064,5.402,5.3807,5.383,5.4086,5.4586,5.46,5.4431,5.4251,5.3114,5.1798,5.0571,5.09,5.1319,5.1229,5.081,5.0631,5.105,5.0571,0.0,5.09,5.2181,5.2822,5.2476,5.3615,5.4269,5.4072,5.5987,5.6795,5.6196,5.8082,5.883,5.8261,5.9458,6.0116,6.0206,6.0116,6.0086,6.0057,5.9398,5.9099,5.9099,5.9099,5.9099,5.9099,5.9099,5.9099,5.9099,5.9099,5.9099,5.9099,5.9099,5.9099,5.9099,5.6269,0.0,0.0,0.0,0.0,5.7161,5.7837,5.7956,5.819,5.8997,5.968,6.0423,6.1579,6.1947,6.2179,6.2604,6.255,6.2233,6.1435,6.1402,6.1054,6.0173,5.9838,5.9425,5.8748,5.7204,5.6031,5.5309,5.3827,5.2939,5.2547,5.2033,5.1941,5.2063,5.188,5.2639,5.4013,5.4104,5.4931,5.6102,5.4849,5.4853,5.5565,5.5038,5.494,5.5121,5.527,5.5645,5.61,5.61,5.61,5.61,5.5701,5.562,5.5426,5.4653,5.4317,5.4306,5.421,5.4099,5.4075,5.4206,5.4267,5.4324,5.4395,5.4413,5.4586,5.498,5.5448,5.5508,5.4401,5.3114,5.1947,5.1169,5.1588,5.1828,5.1289,5.1588,5.1498,5.0511,5.0301,5.0062,4.9643,5.0783,5.1566,5.1503,5.2702,5.3451,5.3354,5.5748,5.6795,5.6196,5.8082,5.9039,5.8949,5.9697,6.0386,6.0924,6.0356,6.0086,6.0057,5.9398,5.9099,5.9099,5.9099,5.9099,5.9099,5.9099,5.9099,5.9099,5.9099,5.9099,5.9099,5.9099,5.9099,5.9099,5.6974,0.0,0.0,0.0,5.716,5.7416,5.745,5.7837,5.8367,5.912,5.9976,6.0606,6.1231,6.1386,6.1548,6.1783,6.1542,6.123,6.0816,6.0431,5.9987,5.9361,5.9191,5.876,5.8026,5.6743,5.5657,5.4699,5.2948,5.2033,5.1911,5.0879,5.0847,5.1602,5.184,5.2562,5.3622,5.3983,5.4352,5.4661,5.4389,5.4364,5.4622,5.4382,5.4418,5.4606,5.4792,5.4937,5.5312,5.557,5.5655,5.557,5.543,5.5257,5.5083,5.4643,5.4317,5.414,5.4114,5.3928,5.3833,5.3884,5.4056,5.4292,5.4329,5.466,5.502,5.5119,5.5448,5.5149,5.3473,5.2636,5.1977,5.1319,5.1768,5.2217,5.2247,5.2217,5.1828,5.087,5.0451,5.0122,4.9793,5.0331,5.072,5.072,5.2247,5.3174,5.3174,5.5359,5.6466,5.6196,5.8082,5.9099,5.9099,6.0116,6.0775,6.1104,6.0416,6.0086,6.0057,5.9398,5.9099,5.9099,5.9099,5.9099,5.9099,5.9099,5.9099,5.9099,5.9099,5.9099,5.9099,5.9099,5.9308,5.9608,0.0,5.7513,0.0,0.0,5.7303,5.7631,5.7516,5.8227,5.89,5.9254,6.0075,6.0645,6.0709,6.0741,6.09,6.0963,6.0611,6.0355,6.0132,5.9598,5.9126,5.8777,5.8656,5.8217,5.7397,5.646,5.5402,5.4253,5.254,5.169,5.169,5.0333,5.0242,5.1229,5.1768,5.2426,5.3204,5.3623,5.3713,5.3653,5.4042,5.4081,5.3946,5.3946,5.4207,5.4496,5.4496,5.4561,5.4816,5.5162,5.5256,5.5191,5.51,5.4946,5.4885,5.4699,5.4418,5.4196,5.4253,5.3996,5.3766,5.3886,5.4239,5.4431,5.4431,5.482,5.5179,5.5179,5.5089,5.4491,5.2905,5.2516,5.2247,5.1708,5.2067,5.2546,5.2905,5.2516,5.1947,5.1289,5.0511,5.0092,5.0242,5.0122,5.0092,5.0242,5.1947,5.3025,5.3174,5.494,5.6017,5.6166,5.7962,5.8949,5.9099,6.0296,6.0954,6.1104,6.0416,6.0086,6.0057,5.9398,5.9099,5.9099,5.9099,5.9099,5.9099,5.9099,5.9099,5.9099,5.9099,5.9099,5.9129,5.9249,5.9638,6.0116,5.88,0.0,5.889,5.883,5.8594,5.8625,5.9168,5.8987,5.8826,5.8731,5.9265,5.971,6.0166,6.0428,6.0709,6.1099,6.1161,6.071,5.9787,5.9664,5.9386,5.8701,5.8508,5.787,5.6929,5.6092,5.5159,5.4201,5.2852,5.2097,5.2097,5.1379,5.1109,5.1229,5.1289,5.2007,5.3144,5.2606,5.3384,5.497,5.4431,5.4521,5.4999,5.4999,5.51,5.51,5.51,5.51,5.52,5.52,5.4947,5.4668,5.4418,5.4354,5.426,5.388,5.3688,5.3742,5.4149,5.4231,5.4251,5.485,5.5059,5.5089,5.5089,5.5149,5.5179,5.5179,5.473,5.4251,5.4072,5.3503,5.3084,5.2995,5.3054,5.2905,5.2366,5.2247,5.1947,5.1289,5.0122,4.9583,5.0182,4.9703,4.9613,5.0182,5.1498,5.2546,5.3144,5.4521,5.5568,5.6137,5.7513,5.8501,5.9099,5.9817,6.0505,6.1104,6.0416,6.0086,6.0057,5.9398,5.9099,5.9099,5.9099,5.9099,5.9099,5.9099,5.9099,5.9099,5.9099,5.9099,5.9189,5.9787,6.0027,6.0266,5.8979,5.9099,5.8979,5.859,5.8727,5.8757,5.8637,5.8834,5.9047,5.8987,5.9448,5.988,6.0053,6.0083,6.031,6.0451,6.0272,6.0014,5.9666,5.9166,5.8832,5.8559,5.8267,5.783,5.7251,5.6877,5.6143,5.479,5.3862,5.3204,5.2755,5.1708,5.1648,5.2426,5.2815,5.3294,5.3803,5.3922,5.4221,5.461,5.476,5.497,5.5179,5.5179,5.5179,5.5179,5.5179,5.5179,5.5179,5.5179,5.512,5.4964,5.4896,5.4896,5.4797,5.46,5.46,5.456,5.473,5.479,5.485,5.5119,5.5179,5.5179,5.5179,5.5179,5.5179,5.5179,5.497,5.467,5.4281,5.3982,5.3803,5.3803,5.3803,5.3713,5.3443,5.3414,5.2995,5.1947,5.099,5.0541,5.081,5.0242,5.0272,5.1319,5.1917,5.2486,5.3144,5.4072,5.5269,5.6675,5.8022,5.883,5.9099,6.0176,6.0446,5.9907,5.9638,5.9488,5.9488,5.9219,5.9099,5.9099,5.9099,5.9099,5.9099,5.9099,5.9099,5.9099,5.9099,5.9338,5.9727,5.9997,6.0595,6.1373,5.9009,5.9099,5.8949,5.8501,5.88,5.8949,5.8471,5.88,5.9099,5.9099,5.9452,5.9773,5.9773,5.9773,5.9773,5.9773,5.9529,5.9422,5.9422,5.8971,5.873,5.873,5.8384,5.8022,5.7633,5.7633,5.7092,5.5748,5.491,5.4251,5.3743,5.2426,5.2396,5.3503,5.3982,5.4431,5.482,5.5269,5.5329,5.5089,5.5359,5.5478,5.5478,5.5478,5.5478,5.5508,5.5688,5.5628,5.5478,5.5478,5.5359,5.5179,5.5179,5.5179,5.5179,5.5179,5.5179,5.5179,5.5179,5.5179,5.5179,5.5179,5.5179,5.5179,5.5179,5.5179,5.5179,5.5179,5.5179,5.5059,5.4581,5.4491,5.4491,5.4491,5.4341,5.4132,5.3922,5.3743,5.3324,5.2576,5.1558,5.1229,5.2037,5.1139,5.1079,5.2396,5.2486,5.2785,5.3443,5.4132,5.5299,5.7034,5.8411,5.9189,5.9398,6.0326,6.0326,5.9398,5.9189,5.9099,5.9099,5.9099,5.9099,5.9099,5.9099,5.9099,5.9099,5.9099,5.9099,5.9099,5.9099,5.9518,6.0116,6.0326,6.1104,6.2121,5.9099,5.9099,5.9099,5.9099,5.9099,5.9099,5.9099,5.9099,5.9099,5.9099,5.9099,5.9099,5.9099,5.9099,5.9099,5.9099,5.9099,5.9099,5.9099,5.9099,5.9099,5.9099,5.9069,5.877,5.8141,5.8112,5.7782,5.7064,5.5807,5.5179,5.5149,5.3773,5.3533,5.4192,5.4221,5.494,5.6137,5.6166,5.6496,5.7004,5.6406,5.6166,5.6166,5.6166,5.6166,5.6256,5.6855,5.6675,5.6166,5.6166,5.5718,5.5179,5.5179,5.5179,5.5179,5.5179,5.5179,5.5179,5.5179,5.5179,5.5179,5.5179,5.5179,5.5179,5.5179,5.5179,5.5179,5.5179,5.5179,5.5179,5.5179,5.5179,5.5179,5.5179,5.464,5.3982,5.3294,5.2636,5.2456,5.3084,5.1439,5.1289,5.3922,5.2366,5.1738,5.3084,5.3174,5.3473,5.4162,5.482,5.5777,5.7064,5.8411,5.9428,6.0057,6.0086,6.0086,6.0057,5.9428,5.9099,5.9099,5.9099,5.9099,5.9099,5.9099,5.9099,5.9099,5.9099,5.9099,5.9099,5.9099,5.9518,6.0176,6.0835,6.1523,6.2181,5.9099,5.9099,5.9099,5.9099,5.9099,5.9099,5.9099,5.9099,5.9099,5.9099,5.9099,5.9099,5.9099,5.9099,5.9099,5.9099,5.9099,5.9099,5.9099,5.9099,5.9099,5.9099,5.9099,5.9009,5.88,5.88,5.8471,5.7782,5.7393,5.6944,5.6466,5.6047,5.5957,5.6166,5.6166,5.6406,5.6795,5.6795,5.6915,5.7064,5.6885,5.6795,5.6795,5.6795,5.6795,5.6825,5.7034,5.6974,5.6795,5.6795,5.6645,5.6496,5.6496,5.5897,5.5179,5.5179,5.5179,5.5179,5.5179,5.5179,5.5179,5.5179,5.5179,5.5179,5.5179,5.5179,5.5179,5.5179,5.5179,5.5179,5.5179,5.5179,5.5179,5.5179,5.5029,5.4491,5.3354,5.3414,5.3473,5.3204,5.2247,5.2097,5.3384,5.2127,5.1768,5.3084,5.3623,5.4162,5.485,5.5089,5.6196,5.8381,5.9308,6.0086,6.0775,6.0775,6.0565,6.0086,5.9428,5.8991,5.8773,5.8555,5.8555,5.8555,5.8773,5.8803,5.8882,5.8991,5.9099,5.9159,5.9608,6.0176,6.0864,6.1523,6.2211,6.278,5.9099,5.9099,5.9099,5.9099,5.9099,5.9099,5.9099,5.9099,5.9099,5.9099,5.9099,5.9099,5.9099,5.9099,5.9099,5.9099,5.9099,5.9099,5.9099,5.9099,5.9099,5.9099,5.9099,5.9099,5.9099,5.9099,5.889,5.8501,5.8231,5.7782,5.7094,5.7094,5.7244,5.7483,5.7483,5.7633,5.7842,5.7842,5.7842,5.7842,5.7573,5.7483,5.7483,5.7483,5.7483,5.7513,5.7752,5.7693,5.7483,5.7483,5.7304,5.7094,5.7094,5.6555,5.5897,5.5897,5.5897,5.5897,5.5897,5.5897,5.5897,5.5897,5.5897,5.5837,5.5628,5.5359,5.5179,5.5179,5.5179,5.5179,5.5179,5.5179,5.5179,5.5179,5.5179,5.473,5.3384,5.3773,5.3952,5.3264,5.2815,5.2935,5.3832,5.2965,5.2785,5.3862,5.4341,5.485,5.5538,5.5777,5.6645,5.8291,5.9249,6.0057,6.0715,6.0633,6.0394,5.9976,5.9101,5.8445,5.7974,5.7751,5.764,5.7751,5.7863,5.8114,5.8225,5.8335,5.8415,5.8504,5.9125,5.9806,6.0487,6.1108,6.1759,6.2321,5.9099,5.9099,5.9099,5.9099,5.9099,5.9099,5.9099,5.9099,5.9099,5.9099,5.9099,5.9099,5.9099,5.9099,5.9099,5.9099,5.9099,5.9099,5.9099,5.9099,5.9099,5.9099,5.9099,5.9099,5.9099,5.9099,5.9099,5.9099,5.8501,5.7872,5.7244,5.7244,5.7573,5.8201,5.8201,5.853,5.9099,5.9099,5.9099,5.9069,5.8441,5.8201,5.8201,5.8201,5.8201,5.8261,5.889,5.871,5.8201,5.8201,5.7752,5.7244,5.7244,5.7244,5.7214,5.7124,5.7094,5.7094,5.7094,5.7094,5.7094,5.7094,5.7094,5.6944,5.6376,5.5777,5.5329,5.5329,5.5329,5.5329,5.5329,5.5299,5.5269,5.5269,5.5209,5.473,5.3443,5.3832,5.4012,5.3324,5.3264,5.3743,5.4999,5.4521,5.4431,5.5149,5.5239,5.5538,5.6196,5.6825,5.7184,5.7244,5.8501,5.9488,6.0146,5.9785,5.9615,5.9474,5.8185,5.7303,5.6708,5.6708,5.6594,5.6594,5.6708,5.6822,5.7191,5.7191,5.722,5.7306,5.7944,5.8581,5.9219,5.9856,6.0464,6.0986,5.9099,5.9099,5.9099,5.9099,5.9099,5.9099,5.9099,5.9099,5.9099,5.9099,5.9099,5.9099,5.9099,5.9099,5.9099,5.9099,5.9099,5.9099,5.9099,5.9099,5.9099,5.9099,5.9099,5.9099,5.9099,5.9099,5.9099,5.9099,5.8949,5.88,5.862,5.862,5.871,5.886,5.886,5.8949,5.9099,5.9099,5.9099,5.9099,5.8949,5.886,5.886,5.886,5.886,5.889,5.9039,5.9009,5.886,5.886,5.877,5.862,5.862,5.862,5.8441,5.7393,5.7094,5.7094,5.7094,5.7094,5.7094,5.7094,5.7094,5.7064,5.6915,5.6765,5.6645,5.6645,5.6645,5.6645,5.6645,5.6256,5.5927,5.5927,5.5508,5.491,5.4072,5.4551,5.47,5.4042,5.3952,5.4102,5.4401,5.3832,5.3922,5.5089,5.5658,5.6196,5.6825,5.7513,5.8112,5.862,5.9428,6.0066,6.0499,5.9658,5.8679,5.7507,5.6423,5.5876,5.5761,5.5295,5.5088,5.5088,5.5528,5.5761,5.5876,5.6366,5.691,5.7397,5.8,5.8631,5.9262,5.9922,6.0237,6.0381,5.9099,5.9099,5.9099,5.9099,5.9099,5.9099,5.9099,5.9099,5.9099,5.9099,5.9099,5.9099,5.9099,5.9099,5.9099,5.9099,5.9099,5.9099,5.9099,5.9099,5.9099,5.9099,5.9099,5.9099,5.9099,5.9099,5.9099,5.9099,5.9099,5.9099,5.9099,5.9099,5.9099,5.9099,5.9099,5.9099,5.9099,5.9099,5.9099,5.9099,5.9099,5.9099,5.9099,5.9099,5.9099,5.9099,5.9099,5.9099,5.9099,5.9099,5.9099,5.9099,5.9099,5.9099,5.8949,5.8231,5.8022,5.8022,5.8022,5.8022,5.8022,5.8022,5.7782,5.7573,5.7573,5.7334,5.7094,5.7094,5.7094,5.7094,5.7094,5.6825,5.6496,5.6226,5.5867,5.5299,5.4341,5.479,5.494,5.4281,5.473,5.5089,5.5089,5.5029,5.5269,5.5987,5.6406,5.6735,5.7064,5.7752,5.8291,5.865,5.9009,5.9409,5.9733,5.8708,5.7425,5.602,5.5178,5.4588,5.4112,5.3631,5.3416,5.3416,5.3752,5.4129,5.4496,5.4884,5.5363,5.5972,5.6553,5.6996,5.7356,5.7993,5.8214,5.8214,5.9099,5.9099,5.9099,5.9099,5.9099,5.9099,5.9099,5.9099,5.9099,5.9099,5.9099,5.9099,5.9099,5.9099,5.9099,5.9099,5.9099,5.9099,5.9099,5.9099,5.9099,5.9099,5.9099,5.9099,5.9099,5.9099,5.9099,5.9099,5.9099,5.9099,5.9099,5.9099,5.9099,5.9099,5.9099,5.9099,5.9099,5.9099,5.9099,5.9099,5.9099,5.9099,5.9099,5.9099,5.9099,5.9099,5.9099,5.9099,5.9099,5.9099,5.9099,5.9099,5.9099,5.9099,5.9099,5.9099,5.9099,5.9099,5.9099,5.9099,5.9099,5.9099,5.868,5.8261,5.8261,5.7812,5.7393,5.7393,5.7393,5.7393,5.7393,5.7304,5.7034,5.6406,5.6316,5.5867,5.4551,5.491,5.5119,5.4581,5.5508,5.6196,5.6316,5.6795,5.7124,5.7244,5.7244,5.7304,5.7393,5.7962,5.8261,5.8261,5.8261,5.8316,5.8555,5.7332,5.6049,5.4852,5.4139,5.3322,5.2465,5.2173,5.1951,5.1951,5.2181,5.2622,5.3296,5.3296,5.3641,5.4224,5.4728,5.4967,5.5099,5.5734,5.5947,5.5947,5.9099,5.9099,5.9099,5.9099,5.9099,5.9099,5.9099,5.9099,5.9099,5.9099,5.9099,5.9099,5.9099,5.9099,5.9099,5.9099,5.9099,5.9099,5.9099,5.9099,5.9099,5.9099,5.9099,5.9099,5.9099,5.9099,5.9099,5.9099,5.9099,5.9099,5.9099,5.9099,5.9099,5.9099,5.9099,5.9099,5.9099,5.9099,5.9099,5.9099,5.9099,5.9099,5.9099,5.9099,5.9099,5.9099,5.9099,5.9099,5.9099,5.9099,5.9099,5.9099,5.9099,5.9099,5.9099,5.9099,5.9099,5.9099,5.9099,5.9099,5.9099,5.9099,5.9039,5.8949,5.8949,5.886,5.88,5.88,5.88,5.88,5.88,5.8351,5.7752,5.7064,5.6944,5.6496,5.5209,5.5598,5.5987,5.5867,5.6047,5.6376,5.6885,5.7034,5.7334,5.7932,5.7962,5.8201,5.877,5.889,5.8949,5.8949,5.8949,5.8684,5.7892,5.6423,5.5351,5.4616,5.3078,5.2218,5.1747,5.1586,5.1563,5.1589,5.2337,5.2725,5.2932,5.3191,5.366,5.4158,5.4263,5.4603,5.5022,5.5101,5.5127,5.5127,5.9099,5.9099,5.9099,5.9099,5.9099,5.9099,5.9099,5.9099,5.9099,5.9099,5.9099,5.9099,5.9099,5.9099,5.9099,5.9099,5.9099,5.9099,5.9099,5.9099,5.9099,5.9099,5.9099,5.9099,5.9099,5.9099,5.9099,5.9099,5.9099,5.9099,5.9099,5.9099,5.9099,5.9099,5.9099,5.9099,5.9099,5.9099,5.9099,5.9099,5.9099,5.9099,5.9099,5.9099,5.9099,5.9099,5.9099,5.9099,5.9099,5.9099,5.9099,5.9099,5.9099,5.9099,5.9099,5.9099,5.9099,5.9099,5.9099,5.9099,5.9099,5.9099,5.9099,5.9099,5.9099,5.9099,5.9099,5.9099,5.9099,5.9099,5.9099,5.886,5.8441,5.7752,5.7633,5.7304,5.6346,5.6466,5.6675,5.6675,5.7004,5.7334,5.7633,5.7962,5.8321,5.862,5.865,5.877,5.9099,5.9099,5.9099,5.9099,5.8991,5.8555,5.8003,5.6623,5.5584,5.4734,5.3251,5.2318,5.1713,5.1535,5.1398,5.1423,5.1809,5.2221,5.2501,5.2634,5.2966,5.3452,5.3478,5.3631,5.3835,5.3835,5.3835,5.3835,5.9099,5.9099,5.9099,5.9099,5.9099,5.9099,5.9099,5.9099,5.9159,5.9308,5.9338,5.9398,5.9548,5.9578,5.9578,5.9578,5.9578,5.9578,5.9578,5.9428,5.9249,5.9129,5.9099,5.9099,5.9099,5.9099,5.9099,5.9099,5.9099,5.9099,5.9099,5.9099,5.9099,5.9099,5.9099,5.9099,5.9099,5.9099,5.9099,5.9099,5.9099,5.9099,5.9099,5.9099,5.9099,5.9099,5.9099,5.9099,5.9099,5.9099,5.9099,5.9099,5.9099,5.9099,5.9099,5.9099,5.9099,5.9099,5.9099,5.9099,5.9099,5.9099,5.9099,5.9099,5.9099,5.9099,5.9099,5.9099,5.9099,5.9099,5.9099,5.9099,5.889,5.8231,5.8261,5.8052,5.7214,5.7244,5.7334,5.7334,5.7812,5.8171,5.8351,5.88,5.9099,5.9099,5.9099,5.9099,5.9099,5.9099,5.9099,5.9099,5.8803,5.8555,5.8335,5.7078,5.6105,5.5283,5.382,5.2765,5.2052,5.1727,5.1607,5.1473,5.1599,5.19,5.2302,5.2302,5.2553,5.2929,5.2929,5.2929,5.2929,5.2929,5.2929,5.2929,5.9099,5.9099,5.9099,5.9099,5.9099,5.9099,5.9099,5.9099,5.9308,5.9937,6.0027,6.0266,6.0894,6.0954,6.0954,6.0954,6.0954,6.0954,6.0954,6.0356,5.9727,5.9129,5.9099,5.9099,5.9099,5.9099,5.9099,5.9099,5.9099,5.9099,5.9099,5.9099,5.9099,5.9099,5.9099,5.9099,5.9099,5.9099,5.9099,5.9099,5.9099,5.9099,5.9099,5.9099,5.9099,5.9099,5.9099,5.9099,5.9099,5.9099,5.9099,5.9099,5.9099,5.9099,5.9099,5.9099,5.9099,5.9099,5.9099,5.9099,5.9099,5.9099,5.9099,5.9099,5.9099,5.9099,5.9099,5.9099,5.9099,5.9099,5.9099,5.9099,5.889,5.8231,5.865,5.859,5.7274,5.7633,5.8052,5.8052,5.8082,5.8351,5.8979,5.9069,5.9099,5.9099,5.9099,5.9099,5.9099,5.9099,5.9099,5.9099,5.8803,5.8694,5.8694,5.7445,5.668,5.6136,5.4624,5.3482,5.2777,5.2552,5.2296,5.2076,5.2578,5.2829,5.2879,5.2879,5.2879,5.2929,5.2929,5.2929,5.2929,5.2929,5.2929,5.2929,5.9099,5.9099,5.9099,5.9099,5.9428,5.9727,5.9727,6.0086,6.0446,6.0685,6.0715,6.0835,6.1074,6.1104,6.1104,6.1104,6.1104,6.1104,6.1104,6.0864,6.0236,5.9159,5.9099,5.9099,5.9099,5.9099,5.9099,5.9099,5.9099,5.9099,5.9099,5.9099,5.9099,5.9099,5.9099,5.9099,5.9129,5.9548,5.9727,5.9757,6.0176,6.0356,6.0356,6.0356,6.0356,6.0356,6.0356,6.0356,6.0356,6.0356,6.0057,5.9727,5.9727,5.9428,5.9099,5.9099,5.9099,5.9099,5.9099,5.9099,5.9099,5.9099,5.9099,5.9099,5.9099,5.9099,5.9099,5.9099,5.9099,5.9099,5.9099,5.9099,5.9009,5.877,5.8949,5.8919,5.8411,5.856,5.874,5.874,5.874,5.883,5.9069,5.9099,5.9099,5.9099,5.9099,5.9099,5.9099,5.9099,5.9099,5.9099,5.9379,5.9618,5.9618,5.8591,5.7974,5.7733,5.6074,5.4895,5.4001,5.3407,5.3012,5.2628,5.2829,5.2929,5.2929,5.2929,5.2929,5.2929,5.2929,5.2929,5.2929,5.2929,5.2929,5.2929,5.9945,5.9837,5.9837,5.9727,6.0116,6.0416,6.0416,6.0805,6.1194,6.1403,6.1433,6.1493,6.1702,6.1732,6.1732,6.1732,6.1732,6.1732,6.1732,6.1523,6.0924,5.9787,5.9727,5.9727,5.9727,5.9727,5.9727,5.9727,5.9727,5.9727,5.9727,5.9727,5.9727,5.9727,5.9727,5.9727,5.9757,6.0206,6.0416,6.0446,6.0924,6.1104,6.1104,6.1104,6.1104,6.1104,6.1104,6.1104,6.1104,6.1104,6.0805,6.0416,6.0416,5.9937,5.9368,5.9159,5.9099,5.9099,5.9099,5.9099,5.9099,5.9099,5.9099,5.9099,5.9099,5.9099,5.9099,5.9099,5.9099,5.9099,5.9099,5.9099,5.9099,5.9099,5.9099,5.9099,5.9099,5.9099,5.9099,5.9099,5.9099,5.9099,5.9099,5.9099,5.9099,5.9099,5.9099,5.9099,5.9099,5.9099,5.9189,5.9398,5.9847,6.0296,6.0715,5.9836,5.9217,5.9129,5.7601,5.6305,5.5232,5.4221,5.3614,5.3067,5.2929,5.2929,5.2929,5.2929,5.2929,5.2929,5.2929,5.2929,5.2929,5.2929,5.2929,5.2929,6.1599,6.1489,6.1408,6.1104,6.1104,6.1134,6.1134,6.1134,6.1373,6.2032,6.2121,6.2361,6.3019,6.3079,6.3079,6.3079,6.3079,6.3079,6.3079,6.248,6.1822,6.1164,6.1134,6.1104,6.1104,6.1104,6.1104,6.1104,6.1104,6.1104,6.1104,6.1104,6.1104,6.1104,6.1104,6.1104,6.1104,6.1134,6.1134,6.1134,6.1134,6.1134,6.1134,6.1134,6.1134,6.1134,6.1134,6.1134,6.1134,6.1134,6.1134,6.1134,6.1104,6.0655,5.9967,5.9308,5.9129,5.9129,5.9129,5.9129,5.9129,5.9099,5.9099,5.9099,5.9099,5.9099,5.9099,5.9099,5.9099,5.9099,5.9099,5.9099,5.9099,5.9099,5.9099,5.9099,5.9099,5.9099,5.9099,5.9099,5.9099,5.9099,5.9099,5.9099,5.9099,5.9099,5.9099,5.9099,5.9099,5.9099,5.9398,6.0057,6.0086,6.0745,6.2091,6.1065,6.0465,6.0148,5.8803,5.7633,5.6574,5.5153,5.4106,5.3478,5.3067,5.2929,5.2929,5.2929,5.2929,5.2929,5.2929,5.2929,5.2929,5.2929,5.2929,5.2929,6.2901,6.258,6.2395,6.2068,6.2354,6.2546,6.21,6.2521,6.2799,6.275,6.278,6.2869,6.3049,6.3079,6.3079,6.3079,6.3079,6.3079,6.3079,6.2899,6.269,6.251,6.1613,6.1104,6.1104,6.1104,6.1104,6.1104,6.1104,6.1104,6.1104,6.1104,6.1104,6.1104,6.1104,6.1104,6.1134,6.1613,6.1792,6.1852,6.2301,6.248,6.248,6.248,6.248,6.248,6.248,6.248,6.248,6.248,6.2181,6.1732,6.1253,6.0984,6.0775,6.0565,6.0505,6.0505,6.0505,6.0505,6.0296,5.9338,5.9099,5.9099,5.9099,5.9099,5.9099,5.9099,5.9099,5.9099,5.9099,5.9099,5.9099,5.9099,5.9099,5.9099,5.9099,5.9099,5.9099,5.9099,5.9099,5.9099,5.9099,5.9099,5.9099,5.9099,5.9099,5.9099,5.9099,5.9548,5.9877,6.0086,6.1014,6.1702,6.2091,6.1541,6.1259,6.1202,5.9822,5.855,5.7221,5.5947,5.4913,5.4106,5.3589,5.3341,5.3341,5.3067,5.2929,5.2929,5.2929,5.2929,5.2929,5.2929,5.2929,5.298,6.4737,6.4452,6.424,6.378,6.3933,6.3991,6.3548,6.3689,6.3736,6.3309,6.3309,6.3194,6.3079,6.3079,6.3079,6.3079,6.3079,6.3079,6.3079,6.3079,6.3079,6.3079,6.2301,6.1882,6.1882,6.1882,6.1882,6.1882,6.1882,6.1882,6.1882,6.1882,6.1882,6.1882,6.1882,6.1882,6.1912,6.2301,6.248,6.251,6.2929,6.3079,6.3079,6.3079,6.3079,6.3079,6.3079,6.3079,6.3079,6.3079,6.281,6.2361,6.1702,6.1493,6.1433,6.1194,6.1104,6.1104,6.1104,6.1104,6.0924,6.0086,5.9907,5.9907,5.9907,5.9907,5.9907,5.9907,5.9907,5.9907,5.9907,5.9907,5.9817,5.9548,5.9488,5.9398,5.9129,5.9099,5.9099,5.9099,5.9099,5.9099,5.9099,5.9099,5.9099,5.9099,5.9338,5.9488,5.9488,6.0116,6.0625,6.0864,6.1672,6.2211,6.248,6.2221,6.2083,6.1969,6.0745,5.9617,5.8494,5.6963,5.5815,5.502,5.4132,5.3614,5.3478,5.3067,5.2929,5.2929,5.2929,5.3055,5.3231,5.3231,5.3381,5.3607,6.691,6.6701,6.6491,6.596,6.5638,6.5313,6.5016,6.4685,6.427,6.3736,6.3508,6.3424,6.3194,6.3079,6.3079,6.3079,6.3079,6.3079,6.3079,6.3079,6.3079,6.3079,6.3079,6.3079,6.3079,6.3079,6.3079,6.3079,6.3079,6.3079,6.3079,6.3079,6.3079,6.3079,6.3079,6.3079,6.3079,6.3079,6.3079,6.3079,6.3079,6.3079,6.3079,6.3139,6.3169,6.3169,6.3169,6.3169,6.3139,6.3109,6.3079,6.2959,6.2361,6.2181,6.2061,6.1463,6.1283,6.1283,6.1283,6.1283,6.1283,6.1283,6.1283,6.1253,6.1134,6.1104,6.1104,6.1104,6.1104,6.1104,6.1104,6.1104,6.0894,6.0266,6.0176,5.9967,5.9368,5.9279,5.9249,5.9189,5.9189,5.9159,5.9099,5.9159,5.9189,5.9189,5.9787,6.0176,6.0176,6.0835,6.1493,6.2061,6.2151,6.248,6.3079,6.3079,6.2963,6.2615,6.1613,6.0865,6.0137,5.8214,5.6963,5.6209,5.4779,5.3997,5.3614,5.3067,5.2929,5.2929,5.298,5.3281,5.3708,5.3758,5.411,5.4587,6.883,6.8502,6.8204,6.7599,6.7497,6.7189,6.628,6.5853,6.5452,6.4574,6.4158,6.3736,6.3424,6.3194,6.3079,6.3079,6.3079,6.3079,6.3079,6.3079,6.3079,6.3079,6.3079,6.3079,6.3079,6.3079,6.3079,6.3079,6.3079,6.3079,6.3079,6.3079,6.3079,6.3079,6.3079,6.3079,6.3079,6.3079,6.3079,6.3079,6.3079,6.3079,6.3139,6.3617,6.3797,6.3797,6.3797,6.3797,6.3707,6.3228,6.3079,6.3049,6.2899,6.2869,6.2839,6.269,6.266,6.266,6.266,6.266,6.266,6.266,6.266,6.2391,6.1343,6.1104,6.1104,6.1104,6.1104,6.1104,6.1104,6.1104,6.1074,6.0924,6.0894,6.0835,6.0715,6.0685,6.0475,5.9937,5.9877,5.9668,5.9159,5.9578,5.9877,5.9877,6.0505,6.0894,6.0894,6.1523,6.1942,6.2091,6.26,6.2929,6.3079,6.3079,6.2963,6.2615,6.2116,6.1494,6.0837,5.9617,5.862,5.7606,5.6183,5.5153,5.4241,5.3589,5.3204,5.298,5.3381,5.3607,5.3758,5.421,5.4461,5.4637,6.986,6.967,6.9349,6.8961,6.8732,6.8436,6.7599,6.7118,6.6491,6.553,6.4906,6.4382,6.3736,6.3394,6.3194,6.3079,6.3079,6.3079,6.3079,6.3079,6.3079,6.3079,6.3079,6.3079,6.3079,6.3079,6.3079,6.3079,6.3079,6.3079,6.3079,6.3079,6.3079,6.3079,6.3079,6.3079,6.3109,6.3378,6.3528,6.3558,6.3887,6.4006,6.4036,6.4366,6.4485,6.4485,6.4485,6.4485,6.4395,6.3737,6.3528,6.3468,6.3169,6.3079,6.3079,6.3079,6.3079,6.3079,6.3079,6.3079,6.3079,6.3079,6.3079,6.2899,6.2211,6.2061,6.2061,6.2061,6.2061,6.2061,6.2061,6.2061,6.1942,6.1642,6.1583,6.1463,6.1164,6.1104,6.0984,6.0625,6.0565,6.0446,6.0086,6.0386,6.0565,6.0565,6.1194,6.1583,6.1583,6.2211,6.257,6.257,6.2899,6.3079,6.3079,6.3079,6.2963,6.2847,6.2498,6.2116,6.1732,6.0624,5.9617,5.8746,5.7221,5.592,5.4913,5.4132,5.3478,5.3255,5.3646,5.3884,5.4185,5.4737,5.5114,5.539,7.0456,7.0363,7.027,7.0082,6.9765,6.9412,6.883,6.8336,6.7631,6.6628,6.5915,6.5156,6.427,6.3827,6.3635,6.3408,6.3408,6.3408,6.3408,6.3408,6.3408,6.3408,6.3408,6.3408,6.3408,6.3408,6.3318,6.3079,6.3079,6.3079,6.3079,6.3079,6.3079,6.3079,6.3199,6.3228,6.3258,6.3917,6.4186,6.4216,6.4814,6.5024,6.5054,6.5144,6.5203,6.5203,6.5203,6.5114,6.4934,6.4366,6.4186,6.4096,6.3558,6.3408,6.3408,6.3408,6.3408,6.3378,6.3258,6.3228,6.3199,6.3109,6.3079,6.3079,6.3079,6.3079,6.3079,6.3079,6.3079,6.3079,6.3079,6.3079,6.2899,6.2361,6.2271,6.2061,6.1523,6.1433,6.1403,6.1283,6.1194,6.1104,6.1104,6.1224,6.1283,6.1283,6.1882,6.2271,6.2271,6.278,6.3079,6.3079,6.3079,6.3079,6.3079,6.3169,6.3228,6.3228,6.3116,6.2999,6.2763,6.1669,6.0732,6.0052,5.8436,5.7125,5.5974,5.4831,5.4183,5.3792,5.405,5.4466,5.4905,5.5315,5.5817,5.6219,7.1131,7.1131,7.1041,7.0825,7.0733,7.0515,7.0082,6.9478,6.8896,6.8,6.7046,6.5991,6.5187,6.4706,6.4507,6.4725,6.4755,6.4755,6.4755,6.4755,6.4755,6.4755,6.4755,6.4755,6.4755,6.4755,6.4216,6.3079,6.3079,6.3079,6.3079,6.3079,6.3079,6.3109,6.3647,6.3887,6.3917,6.4605,6.4874,6.4904,6.4994,6.5024,6.5084,6.5652,6.5862,6.5862,6.5862,6.5503,6.5024,6.4934,6.4874,6.4874,6.4784,6.4755,6.4755,6.4755,6.4755,6.4635,6.4036,6.3887,6.3737,6.3199,6.3079,6.3079,6.3079,6.3079,6.3079,6.3079,6.3079,6.3079,6.3079,6.3079,6.3049,6.2959,6.2929,6.2899,6.281,6.281,6.26,6.2032,6.1463,6.1104,6.1104,6.1613,6.1972,6.1972,6.257,6.2929,6.2929,6.3019,6.3079,6.3079,6.3079,6.3079,6.3079,6.3617,6.3887,6.3887,6.4367,6.4337,6.377,6.3417,6.2996,6.2485,6.0916,5.9273,5.7721,5.6318,5.5494,5.5202,5.5632,5.5778,5.577,5.6037,5.6143,5.6219,7.1312,7.1312,7.1222,7.1131,7.1098,7.1007,7.0641,7.0236,6.9898,6.9551,6.865,6.7746,6.7229,6.6098,6.5313,6.5231,6.5143,6.5024,6.5024,6.5024,6.5024,6.5024,6.5024,6.5024,6.5024,6.5024,6.4755,6.4156,6.4156,6.4156,6.4156,6.4156,6.4156,6.4186,6.4455,6.4575,6.4605,6.5293,6.5592,6.5592,6.5981,6.6131,6.6161,6.646,6.655,6.655,6.655,6.637,6.6071,6.5712,6.5592,6.5503,6.5144,6.5024,6.5024,6.5024,6.5024,6.4964,6.4665,6.4575,6.4515,6.4246,6.4156,6.4156,6.4156,6.4156,6.3947,6.3228,6.3079,6.3079,6.3079,6.3079,6.3079,6.3079,6.3079,6.3079,6.3079,6.3079,6.2959,6.269,6.2391,6.2211,6.2211,6.248,6.266,6.266,6.2899,6.3079,6.3079,6.3079,6.3079,6.3079,6.3079,6.3228,6.3588,6.3857,6.4186,6.4575,6.4874,6.4874,6.4575,6.4249,6.4038,6.3637,6.2236,6.109,5.9912,5.8625,5.7757,5.7382,5.7282,5.7162,5.7021,5.67,5.651,5.651]},{"header":{"parameterUnit":"m.s-1","parameterCategory":1,"la1":30.6,"la2":28.766,"lo1":-90.7593,"lo2":-88.6598,"dy":0.0162,"dx":0.0183,"nx":116,"ny":114,"refTime":"2024-03-31T06:00:00:Z","depth":0,"parameterNumber":3,"parameterNumberName":"V-component_of_WINDS"},"data":[0.0,0.0,0.0,0.0,0.0,0.0,0.0,0.0,0.0,0.0,0.0,0.0,0.0,0.0,0.0,0.0,0.0,0.0,0.0,0.0,0.0,0.0,0.0,0.0,0.0,0.0,0.0,0.0,0.0,0.0,0.0,0.0,0.0,0.0,0.0,0.0,0.0,0.0,0.0,0.0,0.0,0.0,0.0,0.0,0.0,0.0,0.0,0.0,0.0,0.0,0.0,0.0,0.0,0.0,0.0,0.0,0.0,0.0,0.0,0.0,0.0,0.0,0.0,0.0,0.0,0.0,0.0,0.0,0.0,0.0,0.0,0.0,0.0,0.0,0.0,0.0,0.0,0.0,0.0,0.0,0.0,0.0,0.0,0.0,0.0,0.0,0.0,0.0,0.0,0.0,0.0,0.0,0.0,0.0,0.0,0.0,0.0,0.0,0.0,0.0,0.0,0.0,0.0,0.0,0.0,0.0,0.0,0.0,0.0,0.0,0.0,0.0,0.0,0.0,0.0,0.0,0.0,0.0,0.0,0.0,0.0,0.0,0.0,0.0,0.0,0.0,0.0,0.0,0.0,0.0,0.0,0.0,0.0,0.0,0.0,0.0,0.0,0.0,0.0,0.0,0.0,0.0,0.0,0.0,0.0,0.0,0.0,0.0,0.0,0.0,0.0,0.0,0.0,0.0,0.0,0.0,0.0,0.0,0.0,0.0,0.0,0.0,0.0,0.0,0.0,0.0,0.0,0.0,0.0,0.0,0.0,0.0,0.0,0.0,0.0,0.0,0.0,0.0,0.0,0.0,0.0,0.0,0.0,0.0,0.0,0.0,0.0,0.0,0.0,0.0,0.0,0.0,0.0,0.0,0.0,0.0,0.0,0.0,0.0,0.0,0.0,0.0,0.0,0.0,0.0,0.0,0.0,0.0,0.0,0.0,0.0,0.0,0.0,0.0,0.0,0.0,0.0,0.0,0.0,0.0,0.0,0.0,0.0,0.0,0.0,0.0,0.0,0.0,0.0,0.0,0.0,0.0,0.0,0.0,0.0,0.0,0.0,0.0,0.0,0.0,0.0,0.0,0.0,0.0,0.0,0.0,0.0,0.0,0.0,0.0,0.0,0.0,0.0,0.0,0.0,0.0,0.0,0.0,0.0,0.0,0.0,0.0,0.0,0.0,0.0,0.0,0.0,0.0,0.0,0.0,0.0,0.0,0.0,0.0,0.0,0.0,0.0,0.0,0.0,0.0,0.0,0.0,0.0,0.0,0.0,0.0,0.0,0.0,0.0,0.0,0.0,0.0,0.0,0.0,0.0,0.0,0.0,0.0,0.0,0.0,0.0,0.0,0.0,0.0,0.0,0.0,0.0,0.0,0.0,0.0,0.0,0.0,0.0,0.0,0.0,0.0,0.0,0.0,0.0,0.0,0.0,0.0,0.0,0.0,0.0,0.0,0.0,0.0,0.0,0.0,0.0,0.0,0.0,0.0,0.0,0.0,0.0,0.0,0.0,0.0,0.0,0.0,0.0,0.0,0.0,0.0,0.0,0.0,0.0,0.0,0.0,0.0,0.0,0.0,0.0,0.0,0.0,0.0,0.0,0.0,0.0,0.0,0.0,0.0,0.0,0.0,0.0,0.0,0.0,0.0,0.0,0.0,0.0,0.0,0.0,0.0,0.0,0.0,0.0,0.0,0.0,0.0,0.0,0.0,0.0,0.0,0.0,0.0,0.0,0.0,0.0,0.0,0.0,0.0,0.0,0.0,0.0,0.0,0.0,0.0,0.0,0.0,0.0,0.0,0.0,0.0,0.0,0.0,0.0,0.0,0.0,0.0,0.0,0.0,0.0,0.0,0.0,0.0,0.0,0.0,0.0,0.0,0.0,0.0,0.0,0.0,0.0,0.0,0.0,0.0,0.0,0.0,0.0,0.0,0.0,0.0,0.0,0.0,0.0,0.0,0.0,0.0,0.0,0.0,0.0,0.0,0.0,0.0,0.0,0.0,0.0,0.0,0.0,0.0,0.0,0.0,0.0,0.0,0.0,0.0,0.0,0.0,0.0,0.0,0.0,0.0,0.0,0.0,0.0,0.0,0.0,0.0,0.0,0.0,0.0,0.0,0.0,0.0,0.0,0.0,0.0,0.0,0.0,0.0,0.0,0.0,0.0,0.0,0.0,0.0,0.0,0.0,0.0,0.0,0.0,0.0,0.0,0.0,0.0,0.0,0.0,0.0,0.0,0.0,0.0,0.0,0.0,0.0,0.0,0.0,0.0,0.0,0.0,0.0,0.0,0.0,0.0,0.0,0.0,0.0,0.0,0.0,0.0,0.0,0.0,0.0,0.0,0.0,0.0,0.0,0.0,0.0,0.0,0.0,0.0,0.0,0.0,0.0,0.0,0.0,0.0,0.0,0.0,0.0,0.0,0.0,0.0,0.0,0.0,0.0,0.0,0.0,0.0,0.0,0.0,0.0,0.0,0.0,0.0,0.0,0.0,0.0,0.0,0.0,0.0,0.0,0.0,0.0,0.0,0.0,0.0,0.0,0.0,0.0,0.0,0.0,0.0,0.0,0.0,0.0,0.0,0.0,0.0,0.0,0.0,0.0,0.0,0.0,0.0,0.0,0.0,0.0,0.0,0.0,0.0,0.0,0.0,0.0,0.0,0.0,0.0,0.0,0.0,0.0,0.0,0.0,0.0,0.0,0.0,0.0,0.0,0.0,0.0,0.0,0.0,0.0,0.0,0.0,0.0,0.0,0.0,0.0,0.0,0.0,0.0,0.0,0.0,0.0,0.0,0.0,0.0,0.0,0.0,0.0,0.0,0.0,0.0,0.0,0.0,0.0,0.0,0.0,0.0,0.0,0.0,0.0,0.0,0.0,0.0,0.0,0.0,0.0,0.0,0.0,0.0,0.0,0.0,0.0,0.0,0.0,0.0,0.0,0.0,0.0,0.0,0.0,0.0,0.0,0.0,0.0,0.0,0.0,0.0,0.0,0.0,0.0,0.0,0.0,0.0,0.0,0.0,0.0,0.0,0.0,0.0,0.0,0.0,0.0,0.0,0.0,0.0,0.0,0.0,0.0,0.0,0.0,0.0,0.0,0.0,0.0,0.0,0.0,0.0,0.0,0.0,0.0,0.0,0.0,0.0,0.0,0.0,0.0,0.0,0.0,0.0,0.0,0.0,0.0,0.0,0.0,0.0,0.0,0.0,0.0,0.0,0.0,0.0,0.0,0.0,0.0,0.0,0.0,0.0,0.0,0.0,0.0,0.0,0.0,0.0,0.0,0.0,0.0,0.0,0.0,0.0,0.0,0.0,0.0,0.0,0.0,0.0,0.0,0.0,0.0,0.0,0.0,0.0,0.0,0.0,0.0,0.0,0.0,0.0,0.0,0.0,0.0,0.0,0.0,0.0,0.0,0.0,0.0,0.0,0.0,0.0,0.0,0.0,0.0,0.0,0.0,0.0,0.0,0.0,0.0,0.0,0.0,0.0,0.0,0.0,0.0,0.0,0.0,0.0,0.0,0.0,0.0,0.0,0.0,0.0,0.0,0.0,0.0,0.0,0.0,0.0,0.0,0.0,0.0,0.0,0.0,0.0,0.0,0.0,0.0,0.0,0.0,0.0,0.0,0.0,0.0,0.0,0.0,0.0,0.0,0.0,0.0,0.0,0.0,0.0,0.0,0.0,0.0,0.0,0.0,0.0,0.0,0.0,0.0,0.0,0.0,0.0,0.0,0.0,0.0,0.0,0.0,0.0,0.0,0.0,0.0,0.0,0.0,0.0,0.0,0.0,0.0,0.0,0.0,0.0,0.0,0.0,0.0,0.0,0.0,0.0,0.0,0.0,0.0,0.0,0.0,0.0,0.0,0.0,0.0,0.0,0.0,0.0,0.0,0.0,0.0,0.0,0.0,0.0,0.0,0.0,0.0,0.0,0.0,0.0,0.0,0.0,0.0,0.0,0.0,0.0,0.0,0.0,0.0,0.0,0.0,0.0,0.0,0.0,0.0,0.0,0.0,0.0,0.0,0.0,0.0,0.0,0.0,0.0,0.0,0.0,0.0,0.0,0.0,0.0,0.0,0.0,0.0,0.0,0.0,0.0,0.0,0.0,0.0,0.0,0.0,0.0,0.0,0.0,0.0,0.0,0.0,0.0,0.0,0.0,0.0,0.0,0.0,0.0,0.0,0.0,0.0,0.0,0.0,0.0,0.0,0.0,0.0,0.0,0.0,0.0,0.0,0.0,0.0,0.0,0.0,0.0,0.0,0.0,0.0,0.0,0.0,0.0,0.0,0.0,0.0,0.0,0.0,0.0,0.0,0.0,0.0,0.0,0.0,0.0,0.0,0.0,0.0,0.0,0.0,0.0,0.0,0.0,0.0,0.0,0.0,0.0,0.0,0.0,0.0,0.0,0.0,0.0,0.0,0.0,0.0,0.0,0.0,0.0,0.0,0.0,0.0,0.0,0.0,0.0,0.0,0.0,0.0,0.0,0.0,0.0,0.0,0.0,0.0,0.0,0.0,0.0,0.0,0.0,0.0,0.0,0.0,0.0,0.0,0.0,0.0,0.0,0.0,0.0,0.0,0.0,0.0,0.0,0.0,0.0,0.0,0.0,0.0,0.0,0.0,0.0,0.0,0.0,0.0,0.0,0.0,0.0,0.0,0.0,0.0,0.0,0.0,0.0,0.0,0.0,0.0,0.0,0.0,0.0,0.0,0.0,0.0,0.0,0.0,0.0,0.0,0.0,0.0,0.0,0.0,0.0,0.0,0.0,0.0,0.0,0.0,0.0,0.0,0.0,0.0,0.0,0.0,0.0,0.0,0.0,0.0,0.0,0.0,0.0,0.0,0.0,0.0,0.0,0.0,0.0,0.0,0.0,0.0,0.0,0.0,0.0,0.0,0.0,0.0,0.0,0.0,0.0,0.0,0.0,0.0,0.0,0.0,0.0,0.0,0.0,0.0,0.0,0.0,0.0,0.0,0.0,0.0,0.0,0.0,0.0,0.0,0.0,0.0,0.0,0.0,0.0,0.0,0.0,0.0,0.0,0.0,0.0,0.0,0.0,0.0,0.0,0.0,0.0,0.0,0.0,0.0,0.0,0.0,0.0,0.0,0.0,0.0,0.0,0.0,0.0,0.0,0.0,0.0,0.0,0.0,0.0,0.0,0.0,0.0,0.0,0.0,0.0,0.0,0.0,0.0,0.0,0.0,0.0,0.0,0.0,0.0,0.0,0.0,0.0,0.0,0.0,0.0,0.0,0.0,0.0,0.0,0.0,0.0,0.0,0.0,0.0,0.0,0.0,0.0,0.0,0.0,0.0,0.0,0.0,0.0,0.0,0.0,0.0,0.0,0.0,0.0,0.0,0.0,0.0,0.0,0.0,0.0,0.0,0.0,0.0,0.0,0.0,0.0,0.0,0.0,0.0,0.0,0.0,0.0,0.0,0.0,0.0,0.0,0.0,0.0,0.0,0.0,0.0,0.0,0.0,0.0,0.0,0.0,0.0,0.0,0.0,0.0,0.0,0.0,0.0,0.0,0.0,0.0,0.0,0.0,0.0,0.0,0.0,0.0,0.0,0.0,0.0,0.0,0.0,0.0,0.0,0.0,0.0,0.0,0.0,0.0,0.0,0.0,0.0,0.0,0.0,0.0,0.0,0.0,0.0,0.0,0.0,0.0,0.0,0.0,0.0,0.0,0.0,0.0,0.0,0.0,0.0,0.0,0.0,0.0,0.0,0.0,0.0,0.0,0.0,0.0,0.0,0.0,0.0,0.0,0.0,0.0,0.0,0.0,0.0,0.0,0.0,0.0,0.0,0.0,0.0,0.0,0.0,0.0,0.0,0.0,0.0,0.0,0.0,0.0,0.0,0.0,0.0,0.0,0.0,0.0,0.0,0.0,0.0,0.0,0.0,0.0,0.0,0.0,0.0,0.0,0.0,0.0,0.0,0.0,0.0,0.0,0.0,0.0,0.0,0.0,0.0,0.0,0.0,0.0,0.0,0.0,0.0,0.0,0.0,0.0,0.0,0.0,0.0,0.0,0.0,0.0,0.0,0.0,0.0,0.0,0.0,0.0,0.0,0.0,0.0,0.0,0.0,0.0,0.0,0.0,-4.067,-4.108,0.0,0.0,0.0,0.0,0.0,0.0,0.0,0.0,0.0,0.0,0.0,0.0,0.0,0.0,0.0,0.0,0.0,0.0,0.0,0.0,0.0,0.0,0.0,-3.2475,-3.3112,-3.3591,-3.367,-3.3544,-3.3418,0.0,0.0,0.0,0.0,0.0,-3.1523,-3.1269,-3.1133,-3.1133,-3.1172,-3.1191,-3.1191,-3.0937,-3.0254,-2.9238,0.0,0.0,0.0,0.0,0.0,0.0,0.0,0.0,0.0,0.0,0.0,0.0,0.0,0.0,0.0,0.0,0.0,0.0,0.0,0.0,0.0,0.0,0.0,0.0,0.0,0.0,0.0,0.0,0.0,0.0,0.0,0.0,0.0,0.0,0.0,0.0,0.0,0.0,0.0,0.0,0.0,0.0,0.0,0.0,0.0,0.0,0.0,0.0,0.0,0.0,0.0,0.0,0.0,0.0,0.0,0.0,0.0,0.0,0.0,0.0,0.0,0.0,0.0,0.0,0.0,0.0,0.0,0.0,0.0,0.0,-4.2079,-4.1821,0.0,0.0,0.0,0.0,0.0,0.0,0.0,0.0,0.0,0.0,0.0,0.0,0.0,0.0,0.0,0.0,0.0,0.0,0.0,0.0,0.0,-3.165,-3.224,-3.3141,-3.37,-3.3968,-3.3922,-3.3796,-3.3418,-3.3418,0.0,0.0,0.0,0.0,-3.2285,-3.2207,-3.2129,-3.2051,-3.1699,-3.1601,-3.1738,-3.166,-3.1055,-3.0019,-2.9785,0.0,0.0,0.0,0.0,0.0,0.0,0.0,0.0,0.0,0.0,0.0,0.0,0.0,0.0,0.0,0.0,0.0,0.0,0.0,0.0,0.0,0.0,0.0,0.0,0.0,0.0,0.0,0.0,0.0,0.0,0.0,0.0,0.0,0.0,0.0,0.0,0.0,0.0,0.0,0.0,0.0,0.0,0.0,0.0,0.0,0.0,0.0,0.0,0.0,0.0,0.0,0.0,0.0,0.0,0.0,0.0,0.0,0.0,0.0,0.0,0.0,0.0,0.0,-4.2239,-4.2982,-4.3596,-4.4599,-4.5179,-4.5288,-4.3909,-4.2744,-4.2011,-4.3312,0.0,0.0,0.0,0.0,0.0,0.0,0.0,0.0,0.0,0.0,0.0,0.0,0.0,0.0,0.0,0.0,0.0,0.0,0.0,-3.231,-3.2901,-3.3609,-3.4063,-3.4342,-3.4047,-3.3796,-3.3418,-3.3418,0.0,0.0,0.0,-3.2773,-3.2715,-3.2363,-3.1992,-3.1601,-3.1543,-3.1894,-3.2617,-3.2246,-3.1992,-3.1777,-3.0625,-2.9819,-2.9461,0.0,0.0,0.0,0.0,0.0,0.0,0.0,0.0,0.0,0.0,0.0,0.0,0.0,0.0,0.0,0.0,0.0,0.0,0.0,0.0,0.0,0.0,0.0,0.0,0.0,0.0,0.0,0.0,0.0,0.0,0.0,0.0,0.0,0.0,0.0,0.0,0.0,0.0,0.0,0.0,0.0,-3.473,-3.5136,0.0,0.0,0.0,0.0,0.0,0.0,0.0,0.0,0.0,0.0,0.0,0.0,0.0,-3.9307,-3.9104,-4.0542,-4.1436,-4.1732,-4.2656,-4.344,-4.4238,-4.48,-4.5603,-4.6502,-4.6458,0.0,-4.4853,-4.5594,0.0,0.0,0.0,0.0,0.0,0.0,0.0,0.0,0.0,0.0,0.0,0.0,0.0,0.0,0.0,0.0,0.0,0.0,0.0,0.0,0.0,-3.5504,-3.5776,-3.5232,-3.517,-3.4673,-3.3796,-3.367,0.0,0.0,-3.3242,-3.3144,-3.3144,-3.2969,-3.2656,-3.2246,-3.2962,-3.3277,-3.3539,-3.3953,-3.4222,-3.4182,-3.3195,-3.2109,-3.0829,-3.0538,0.0,0.0,0.0,0.0,0.0,0.0,0.0,0.0,0.0,0.0,0.0,0.0,0.0,0.0,0.0,0.0,0.0,0.0,0.0,0.0,0.0,0.0,0.0,0.0,0.0,0.0,0.0,0.0,0.0,0.0,0.0,0.0,0.0,0.0,0.0,0.0,0.0,0.0,0.0,-3.602,-3.6356,-3.6844,-3.6551,-3.645,0.0,0.0,0.0,0.0,0.0,0.0,0.0,0.0,0.0,-3.9324,-4.0207,-4.0635,-4.0418,-4.1417,-4.2157,-4.2788,-4.3729,-4.4716,-4.5733,-4.6567,-4.7532,-4.8441,-4.8856,-4.8528,-4.7645,-4.7109,-4.6554,-4.6041,0.0,0.0,0.0,0.0,-4.4772,-4.4874,0.0,0.0,0.0,0.0,0.0,0.0,0.0,0.0,0.0,0.0,0.0,0.0,-3.6453,-3.7131,-3.7192,-3.6359,-3.6034,-3.548,-3.4332,-3.3981,-3.3836,-3.3574,-3.3476,-3.3476,-3.3594,-3.3721,-3.3564,-3.3375,-3.4279,-3.4732,-3.4659,-3.5468,-3.6013,-3.6119,-3.581,-3.4631,-3.2788,-3.2125,-3.1629,0.0,0.0,0.0,0.0,0.0,0.0,0.0,0.0,0.0,0.0,0.0,0.0,0.0,0.0,0.0,0.0,0.0,0.0,0.0,0.0,0.0,0.0,0.0,0.0,0.0,0.0,0.0,0.0,0.0,0.0,0.0,0.0,0.0,0.0,0.0,0.0,0.0,0.0,-3.7289,-3.7543,-3.8275,-3.7885,-3.7725,0.0,0.0,0.0,0.0,0.0,0.0,-3.9777,-4.0395,-4.0755,-4.0943,-4.1643,-4.1957,-4.1986,-4.2648,-4.3336,-4.4277,-4.5299,-4.644,-4.7503,-4.8454,-4.9248,-4.996,-5.0375,-5.0396,-4.9957,-4.853,-4.7862,-4.7709,-4.6915,-4.6677,-4.6706,-4.6239,-4.6191,-4.6372,0.0,0.0,0.0,0.0,0.0,0.0,0.0,0.0,0.0,0.0,0.0,-3.6956,-3.7339,-3.7404,-3.7305,-3.7287,-3.6401,-3.5604,-3.5027,-3.4286,-3.3974,-3.4023,-3.3633,-3.3613,-3.4023,-3.4428,-3.4664,-3.5027,-3.5087,-3.5585,-3.6207,-3.6593,-3.6999,-3.7275,-3.7572,-3.6657,-3.4891,-3.4183,-3.3681,-3.3281,0.0,0.0,0.0,0.0,0.0,0.0,0.0,0.0,0.0,0.0,0.0,0.0,0.0,0.0,0.0,0.0,0.0,0.0,0.0,0.0,0.0,0.0,0.0,0.0,0.0,0.0,0.0,0.0,0.0,0.0,0.0,0.0,0.0,0.0,0.0,0.0,0.0,0.0,0.0,-3.9006,-3.8359,0.0,0.0,0.0,0.0,-3.9789,-4.0787,-4.0983,-4.0123,-4.1114,-4.1579,-4.1379,-4.2099,-4.2812,-4.3433,-4.4463,-4.5369,-4.6292,-4.7355,-4.8296,-4.9219,-4.9766,-5.025,-5.0698,-5.0822,-5.1075,-5.1389,-5.0296,-4.9439,-4.8975,-4.8517,-4.8541,-4.8828,-4.8148,-4.794,-4.8027,0.0,0.0,0.0,0.0,0.0,-3.5169,-3.5713,-3.6232,-3.6752,-3.7241,-3.7873,-3.8664,-3.9522,-3.9694,-3.9593,-3.91,-3.8442,-3.7407,-3.6206,-3.5292,-3.4754,-3.4266,-3.4405,-3.4684,-3.5122,-3.4863,-3.4843,-3.5529,-3.633,-3.6944,-3.7478,-3.8916,-3.984,-4.0224,-4.0773,-4.0601,-4.002,-3.7206,-3.6273,-3.6443,-3.5405,-3.4843,0.0,0.0,0.0,0.0,0.0,0.0,0.0,0.0,0.0,0.0,0.0,0.0,0.0,0.0,0.0,0.0,0.0,0.0,0.0,0.0,0.0,0.0,0.0,0.0,0.0,0.0,0.0,0.0,0.0,0.0,0.0,0.0,0.0,0.0,0.0,0.0,0.0,-4.0377,-4.0255,0.0,-4.1266,-4.1023,-4.0804,-4.1027,-4.1422,-4.1744,-4.1966,-4.2911,-4.3624,-4.4138,-4.4763,-4.5349,-4.5741,-4.6437,-4.707,-4.7717,-4.8424,-4.9248,-5.0086,-5.0346,-5.0728,-5.1011,-5.1011,-5.1293,-5.1572,-5.1331,-5.0969,-5.0487,-4.9824,-4.964,-4.9661,-4.9658,-4.9532,-4.9264,0.0,0.0,0.0,0.0,0.0,-3.5454,-3.6006,-3.686,-3.7615,-3.8065,-3.896,-3.9816,-4.0636,-4.0967,-4.0946,-4.0339,-3.9567,-3.8653,-3.7441,-3.6143,-3.5375,-3.5341,-3.5517,-3.5658,-3.5936,-3.582,-3.6091,-3.6753,-3.7728,-3.846,-3.9002,-4.0857,-4.1911,-4.2293,-4.295,-4.3402,-4.3405,-4.0592,-3.936,-3.9037,-3.8129,-3.7498,-3.7121,0.0,0.0,0.0,0.0,0.0,0.0,0.0,0.0,0.0,0.0,0.0,0.0,0.0,0.0,0.0,0.0,0.0,0.0,0.0,0.0,0.0,0.0,0.0,0.0,0.0,0.0,0.0,0.0,0.0,0.0,0.0,0.0,0.0,0.0,-4.012,-4.0379,-4.1583,-4.1509,-4.1793,-4.2648,-4.2375,-4.2227,-4.2625,-4.2762,-4.3137,-4.3627,-4.4433,-4.5268,-4.5995,-4.6645,-4.721,-4.7809,-4.8121,-4.8518,-4.9138,-4.956,-4.999,-5.0567,-5.0822,-5.1105,-5.1293,-5.1293,-5.1572,-5.2124,-5.2276,-5.2449,-5.248,-5.1481,-5.1041,-5.0996,-5.1069,-5.0946,-5.0735,0.0,0.0,0.0,0.0,0.0,-3.4901,-3.5454,-3.6935,-3.7916,-3.7668,-3.9084,-4.0195,-4.0572,-4.1023,-4.1057,-4.0826,-3.9744,-3.9031,-3.8772,-3.6685,-3.5933,-3.7033,-3.6659,-3.6253,-3.6204,-3.7488,-3.834,-3.8529,-3.9368,-4.0105,-4.0906,-4.1911,-4.2673,-4.3326,-4.4051,-4.4546,-4.4743,-4.4232,-4.2939,-4.1038,-4.1324,-4.0474,-3.9118,0.0,0.0,0.0,0.0,0.0,0.0,0.0,0.0,0.0,0.0,0.0,0.0,0.0,0.0,0.0,0.0,0.0,0.0,0.0,0.0,0.0,0.0,0.0,0.0,0.0,0.0,0.0,0.0,0.0,0.0,0.0,0.0,0.0,-4.0818,-4.0342,-4.0636,-4.2276,-4.2066,-4.2301,-4.3714,-4.3815,-4.4041,-4.4568,-4.4991,-4.5131,-4.5247,-4.5794,-4.6334,-4.7033,-4.7671,-4.8517,-4.956,-4.9521,-4.9896,-5.0668,-5.0602,-5.0692,-5.0822,-5.1105,-5.1416,-5.1572,-5.1572,-5.2124,-5.3024,-5.3258,-5.3976,-5.4838,-5.3366,-5.2913,-5.3006,-5.252,-5.2312,-5.2227,0.0,0.0,0.0,-3.3469,-3.408,-3.4744,-3.5361,-3.6935,-3.8165,-3.8492,-3.9619,-4.0771,-4.1613,-4.2004,-4.2119,-4.2257,-4.1377,-4.0708,-4.0241,-3.8697,-3.7756,-3.7686,-3.6439,-3.6459,-3.7591,-3.7632,-3.802,-3.8624,-3.967,-4.0517,-4.1164,-4.2673,-4.3802,-4.4422,-4.5306,-4.5793,-4.5914,-4.5764,-4.5141,-4.4145,-4.3233,-4.2637,-4.2363,0.0,0.0,0.0,0.0,0.0,0.0,0.0,0.0,0.0,0.0,0.0,0.0,0.0,0.0,0.0,0.0,0.0,0.0,0.0,0.0,0.0,0.0,0.0,0.0,0.0,0.0,0.0,0.0,0.0,0.0,0.0,-4.1537,-4.1379,-4.0988,-4.132,-4.1963,-4.2774,-4.3299,-4.3866,-4.4687,-4.517,-4.5448,-4.5602,-4.6243,-4.682,-4.7074,-4.8012,-4.8792,-4.9467,-5.0463,-5.1107,-5.1423,-5.177,-5.1829,-5.1512,-5.1461,-5.1298,-5.1105,-5.1386,-5.1572,-5.1849,-5.2215,-5.2815,-5.3521,-5.3954,-5.4633,-5.5426,-5.4906,-5.4681,-5.4672,-5.4667,-5.4146,-5.3413,0.0,0.0,0.0,-3.3153,-3.39,-3.4653,-3.5361,-3.6935,-3.814,-3.8467,-3.9873,-4.1103,-4.1731,-4.2376,-4.2797,-4.2643,-4.2131,-4.1542,-4.0999,-3.953,-3.8209,-3.7016,-3.667,-3.6869,-3.7881,-3.8062,-3.854,-3.9341,-4.0388,-4.1293,-4.1934,-4.3553,-4.4546,-4.5061,-4.5939,-4.6301,-4.6301,-4.6301,-4.6125,-4.5773,-4.4886,-4.4452,-4.4066,-4.3438,-4.3037,-4.276,-4.2133,-4.153,-4.1028,-4.0802,0.0,0.0,0.0,0.0,0.0,0.0,0.0,0.0,0.0,0.0,0.0,0.0,0.0,0.0,0.0,0.0,0.0,0.0,0.0,0.0,0.0,0.0,0.0,0.0,-4.2368,-4.2523,-4.269,-4.2939,-4.3347,-4.4019,-4.4925,-4.5768,-4.6217,-4.6768,-4.7127,-4.7241,-4.8012,-4.8566,-4.8679,-4.9766,-5.0628,-5.1183,-5.2164,-5.2848,-5.3024,-5.3173,-5.3207,-5.2762,-5.2562,-5.2234,-5.2037,-5.2051,-5.2274,-5.2612,-5.2849,-5.3521,-5.4465,-5.4883,-5.562,-5.6336,0.0,0.0,0.0,0.0,-5.5013,-5.4188,0.0,0.0,0.0,-3.3073,-3.3909,-3.4728,-3.5386,-3.6935,-3.8015,-3.8015,-3.9898,-4.1254,-4.1254,-4.2276,-4.2861,-4.2389,-4.2244,-4.1923,-4.1121,-3.958,-3.777,-3.6009,-3.6922,-3.7545,-3.7653,-3.8687,-3.9601,-4.0432,-4.145,-4.2349,-4.3008,-4.4295,-4.5012,-4.5429,-4.5963,-4.6301,-4.6301,-4.6301,-4.6301,-4.6301,-4.6301,-4.5698,-4.4819,-4.4744,-4.4418,-4.3991,-4.3915,-4.3539,-4.3011,-4.2585,0.0,0.0,0.0,0.0,0.0,0.0,0.0,0.0,0.0,0.0,0.0,0.0,0.0,0.0,0.0,0.0,0.0,0.0,0.0,0.0,0.0,0.0,0.0,0.0,-4.3491,-4.4148,-4.5395,-4.5312,-4.5302,-4.5826,-4.6882,-4.7652,-4.7959,-4.8638,-4.9045,-4.9415,-4.9956,-5.0293,-5.0293,-5.1293,0.0,0.0,0.0,-5.389,-5.4304,-5.4078,-5.4052,-5.4192,-5.3593,-5.3264,-5.3174,-5.2893,-5.3128,-5.3622,-5.3601,-5.4359,-5.5491,-5.5941,-5.6569,-5.7289,-5.6757,-5.6757,-5.6972,-5.5895,-5.5204,-5.46,0.0,0.0,0.0,-3.3344,-3.42,-3.4873,-3.5437,-3.6935,-3.8015,-3.8015,-3.9572,-4.0676,-4.0676,-4.1247,-4.1672,-4.1547,-4.1484,-4.1133,-4.0441,-3.8843,-3.7908,-3.7757,-3.7278,-3.7371,-3.8159,-3.9206,-4.0244,-4.1034,-4.2348,-4.3402,-4.4054,-4.5038,-4.5597,-4.597,-4.6138,-4.6301,-4.6301,-4.6301,-4.6301,-4.6301,-4.6301,-4.6175,-4.5924,-4.5497,-4.5246,-4.5095,-4.4644,-4.4116,-4.3689,-4.4041,-4.3263,-4.2183,-4.2308,-4.158,0.0,0.0,0.0,0.0,0.0,0.0,0.0,0.0,0.0,0.0,0.0,0.0,0.0,0.0,0.0,0.0,0.0,0.0,0.0,-4.4178,-4.5218,-4.631,-4.741,-4.8819,-4.9117,-4.782,-4.8342,-4.9,-4.9513,-5.0546,-5.1183,-5.1183,-5.1731,-5.2164,-5.2352,-5.2914,-5.3261,-5.3576,-5.423,-5.4568,-5.4671,-5.4857,-5.473,-5.4221,-5.4072,0.0,-5.3174,-5.3698,-5.3897,-5.4016,-5.5098,-5.5647,-5.5941,-5.6569,-5.7139,-5.7514,-5.7588,-5.7662,-5.7634,-5.6829,-5.6052,-5.5378,0.0,0.0,0.0,-3.3877,-3.445,-3.5095,-3.5812,-3.7111,-3.8015,-3.8015,-3.9697,-4.0927,-4.0927,-4.1656,-4.2158,-4.2158,-4.1516,-4.0646,-3.9578,-3.8252,-3.7556,-3.7348,-3.7368,-3.7672,-3.834,-3.9867,-4.0921,-4.1699,-4.328,-4.4463,-4.5113,-4.6129,-4.666,-4.6761,-4.6709,-4.6728,-4.6702,-4.6426,-4.6301,-4.6301,-4.6301,-4.6301,-4.6276,-4.5999,-4.5899,-4.5874,-4.5573,-4.5296,-4.5045,-4.5045,-4.4518,-4.3765,-4.3489,-4.2836,-4.2158,0.0,0.0,0.0,0.0,0.0,0.0,0.0,0.0,0.0,0.0,0.0,0.0,0.0,0.0,-4.3755,-4.4656,0.0,-4.5733,-4.664,-4.7399,-4.8432,-4.9933,-5.1109,-5.1364,-5.0129,-5.0515,-5.1039,-5.1456,-5.2056,-5.238,-5.2623,-5.3049,-5.3261,-5.3471,-5.3919,-5.423,-5.4363,-5.4773,-5.5006,-5.5006,-5.5078,-5.5029,-5.47,-5.47,-5.4521,-5.4162,-5.4486,-5.4724,-5.5008,-5.5629,-5.6168,-5.6545,-5.712,-5.7514,-5.7735,-5.7881,-5.7881,-5.7814,-5.707,-5.6562,-5.6156,0.0,0.0,0.0,-3.4316,-3.4768,-3.5293,-3.6213,-3.7312,-3.8015,-3.8015,-3.9772,-4.1028,-4.1028,-4.1806,-4.2434,-4.2413,-4.1196,-4.0025,0.0,-3.7845,-3.7187,-3.6658,-3.7505,-3.8085,-3.8527,-4.033,-4.1603,-4.2345,-4.4084,-4.529,-4.6045,-4.6998,-4.7606,-4.7582,-4.7283,-4.728,-4.7255,-4.6803,-4.6552,-4.6476,-4.6476,-4.6401,-4.6301,-4.6301,-4.6301,-4.6301,-4.6175,-4.615,-4.6075,-4.5497,-4.5246,-4.4995,-4.4091,-4.3664,-4.3413,-4.3087,-4.2585,0.0,0.0,0.0,0.0,0.0,0.0,0.0,0.0,0.0,-4.3567,-4.4866,-4.5094,-4.5548,-4.694,-4.7419,-4.7957,-4.8936,-4.9635,-5.0643,-5.231,-5.2762,-5.2849,-5.248,-5.2627,-5.2943,-5.3126,-5.3232,-5.3471,-5.371,-5.4023,-5.4126,-5.4126,-5.4568,-5.4905,-5.4905,-5.5108,-5.5179,-5.5179,-5.5179,-5.5179,-5.5179,-5.5179,-5.5179,-5.5179,-5.5175,-5.552,-5.5999,-5.6002,-5.6529,-5.7343,-5.7515,-5.7735,-5.7881,-5.7881,-5.7881,-5.7814,-5.7239,-5.6934,-5.6731,0.0,0.0,0.0,-3.463,-3.5138,-3.5642,-3.6003,-3.7117,-3.8015,-3.8015,-3.9094,-3.9873,-3.9873,-3.9998,-4.0134,-4.0318,-3.9332,-3.878,-3.8685,-3.7824,-3.731,-3.7114,-3.7966,-3.8527,-3.899,-4.0536,-4.1839,-4.2944,-4.446,-4.5704,-4.6351,-4.7215,-4.7666,-4.7641,-4.7833,-4.7832,-4.7807,-4.7757,-4.7456,-4.7054,-4.7054,-4.6753,-4.6301,-4.6301,-4.6301,-4.625,-4.5748,-4.5573,-4.5497,-4.492,-4.4392,-4.3966,-4.384,-4.3137,-4.2434,-4.2861,-4.2585,-4.2032,-4.148,-4.1296,-4.1439,-4.2034,-4.3016,-4.4135,0.0,0.0,-4.5958,-4.6671,-4.6951,-4.7157,-4.7338,-4.848,-4.9582,-4.9931,-5.1491,-5.2792,-5.3532,-5.4196,-5.4582,-5.4756,-5.4171,-5.3785,-5.3785,-5.423,-5.4568,-5.47,-5.4875,-5.5078,-5.5078,-5.5078,-5.5209,-5.5209,-5.5179,-5.5179,-5.5179,-5.5179,-5.5179,-5.5179,-5.5179,-5.5179,-5.5179,-5.5857,-5.6076,-5.6093,-5.6638,-5.7456,-5.8174,-5.7741,-5.7735,-5.7881,-5.7881,-5.7881,-5.7881,-5.7814,-5.734,-5.6799,0.0,0.0,0.0,-3.3819,-3.4726,-3.5524,-3.5908,-3.7117,-3.8015,-3.8015,-3.927,-4.0174,-4.0174,-4.0345,-4.031,-3.9946,-3.9207,-3.8684,-3.8434,-3.7464,-3.7187,-3.753,-3.7908,-3.8467,-3.9166,-4.0572,-4.1784,-4.2398,-4.4343,-4.5731,-4.6382,-4.7627,-4.8337,-4.8571,-4.8407,-4.841,-4.8385,-4.8058,-4.7782,-4.7556,-4.7255,-4.7004,-4.6728,-4.6075,-4.5623,-4.5347,-4.5447,-4.5271,0.0,-4.4342,-4.4192,-4.4217,-4.389,-4.3714,-4.3639,-4.3865,-4.3313,-4.2494,-4.1499,-4.1182,-4.1412,-4.2738,-4.3633,-4.4484,-4.5857,-4.6294,-4.6781,-4.7892,-4.8192,-4.8537,-4.9772,-5.0455,-5.1267,-5.2328,-5.3159,-5.3911,-5.4499,-5.4827,-5.5078,-5.5209,-5.4875,-5.4671,-5.4671,-5.4875,-5.5006,-5.5006,-5.5108,-5.5179,-5.5179,-5.5179,-5.5179,-5.5179,-5.5179,-5.5179,-5.5179,-5.5179,-5.5179,-5.5179,-5.5179,-5.5179,-5.5179,-5.5849,-5.6426,-5.6955,-5.7538,-5.7888,-5.8241,-5.8136,-5.7992,-5.7881,-5.7881,-5.7881,-5.7881,-5.7881,-5.7679,-5.7442,0.0,0.0,0.0,0.0,0.0,-3.5114,-3.5716,-3.702,-3.8015,-3.7916,-3.9243,-4.0065,-3.996,-3.9989,-3.9831,-3.9504,-3.8756,-3.8236,-3.7885,-3.721,-3.7014,-3.7609,-3.7927,-3.8402,-3.9156,-4.0433,-4.1268,-4.1693,-4.3653,-4.5028,-4.582,-4.7293,-4.824,-4.8787,-4.8907,-4.886,-4.8962,-4.856,-4.8284,-4.8109,-4.7556,-4.7179,-4.6803,-4.5849,-4.502,-4.4443,-4.4869,-4.4669,-4.4116,-4.3714,-4.384,-4.4091,-4.3689,-4.384,-4.4141,-4.3991,-4.3162,-4.2167,-4.1533,-4.1261,-4.1511,-4.3138,-4.4075,-4.4967,-4.6559,-4.7088,-4.7645,-4.8952,-4.9289,-4.9839,-5.1387,-5.1958,-5.2591,-5.3773,-5.4251,-5.464,-5.5119,-5.5179,-5.5179,-5.5179,-5.5179,-5.5179,-5.5179,-5.5179,-5.5179,-5.5179,-5.5179,-5.5179,-5.5179,-5.5179,-5.5179,-5.5179,-5.5179,-5.5179,-5.5179,-5.5179,-5.5179,-5.5179,-5.5179,-5.5179,-5.5179,-5.578,-5.6645,-5.7725,-5.798,-5.8255,-5.8528,-5.8486,-5.8394,-5.8376,-5.8268,-5.8241,-5.8113,-5.8113,-5.7977,-5.7881,0.0,0.0,0.0,0.0,0.0,-3.4605,-3.5114,-3.68,-3.7916,-3.7643,-3.8612,-3.9074,-3.855,-3.7998,-3.7783,-3.8175,-3.7337,-3.692,-3.704,-3.6949,-3.6951,-3.7193,-3.8045,-3.872,-3.9176,-3.9878,-4.0596,-4.0882,-4.1975,-4.3236,-4.4321,-4.582,-4.7051,-4.8026,-4.8787,-4.9307,-4.9565,-4.9565,-4.9238,-4.8686,-4.8109,-4.7255,-4.6276,-4.5698,-4.4794,-4.384,-4.384,-4.3489,-4.3037,-4.3011,-4.3011,-4.3037,-4.3011,-4.3011,-4.2911,-4.2384,-4.1455,-4.0701,-4.1473,-4.1721,-4.1904,-4.2844,-4.4176,-4.5774,-4.7208,-4.8132,-4.8981,-5.0228,-5.0632,-5.0793,-5.1135,-5.2276,-5.3174,-5.3204,-5.4311,-5.5179,-5.5179,-5.5179,-5.5179,-5.5179,-5.5179,-5.5179,-5.5179,-5.5179,-5.5179,-5.5179,-5.5179,-5.5179,-5.5179,-5.5179,-5.5179,-5.5179,-5.5179,-5.5179,-5.5179,-5.5179,-5.5179,-5.5179,-5.5179,-5.5179,-5.5179,-5.5948,-5.6957,-5.8148,-5.8026,-5.8583,-5.9498,-5.8807,-5.8833,-5.9466,-5.9231,-5.892,-5.8665,-5.8665,-5.8376,-5.7881,0.0,0.0,0.0,0.0,0.0,0.0,-3.5074,-3.6573,-3.7667,-3.7608,-3.817,0.0,0.0,0.0,0.0,0.0,-3.6511,-3.6295,-3.6572,-3.6225,-3.6334,-3.7124,-3.6917,-3.7132,-3.7857,-3.8445,-3.8728,-3.8869,-4.0542,-4.1786,-4.2754,-4.4732,-4.6113,-4.6941,-4.7762,-4.8158,-4.8158,-4.842,-4.8231,-4.7691,-4.7656,-4.691,-4.5889,-4.5579,-4.4568,-4.3313,0.0,-4.3212,-4.2384,-4.2007,-4.2133,-4.2359,-4.2007,-4.2635,-4.3338,-4.2434,-4.163,-4.1028,-4.1145,-4.1465,-4.2112,-4.3698,-4.4942,-4.6082,-4.7427,-4.8169,-4.8722,-4.9346,-4.9919,-5.0621,-5.1552,-5.2093,-5.2782,-5.4071,-5.422,-5.447,-5.5119,-5.5179,-5.5179,-5.5179,-5.5179,-5.5179,-5.5179,-5.5179,-5.5179,-5.5179,-5.5179,-5.5179,-5.5179,-5.5179,-5.5179,-5.5179,-5.5179,-5.5179,-5.5179,-5.5179,-5.5179,-5.5179,-5.5179,-5.5381,-5.578,-5.5979,-5.6827,-5.8026,-5.8082,-5.8389,-5.8893,-5.8782,-5.8724,-5.8591,-5.8705,-5.8701,-5.8719,-5.8562,-5.8488,-5.841,0.0,0.0,0.0,0.0,0.0,0.0,0.0,0.0,0.0,0.0,0.0,0.0,0.0,0.0,0.0,0.0,0.0,-3.5388,-3.5638,-3.5394,-3.561,-3.6663,-3.6209,-3.6426,-3.7285,-3.7586,-3.7727,-3.7727,-3.9109,-4.0209,-4.1018,-4.2831,-4.421,-4.5309,-4.5974,-4.6394,-4.6658,-4.6765,-4.6728,-4.665,-4.6602,-4.5994,-4.5204,-4.5042,-4.4152,0.0,-4.3388,-4.2911,-4.2108,-4.1756,-4.1731,-4.1806,-4.1455,-4.1932,-4.2559,-4.2258,-4.163,-4.1003,-4.1039,-4.1562,-4.2317,-4.3782,-4.4836,-4.5912,-4.684,-4.7568,-4.8179,-4.8481,-4.9294,-5.027,-5.1149,-5.1641,-5.2339,-5.4036,-5.3959,-5.4101,-5.5089,-5.5179,-5.5179,-5.5179,-5.5388,-5.5538,-5.5538,-5.5748,-5.5688,-5.5209,-5.5179,-5.5179,-5.5179,-5.5179,-5.5179,-5.5179,-5.5179,-5.5179,-5.5179,-5.5179,-5.5179,-5.5179,-5.5179,-5.5381,-5.588,-5.588,-5.6537,-5.759,-5.7746,-5.811,-5.8534,-5.8502,-5.842,-5.843,-5.8463,-5.8638,-5.884,-5.8781,-5.8708,-5.8446,0.0,0.0,0.0,0.0,0.0,0.0,0.0,0.0,0.0,0.0,0.0,0.0,0.0,0.0,0.0,0.0,0.0,0.0,-3.4268,0.0,0.0,-3.5825,-3.5838,-3.6309,-3.7148,-3.7168,-3.7168,-3.7168,-3.7648,-3.8346,-3.9433,-4.014,-4.1499,-4.3125,-4.3522,-4.4048,-4.4677,-4.4677,-4.4937,-4.5277,-4.5007,-4.4519,-4.3868,-4.3998,-4.3367,-4.2513,-4.2899,-4.266,-4.2158,-4.2158,-4.1781,-4.1354,-4.1379,-4.1028,-4.0802,-4.1856,-4.1404,-4.0727,-4.1229,-4.1998,-4.262,-4.2946,-4.4089,-4.5235,-4.5768,-4.6506,-4.7232,-4.7689,-4.8601,-4.9359,-4.994,-5.0789,-5.1889,-5.3069,-5.3592,-5.4131,-5.5149,-5.5209,-5.5209,0.0,0.0,0.0,-5.6226,-5.6735,-5.6585,-5.5388,-5.5269,-5.5239,-5.5179,-5.5179,-5.5179,-5.5179,-5.5179,-5.5179,-5.5179,-5.5179,-5.5179,-5.5179,-5.5179,-5.5381,-5.5581,-5.5581,-5.6145,-5.7084,-5.7084,-5.7559,-5.8487,-5.7902,-5.818,-5.876,-5.8578,-5.8646,-5.8905,-5.938,-5.8903,-5.8086,0.0,0.0,0.0,0.0,0.0,0.0,0.0,0.0,0.0,0.0,0.0,0.0,0.0,0.0,0.0,0.0,0.0,0.0,-3.3902,0.0,0.0,0.0,0.0,0.0,0.0,0.0,0.0,-3.5371,-3.6423,-3.7149,-3.7848,-3.9185,-4.0183,-4.0979,-4.1386,-4.1634,-4.1768,-4.2327,-4.2169,-4.1759,-4.2627,-4.235,-4.1494,-4.2734,-4.2647,-4.1997,-4.2896,-4.265,0.0,0.0,0.0,-4.1404,-4.1831,-4.1856,-4.1781,-4.2057,-4.1957,-4.1756,-4.1907,-4.2276,-4.2696,-4.3187,-4.3965,-4.4531,-4.4722,-4.4917,-4.5126,-4.5203,-4.6106,-4.7169,-4.7632,-4.9145,-5.0976,-5.314,-5.348,-5.4078,-5.5748,-5.5508,0.0,-5.5867,0.0,-5.6346,-5.6825,-5.7004,-5.6974,-5.6645,-5.6196,-5.5718,-5.5209,-5.5179,-5.5179,-5.5179,-5.5179,-5.5179,-5.5179,-5.5179,-5.5179,-5.5179,-5.5179,-5.5381,-5.5581,-5.5581,-5.5948,-5.6506,-5.6506,-5.6796,-5.718,-5.7084,-5.7084,-5.7275,-5.7653,-5.79,-5.8137,-5.8429,-5.8613,-5.8543,0.0,0.0,0.0,0.0,0.0,0.0,0.0,0.0,0.0,0.0,0.0,0.0,0.0,0.0,0.0,0.0,0.0,0.0,0.0,0.0,0.0,0.0,0.0,0.0,0.0,0.0,0.0,0.0,0.0,0.0,-3.6403,-3.7287,-3.7913,-3.8428,-3.8695,-3.8828,-3.9094,-3.9491,-3.9454,0.0,0.0,-4.0095,-3.9538,-4.1041,-4.1235,-4.0942,0.0,0.0,0.0,0.0,0.0,-4.1404,-4.1706,-4.1806,-4.1856,-4.2082,-4.2158,-4.2158,-4.2158,-4.2443,-4.2806,-4.3108,-4.3517,-4.3848,-4.3848,-4.4162,-4.4359,-4.4359,-4.5235,-4.6276,-4.6781,-4.8314,-5.0241,0.0,0.0,0.0,-5.5394,-5.5317,-5.5448,0.0,-5.6406,0.0,-5.7483,-5.7812,-5.7872,-5.7573,-5.6705,-5.6017,-5.5658,-5.5359,-5.5179,-5.5179,-5.5179,-5.5179,-5.5179,-5.5179,-5.5179,-5.5179,-5.5179,-5.528,-5.5381,-5.5381,-5.5681,-5.5948,-5.5948,-5.6145,-5.6342,-5.6244,-5.6342,-5.6439,-5.67,-5.6988,-5.7402,-5.7829,-5.8052,-5.8107,0.0,0.0,0.0,0.0,0.0,0.0,0.0,0.0,0.0,0.0,-3.2994,-3.2907,0.0,0.0,0.0,0.0,0.0,0.0,0.0,0.0,0.0,0.0,0.0,0.0,0.0,0.0,0.0,0.0,-3.459,0.0,0.0,0.0,-3.5491,-3.616,-3.616,-3.6269,-3.6655,-3.6655,-3.6891,-3.7085,-3.7699,-3.7902,-3.7841,0.0,0.0,0.0,0.0,0.0,0.0,0.0,-4.1345,-4.1347,-4.1455,-4.1455,-4.1555,-4.2108,-4.2258,-4.2258,-4.2258,-4.261,-4.2986,-4.2986,-4.3184,-4.3406,-4.3406,-4.3687,-4.3965,-4.3965,-4.4926,-4.5813,-4.6329,-4.7757,-4.9408,-5.125,0.0,-5.3407,-5.4627,-5.5024,-5.5406,-5.6107,-5.6705,-5.7363,-5.8052,-5.871,-5.886,-5.8291,-5.7124,-5.6346,-5.6196,-5.5628,-5.5269,-5.5179,-5.5179,-5.5179,-5.5179,-5.5179,-5.5179,-5.5179,-5.5179,-5.5179,-5.5179,-5.5179,-5.528,-5.5581,-5.5581,-5.5681,-5.588,-5.5681,-5.5681,-5.588,-5.5849,-5.6115,-5.6603,-5.7338,-5.7339,-5.7172,0.0,0.0,0.0,0.0,0.0,0.0,0.0,0.0,0.0,0.0,-3.3015,-3.2995,0.0,0.0,0.0,0.0,0.0,0.0,0.0,0.0,0.0,0.0,0.0,0.0,0.0,-3.3652,-3.3652,-3.3652,-3.4004,-3.418,0.0,-3.4662,-3.4838,-3.4969,-3.4969,-3.4969,-3.508,-3.5491,-3.542,-3.508,-3.5845,-3.5935,-3.6016,0.0,0.0,0.0,0.0,0.0,0.0,0.0,-4.0612,-4.1679,-4.2007,-4.2007,-4.2108,-4.266,-4.2836,-4.2836,-4.2836,-4.2911,-4.2986,-4.2986,-4.2986,-4.3073,-4.3073,-4.2856,0.0,-4.2503,-4.2932,-4.3444,-4.3958,-4.5875,-4.8,-5.0314,-5.1896,-5.3213,-5.4726,-5.4919,-5.5054,0.0,-5.6392,-5.7153,-5.8052,-5.871,-5.9069,-5.8949,-5.8231,-5.7304,-5.6226,-5.6077,-5.5748,-5.5209,-5.5179,-5.5179,-5.5179,-5.5179,-5.5179,-5.5179,-5.5179,-5.5179,-5.5179,-5.5179,-5.5179,-5.528,-5.528,-5.528,-5.528,-5.528,-5.528,-5.5381,-5.5581,-5.5681,-5.5849,-5.6409,-5.6607,-5.671,0.0,0.0,0.0,0.0,0.0,0.0,0.0,-3.209,-3.2734,-3.334,-3.3633,-3.3789,-3.3769,-3.3555,-3.3418,0.0,0.0,0.0,0.0,0.0,0.0,0.0,0.0,0.0,0.0,-3.3418,-3.3418,-3.3418,0.0,-3.373,-3.375,-3.3945,-3.4043,-3.4043,-3.4043,-3.4043,-3.4043,-3.4171,-3.4182,-3.3985,-3.4492,-3.475,0.0,0.0,0.0,0.0,0.0,0.0,0.0,0.0,-4.0206,-4.1056,-4.1682,-4.2248,-4.2685,-4.3237,-4.3212,-4.2986,-4.2986,-4.2986,-4.2986,-4.2986,-4.276,-4.2635,-4.2911,0.0,0.0,-4.2534,-4.2806,-4.3136,-4.3598,-4.5227,0.0,-4.8791,-5.068,-5.2278,-5.3131,-5.3877,-5.4536,-5.499,-5.5466,-5.6344,-5.7779,-5.8167,-5.8602,-5.9069,-5.88,-5.8201,-5.7244,-5.6526,-5.5867,-5.5209,-5.5179,-5.5179,-5.5179,-5.5179,-5.5179,-5.5179,-5.5179,-5.5179,-5.5179,-5.5179,-5.5179,-5.5179,-5.5179,-5.5179,-5.5179,-5.5179,-5.5179,-5.5179,-5.5381,-5.5381,-5.5481,-5.575,-5.6047,-5.6085,0.0,0.0,0.0,0.0,0.0,0.0,-3.1758,-3.2715,-3.3555,-3.3926,-3.4394,-3.4648,-3.4512,-3.3926,-3.3516,0.0,0.0,0.0,0.0,0.0,0.0,0.0,0.0,0.0,0.0,0.0,0.0,-3.3418,-3.3418,0.0,0.0,0.0,0.0,0.0,-3.3418,-3.3418,-3.3418,-3.3418,-3.3418,0.0,0.0,-3.3855,0.0,0.0,0.0,0.0,0.0,0.0,0.0,0.0,-3.9405,-4.0036,-4.0983,-4.2015,-4.2987,-4.3425,-4.3275,-4.3025,-4.3011,-4.2986,-4.2986,-4.2986,-4.2559,-4.2308,-4.2861,-4.2559,-4.2308,-4.2861,-4.3184,-4.3406,-4.3764,0.0,-4.6077,0.0,-4.9171,-5.0685,-5.1265,-5.2456,-5.3371,-5.3827,-5.4235,0.0,-5.6799,-5.7143,-5.7606,-5.8505,-5.8793,-5.8632,-5.7932,-5.6795,-5.5867,-5.5209,-5.5179,-5.5179,-5.5179,-5.5179,-5.5179,-5.5179,-5.5179,-5.5179,-5.5179,-5.5179,-5.5179,-5.5179,-5.5179,-5.5179,-5.5179,-5.5179,-5.5179,-5.5179,-5.5179,-5.5179,-5.5179,-5.5481,-5.5481,-5.5581,0.0,0.0,0.0,0.0,0.0,0.0,-3.2559,-3.3105,-3.3984,-3.5566,-3.5156,-3.5,-3.5762,-3.4746,-3.3848,0.0,0.0,0.0,0.0,0.0,0.0,0.0,0.0,0.0,0.0,0.0,0.0,-3.3418,-3.3418,0.0,0.0,0.0,0.0,0.0,0.0,-3.3418,-3.3418,-3.3418,0.0,0.0,0.0,0.0,0.0,0.0,0.0,0.0,0.0,0.0,0.0,0.0,0.0,-3.9026,-3.9686,-4.1089,-4.247,-4.2623,0.0,0.0,-4.3,-4.2986,-4.2986,-4.2986,-4.2559,-4.2308,-4.2861,0.0,-4.2308,-4.2861,-4.2986,-4.3073,-4.3406,0.0,0.0,0.0,0.0,-4.8546,-4.9987,-5.0699,-5.1316,-5.1899,0.0,0.0,-5.4223,-5.5126,-5.6092,-5.6925,-5.7761,-5.7991,-5.7244,-5.6526,-5.5867,-5.5209,-5.5179,-5.5179,-5.5179,-5.5179,-5.5179,-5.5179,-5.5179,-5.5179,-5.5179,-5.5179,-5.5179,-5.5179,-5.5179,-5.5179,-5.5179,-5.5179,-5.5179,-5.5179,-5.5179,-5.5179,-5.5179,-5.5179,-5.5179,-5.5179,0.0,0.0,0.0,0.0,0.0,0.0,-3.2363,-3.3418,-3.4434,-3.5137,-3.5391,-3.5527,-3.5625,-3.5176,-3.459,-3.3867,0.0,0.0,0.0,0.0,0.0,0.0,0.0,0.0,0.0,0.0,-3.3418,-3.3418,-3.3418,0.0,0.0,0.0,0.0,0.0,0.0,-3.3418,-3.3418,-3.3418,0.0,0.0,0.0,0.0,0.0,0.0,0.0,0.0,0.0,0.0,-3.5253,0.0,0.0,0.0,-3.8074,-3.9129,0.0,0.0,-4.2821,-4.2811,-4.2925,-4.2986,-4.2986,-4.2986,-4.2308,-4.1882,-4.276,0.0,-4.1907,-4.2785,-4.2986,-4.2986,-4.3184,-4.3406,-4.401,-4.5474,-4.6575,-4.7607,-4.8532,-4.9462,-5.0174,-5.0375,-5.096,-5.1794,-5.3043,-5.3547,-5.4448,-5.5897,-5.6229,-5.6129,-5.582,-5.6255,-5.608,-5.5036,-5.5108,-5.5179,-5.5179,-5.5179,-5.5179,-5.5179,-5.5179,-5.5179,-5.5179,-5.5179,-5.5179,-5.5179,-5.5179,-5.5179,-5.5179,-5.5179,-5.5179,-5.5179,-5.5179,-5.5179,-5.5179,-5.5179,-5.5179,-5.5179,0.0,0.0,0.0,0.0,0.0,-3.2207,-3.2344,-3.3594,-3.4648,-3.5039,-3.5527,-3.582,-3.5781,-3.5547,-3.5137,-3.4512,-3.3945,0.0,0.0,0.0,0.0,0.0,0.0,0.0,0.0,0.0,-3.3613,-3.3613,-3.373,-3.3789,0.0,0.0,-3.3613,-3.3613,0.0,0.0,0.0,0.0,0.0,0.0,0.0,0.0,0.0,0.0,0.0,0.0,0.0,0.0,0.0,0.0,0.0,0.0,0.0,0.0,0.0,0.0,-4.1988,-4.2233,-4.2588,-4.2749,-4.2824,-4.2785,-4.2158,-4.1781,0.0,0.0,-4.1856,-4.2785,-4.2986,-4.2986,-4.2986,-4.331,-4.3852,-4.4814,-4.5642,-4.6553,-4.7571,-4.8262,-4.8865,-4.9372,-4.9649,-5.0276,-5.1594,-5.196,-5.2687,-5.4008,-5.4288,-5.4201,-5.4002,-5.4989,-5.5166,-5.4495,-5.4671,-5.4875,-5.5108,-5.5108,-5.5078,-5.5179,-5.5179,-5.5179,-5.5179,-5.5179,-5.5179,-5.5179,-5.5179,-5.5179,-5.5179,-5.5179,-5.5179,-5.5179,-5.5179,-5.5179,-5.5179,-5.5179,-5.5179,-5.5179,0.0,0.0,0.0,0.0,0.0,-3.2305,-3.2734,-3.3516,-3.4551,-3.584,-3.5644,-3.5723,-3.6562,-3.5898,-3.5391,-3.5391,-3.457,0.0,0.0,0.0,0.0,0.0,0.0,0.0,0.0,0.0,-3.4062,-3.4062,-3.4473,-3.4687,-3.4668,-3.4258,-3.4062,-3.4043,0.0,0.0,0.0,0.0,0.0,0.0,0.0,0.0,0.0,0.0,0.0,0.0,0.0,0.0,0.0,0.0,0.0,0.0,0.0,-3.6401,-3.7265,0.0,-4.0384,-4.1585,-4.1681,-4.2115,-4.2501,-4.2308,-4.2158,-4.2158,0.0,-4.2158,-4.2308,-4.2861,-4.2986,-4.2986,-4.2986,-4.3413,-4.3966,-4.4543,-4.4644,-4.5313,-4.7339,-4.7136,-4.7452,0.0,-4.9135,-4.9127,-4.9455,-5.039,-5.0966,-5.0993,-5.2113,-5.2539,-5.1903,-5.2435,-5.3143,-5.3919,-5.3919,-5.423,-5.4803,-5.4803,-5.4905,-5.5179,-5.5179,-5.5179,-5.5179,-5.5179,-5.5179,-5.5179,-5.5179,-5.5179,-5.5179,-5.5179,-5.5179,-5.5179,-5.5179,-5.5179,-5.5179,-5.5179,-5.5179,-5.5179,0.0,0.0,0.0,0.0,0.0,0.0,-3.2734,-3.3516,-3.4219,-3.4629,-3.4824,-3.5019,-3.5293,-3.5371,-3.5273,-3.4941,-3.4394,0.0,0.0,0.0,0.0,0.0,0.0,0.0,0.0,-3.3848,-3.4219,-3.4492,-3.4961,-3.5176,-3.5176,-3.5039,-3.4648,-3.4062,-3.3926,-3.3691,0.0,0.0,0.0,0.0,0.0,0.0,-3.5527,0.0,0.0,0.0,0.0,0.0,0.0,0.0,0.0,0.0,0.0,0.0,0.0,-3.6524,-3.8494,-4.0364,-4.0865,-4.146,-4.1899,-4.184,-4.1855,-4.1903,-4.2301,0.0,-4.2308,-4.2861,-4.2986,-4.2986,-4.2986,-4.3438,-4.3865,-4.4041,-4.4719,-4.5522,-4.6547,-4.6874,0.0,-4.8574,-4.8652,-4.8496,-4.8224,-4.8784,-4.9176,-4.969,-4.9854,-5.0032,-5.0274,-5.0243,-5.0933,-5.238,-5.2914,-5.3366,-5.3576,-5.3815,-5.4052,-5.4333,-5.4333,-5.4568,-5.4905,-5.4905,-5.5006,-5.5179,-5.5179,-5.5179,-5.5179,-5.5179,-5.5179,-5.5179,-5.5179,-5.5179,-5.5179,-5.5179,-5.5179,-5.5179,0.0,0.0,0.0,0.0,0.0,0.0,-3.2754,-3.3379,-3.3887,-3.4043,-3.4297,-3.4531,-3.4687,-3.5117,-3.5273,-3.498,-3.4726,0.0,0.0,0.0,0.0,0.0,0.0,0.0,-3.3672,-3.4082,-3.4609,-3.5195,-3.5644,-3.5957,-3.6113,-3.5781,-3.5332,-3.4785,-3.4297,-3.3926,0.0,0.0,0.0,0.0,0.0,0.0,-3.5703,0.0,0.0,0.0,0.0,0.0,0.0,0.0,0.0,0.0,0.0,0.0,0.0,0.0,-3.663,-3.8365,-3.95,-4.0266,-4.0731,-4.0884,-4.1193,-4.1594,-4.1829,0.0,0.0,0.0,0.0,-4.2735,-4.2936,-4.3438,-4.3865,-4.4091,-4.4895,-4.5824,-4.6778,-4.7054,0.0,-4.8106,-4.8222,-4.7956,-4.7189,-4.7493,-4.7885,-4.8221,-4.812,-4.8277,-4.8669,-4.8563,-4.9045,-5.0181,-5.1265,-5.2028,-5.2487,-5.273,-5.3049,-5.3366,-5.3471,-5.3785,-5.4126,-5.4259,-5.4466,-5.4773,-5.4773,-5.4875,0.0,-5.5108,-5.5078,-5.5179,-5.5179,-5.5179,-5.5179,-5.5179,-5.5179,-5.5179,0.0,0.0,0.0,0.0,0.0,0.0,0.0,-3.3164,-3.3574,-3.3965,-3.4023,-3.418,-3.457,-3.5039,-3.5351,-3.5351,-3.541,0.0,0.0,0.0,0.0,0.0,0.0,0.0,-3.4062,-3.4473,-3.5156,-3.6074,-3.6504,-3.6934,-3.7324,-3.6523,-3.6113,-3.5976,-3.4746,-3.418,0.0,0.0,0.0,0.0,-3.5176,-3.5371,0.0,0.0,0.0,0.0,0.0,0.0,0.0,0.0,0.0,0.0,0.0,0.0,0.0,0.0,0.0,0.0,0.0,-3.8638,-3.9101,-3.9565,-4.0307,-4.0889,-4.0749,0.0,0.0,0.0,0.0,0.0,-4.2886,-4.3438,-4.3966,-4.4493,-4.507,-4.605,-4.7631,-4.7506,0.0,0.0,-4.7857,-4.7456,-4.6401,-4.6566,-4.6806,-4.6806,-4.6993,-4.7087,-4.7087,-4.7442,-4.7586,-4.7703,-4.9045,-5.0293,-5.1512,-5.1512,-5.1839,-5.2408,-5.2701,-5.2808,-5.2914,-5.3261,-5.35,-5.3815,-5.3785,-5.4126,-5.47,-5.47,-5.4905,-5.5179,-5.5179,-5.5179,-5.5179,-5.5179,-5.5179,-5.5179,0.0,0.0,0.0,0.0,0.0,0.0,0.0,0.0,0.0,0.0,-3.3574,-3.3613,-3.3711,-3.4394,-3.4863,0.0,0.0,0.0,0.0,0.0,0.0,0.0,0.0,0.0,-3.4062,-3.4473,-3.5293,-3.6523,-3.6934,-3.7363,-3.7773,-3.7578,-3.6953,-3.6016,-3.5703,-3.5195,0.0,0.0,0.0,0.0,-3.4961,-3.5078,0.0,0.0,0.0,0.0,-3.3574,-3.3418,0.0,0.0,0.0,0.0,0.0,0.0,0.0,0.0,-3.4173,-3.4507,-3.5498,0.0,-3.779,-3.7918,-3.8794,-3.9803,0.0,0.0,0.0,0.0,0.0,0.0,0.0,-4.3325,-4.384,-4.3966,-4.4844,-4.5924,-4.7154,-4.7933,0.0,-4.7405,-4.7305,-4.7054,-4.6376,-4.6301,-4.6446,-4.6446,-4.6421,-4.6541,-4.6541,-4.6541,-4.678,-4.7019,-4.7375,-4.8146,-4.9362,-4.9616,-4.9956,-5.0628,-5.0628,-5.1155,-5.2056,-5.2085,-5.2408,-5.2943,-5.3126,-5.3471,-5.3785,-5.4023,-5.4466,-5.4905,-5.4905,-5.5006,-5.5179,-5.5179,-5.5179,-5.5179,0.0,0.0,0.0,0.0,0.0,0.0,0.0,0.0,0.0,0.0,-3.3418,-3.3418,-3.3418,-3.418,-3.4707,0.0,0.0,0.0,0.0,0.0,0.0,0.0,0.0,-3.4219,-3.4668,-3.4902,-3.5644,-3.6953,-3.7187,-3.7617,-3.8223,-3.8027,-3.7461,-3.6582,-3.5996,-3.5351,0.0,0.0,0.0,-3.5371,-3.5117,0.0,0.0,0.0,0.0,0.0,-3.3496,-3.3418,0.0,-3.3691,-3.3613,-3.3457,0.0,0.0,0.0,0.0,-3.367,-3.3796,-3.4173,-3.5149,-3.6258,-3.6624,-3.7451,-3.8313,-3.8529,0.0,0.0,0.0,0.0,0.0,0.0,0.0,-4.3762,-4.4261,-4.5379,-4.6527,-4.738,0.0,-4.846,-4.7581,-4.7481,-4.728,-4.6753,-4.6702,-4.6577,-4.6326,-4.6301,-4.6301,-4.6301,-4.6301,-4.6421,-4.6566,-4.6566,-4.7112,-4.8146,-4.8379,-4.8726,-4.9186,-4.9274,-4.9729,-5.0266,-5.0405,-5.0851,-5.1402,-5.1593,-5.2028,-5.2701,-5.3049,-5.3576,-5.423,-5.4436,-5.4773,-5.5006,-5.5179,-5.5179,-5.5179,0.0,0.0,0.0,0.0,0.0,0.0,0.0,0.0,0.0,0.0,0.0,0.0,0.0,0.0,0.0,0.0,0.0,0.0,0.0,0.0,0.0,0.0,-3.4766,-3.4922,-3.5391,-3.5449,-3.6094,-3.7305,-3.7363,-3.7793,-3.8574,-3.8203,-3.7754,-3.7246,-3.5957,-3.5215,-3.4922,-3.5254,-3.543,-3.5488,-3.543,0.0,0.0,0.0,0.0,0.0,0.0,0.0,0.0,-3.3496,-3.3476,-3.3437,-3.3496,0.0,0.0,0.0,0.0,0.0,-3.3418,-3.4087,-3.4899,-3.55,-3.6241,-3.6731,-3.7097,0.0,0.0,0.0,0.0,0.0,0.0,0.0,0.0,-4.4824,-4.6159,-4.723,-4.7506,-4.8109,-4.8309,-4.7732,-4.7657,-4.7481,-4.7054,-4.7004,-4.6803,-4.6351,-4.6301,-4.6301,-4.6301,-4.6301,-4.6301,-4.6301,-4.6301,-4.6661,-4.7468,-4.7468,-4.7703,-4.7964,-4.8262,-4.8353,-4.8469,-4.8726,-4.9186,-4.9729,-4.9729,-5.0405,-5.1402,-5.1731,-5.2487,-5.3366,-5.389,-5.4333,-5.4773,-5.5006,-5.5179,-5.5179,0.0,0.0,0.0,0.0,0.0,0.0,0.0,0.0,0.0,0.0,0.0,0.0,0.0,0.0,0.0,0.0,0.0,0.0,0.0,0.0,0.0,-3.582,-3.5098,-3.4922,-3.5391,-3.5742,-3.6367,-3.7305,-3.7656,-3.8086,-3.8574,-3.8496,-3.8047,-3.7246,-3.5957,-3.5547,-3.5801,-3.5508,-3.5605,-3.5898,-3.5527,0.0,0.0,0.0,0.0,0.0,0.0,0.0,0.0,-3.3848,-3.373,-3.3496,-3.3848,0.0,0.0,0.0,0.0,0.0,-3.3418,-3.3819,-3.4349,-3.4732,-3.524,-3.5871,0.0,0.0,0.0,0.0,0.0,0.0,0.0,0.0,-4.3474,0.0,0.0,-4.6828,-4.5974,-4.6728,-4.7179,-4.6627,-4.6552,-4.6527,-4.6451,-4.6426,-4.6401,-4.6326,-4.6301,-4.6301,-4.6301,-4.6301,-4.6301,-4.6301,-4.6301,-4.6301,-4.6541,-4.6541,-4.6661,-4.7044,-4.7019,-4.7349,-4.7795,-4.7912,-4.8172,-4.8521,-4.87,-4.916,-4.9843,-5.0405,-5.1402,-5.2516,-5.3049,-5.3681,-5.4406,-5.4773,-5.5006,-5.5179,0.0,0.0,0.0,0.0,0.0,0.0,0.0,0.0,0.0,0.0,0.0,0.0,0.0,0.0,0.0,0.0,0.0,0.0,0.0,0.0,-3.6016,-3.6016,-3.5859,-3.5859,-3.6074,-3.6269,-3.6894,-3.7988,-3.8184,-3.8613,-3.9277,-3.8809,-3.8125,-3.7266,-3.6445,-3.6055,-3.6016,-3.582,-3.584,-3.5976,0.0,0.0,0.0,0.0,0.0,0.0,0.0,0.0,0.0,0.0,-3.3594,-3.3457,-3.3652,0.0,0.0,0.0,0.0,0.0,-3.3418,-3.375,-3.4211,-3.4339,-3.4883,-3.5429,0.0,0.0,0.0,0.0,0.0,0.0,0.0,0.0,-4.3361,-4.5572,0.0,-4.6709,-4.6451,-4.6803,-4.7054,-4.6778,-4.6753,-4.6753,-4.6753,-4.6753,-4.6627,-4.6326,-4.6301,-4.6301,-4.6301,-4.6301,-4.6301,-4.6301,-4.6301,-4.6301,-4.6301,-4.6301,-4.6446,-4.6566,-4.6566,-4.6661,-4.6874,-4.6874,-4.7138,-4.7493,-4.7586,-4.7912,-4.8611,-4.9186,-5.0286,-5.1599,-5.2484,-5.3554,-5.4672,-5.5086,-5.5513,-5.5658,0.0,0.0,0.0,0.0,0.0,0.0,0.0,0.0,0.0,0.0,0.0,0.0,0.0,0.0,0.0,0.0,0.0,0.0,0.0,-3.5703,-3.5918,-3.6016,-3.6445,-3.668,-3.668,-3.6973,-3.7598,-3.8574,-3.8789,-3.918,-3.9726,-3.8828,-3.8027,-3.7266,-3.6758,-3.6328,-3.6016,-3.6016,-3.6016,-3.5996,0.0,0.0,0.0,0.0,0.0,0.0,0.0,0.0,0.0,0.0,0.0,0.0,0.0,0.0,0.0,-3.3418,-3.3418,-3.3418,-3.3418,-3.375,-3.4082,-3.4082,0.0,0.0,0.0,0.0,0.0,0.0,0.0,0.0,0.0,-4.1331,0.0,-4.6094,-4.639,-4.6561,-4.6806,-4.6954,-4.6954,-4.6954,-4.6954,-4.6954,-4.6954,-4.6954,-4.6753,-4.6351,-4.6301,-4.6301,-4.6301,-4.6301,-4.6301,-4.6301,-4.6301,-4.6301,-4.6301,-4.6301,-4.6301,-4.6301,-4.6301,-4.6301,-4.6301,-4.6301,-4.6446,-4.6686,-4.6686,-4.7095,-4.7766,-4.8238,-4.9399,-5.0864,-5.2011,-5.3527,-5.5111,-5.5719,-5.6169,-5.6316,0.0,0.0,0.0,0.0,0.0,0.0,0.0,0.0,0.0,0.0,0.0,0.0,0.0,0.0,0.0,0.0,0.0,0.0,0.0,-3.543,-3.5605,-3.5996,-3.6445,-3.668,-3.668,-3.7832,-3.8476,-3.8574,-3.9394,-3.9609,-3.9238,-3.8379,-3.7734,-3.7266,-3.6426,-3.6055,-3.6016,-3.6016,-3.6016,-3.6016,-3.5996,0.0,0.0,0.0,0.0,0.0,0.0,0.0,0.0,0.0,0.0,0.0,0.0,0.0,-3.3418,-3.3418,-3.3418,-3.3418,-3.3418,-3.375,-3.4082,-3.4082,0.0,0.0,0.0,0.0,0.0,0.0,0.0,0.0,0.0,-4.1099,-4.3921,-4.5771,-4.597,-4.5988,-4.6376,-4.6376,-4.6376,-4.6376,-4.6376,-4.6376,-4.6376,-4.6376,-4.6351,-4.6301,-4.6301,-4.6301,-4.6301,-4.6301,-4.6301,-4.6301,-4.6301,-4.6301,-4.6301,-4.6301,-4.6301,-4.6301,-4.6301,-4.6301,-4.6301,-4.6301,-4.6301,-4.6301,-4.6301,-4.6819,-4.7637,-4.8025,-4.9057,-5.0419,-5.1368,-5.3217,-5.5525,-5.6356,-5.6855,-5.7034,0.0,0.0,0.0,0.0,0.0,0.0,0.0,0.0,0.0,0.0,0.0,0.0,0.0,0.0,0.0,0.0,0.0,0.0,0.0,-3.5098,-3.5469,-3.5625,-3.6309,-3.6797,-3.7051,-3.8047,-3.8848,-3.9394,-4.0,-4.0059,-3.9609,-3.9004,-3.8203,-3.7285,-3.6953,-3.6523,-3.6016,-3.6016,-3.6016,-3.6016,-3.6016,-3.5488,0.0,0.0,0.0,0.0,0.0,0.0,0.0,0.0,-3.3418,-3.3418,-3.3418,-3.3418,-3.3418,-3.3418,-3.3418,-3.3418,-3.3418,-3.3535,0.0,0.0,0.0,0.0,0.0,0.0,0.0,0.0,0.0,0.0,0.0,0.0,-4.2558,-4.502,-4.528,-4.5428,-4.618,-4.6301,-4.6301,-4.6301,-4.6301,-4.6301,-4.6301,-4.6301,-4.6301,-4.6301,-4.6301,-4.6301,-4.6301,-4.6301,-4.6301,-4.6301,-4.6301,-4.6301,-4.6301,-4.6301,-4.6301,-4.6301,-4.6301,-4.6301,-4.6301,-4.6301,-4.6301,-4.6326,-4.6677,-4.6928,-4.7399,-4.7973,-4.8922,-5.0201,-5.2365,-5.439,-5.6297,-5.661,-5.722,-5.7663,0.0,0.0,0.0,0.0,0.0,0.0,0.0,0.0,0.0,0.0,0.0,0.0,0.0,0.0,0.0,0.0,0.0,0.0,-3.4062,-3.4648,-3.5039,-3.5176,-3.5996,-3.6601,-3.6894,-3.8008,-3.8945,-3.9668,-4.0117,-4.0098,-3.9668,-3.9219,-3.8398,-3.7285,-3.7168,-3.6699,-3.6016,-3.6016,-3.6016,-3.6016,-3.6016,-3.5488,0.0,0.0,0.0,0.0,0.0,0.0,0.0,0.0,-3.3418,-3.3418,-3.3418,-3.3418,-3.3418,-3.3418,-3.3418,-3.3418,-3.3418,-3.3418,-3.3457,0.0,0.0,0.0,0.0,0.0,0.0,0.0,0.0,0.0,0.0,0.0,0.0,-4.4135,-4.4655,-4.4986,-4.5963,-4.618,-4.618,-4.6301,-4.6301,-4.6301,-4.6301,-4.6301,-4.6301,-4.6301,-4.6301,-4.6301,-4.6301,-4.6301,-4.6301,-4.6301,-4.6301,-4.6301,-4.6301,-4.6301,-4.6301,-4.6301,-4.6301,-4.6301,-4.6301,-4.6301,-4.6301,-4.6351,-4.6903,-4.723,-4.7431,-4.8207,-4.9263,-5.0551,-5.289,-5.4942,-5.668,-5.7062,-5.7685,-5.8351,0.0,0.0,0.0,0.0,0.0,0.0,0.0,0.0,-3.3418,-3.3418,-3.3809,0.0,0.0,0.0,0.0,0.0,0.0,0.0,-3.4043,-3.4082,-3.4258,-3.4668,-3.5547,-3.6016,-3.6016,-3.7695,-3.8769,-3.9199,-3.9668,-3.9648,-3.9199,-3.8769,-3.8125,-3.7285,-3.6875,-3.6445,-3.6035,-3.6016,-3.6016,-3.6016,-3.6016,-3.5488,-3.4707,0.0,0.0,0.0,0.0,0.0,0.0,0.0,-3.3418,-3.3418,-3.3418,-3.3418,-3.3418,-3.3418,-3.3418,-3.3418,-3.3418,-3.3418,0.0,0.0,0.0,0.0,0.0,0.0,0.0,0.0,0.0,-3.7205,-3.9625,-4.0188,-4.1045,-4.3157,-4.4078,-4.4798,-4.5649,-4.5817,-4.5939,-4.6301,-4.6301,-4.6301,-4.6301,-4.6301,-4.6301,-4.6301,-4.6301,-4.6301,-4.6301,-4.6301,-4.6301,-4.6301,-4.6301,-4.6301,-4.6301,-4.6301,-4.6301,-4.6301,-4.6301,-4.6301,-4.6301,-4.6301,-4.6301,-4.6351,-4.6903,-4.7431,-4.7958,-4.8535,-4.9975,-5.1721,-5.3025,-5.4706,-5.6509,-5.7445,-5.8335,-5.9099,0.0,0.0,0.0,0.0,0.0,0.0,0.0,0.0,-3.3418,-3.3418,-3.3809,0.0,0.0,0.0,0.0,0.0,0.0,0.0,-3.3613,-3.3906,-3.4121,-3.4258,-3.5098,-3.5723,-3.6016,-3.7109,-3.834,-3.9687,-3.9199,-3.9043,-3.918,-3.8457,-3.7988,-3.7715,-3.7305,-3.6875,-3.6465,-3.6152,-3.6016,-3.6016,-3.6016,-3.5488,-3.4707,0.0,0.0,0.0,0.0,0.0,0.0,0.0,0.0,0.0,-3.3418,-3.3418,-3.3418,-3.3418,-3.3418,-3.3418,-3.3418,0.0,0.0,0.0,0.0,0.0,0.0,0.0,0.0,0.0,0.0,-3.6717,-3.8507,-3.8761,-3.9597,-4.2073,-4.2752,-4.3341,-4.457,-4.4939,-4.5306,-4.5939,-4.5939,-4.6059,-4.6301,-4.6301,-4.6301,-4.6301,-4.6301,-4.6301,-4.6301,-4.6301,-4.6301,-4.6301,-4.6301,-4.6301,-4.6301,-4.6301,-4.6301,-4.6301,-4.6301,-4.6301,-4.6301,-4.6301,-4.6527,-4.6928,-4.7456,-4.7983,-4.856,-4.9113,-5.0206,-5.1721,-5.2588,-5.4259,-5.6509,-5.7191,-5.8114,-5.9099,0.0,0.0,0.0,0.0,0.0,0.0,0.0,0.0,-3.3418,-3.3418,-3.3652,-3.3711,0.0,0.0,0.0,0.0,0.0,0.0,-3.3418,-3.3672,-3.3887,-3.4062,-3.4746,-3.5488,-3.6269,-3.6777,-3.7637,-3.8867,-3.832,-3.8203,-3.8437,-3.8086,-3.7832,-3.7656,-3.7402,-3.6973,-3.6387,-3.5957,-3.5664,-3.5488,-3.5488,-3.5078,-3.4453,0.0,0.0,0.0,0.0,0.0,0.0,0.0,0.0,0.0,-3.3418,-3.3301,-3.3164,-3.3164,-3.3164,-3.3164,-3.3164,0.0,0.0,0.0,0.0,0.0,0.0,0.0,0.0,0.0,0.0,-3.6425,-3.7662,-3.7909,-3.8553,-4.0497,-4.1217,-4.1987,-4.3326,-4.3778,-4.4299,-4.4939,-4.5061,-4.5306,-4.5671,-4.5671,-4.5793,-4.6059,-4.6059,-4.618,-4.6301,-4.6301,-4.6301,-4.6301,-4.6301,-4.6301,-4.6301,-4.6301,-4.6301,-4.6301,-4.6301,-4.6301,-4.6301,-4.6301,-4.6602,-4.7179,-4.7933,-4.856,-4.9113,-4.9464,-5.0334,-5.1721,-5.2342,-5.4139,-5.6509,-5.7078,-5.8085,-5.9099,0.0,0.0,-3.3418,-3.3418,0.0,0.0,0.0,0.0,-3.3418,-3.3418,-3.3418,-3.3418,0.0,0.0,0.0,0.0,0.0,0.0,0.0,-3.3418,-3.3613,-3.4062,-3.4512,-3.5351,-3.6582,-3.6621,-3.6777,-3.7129,-3.7207,-3.7266,-3.7305,-3.7656,-3.7637,-3.7305,-3.7266,-3.6777,-3.5996,-3.5566,-3.5137,-3.4707,-3.4707,-3.4453,-3.4082,-3.4082,0.0,0.0,0.0,0.0,0.0,0.0,0.0,0.0,-3.3418,-3.3125,-3.2793,-3.2793,-3.2793,-3.2793,0.0,0.0,0.0,0.0,0.0,0.0,0.0,0.0,0.0,-3.6445,0.0,-3.6269,-3.6956,-3.7428,-3.7949,-3.8856,-3.964,-4.0563,-4.1829,-4.2397,-4.2776,-4.3553,-4.3927,-4.4299,-4.4669,-4.4669,-4.4915,-4.5574,-4.5696,-4.5817,-4.618,-4.6301,-4.6301,-4.6301,-4.6301,-4.6301,-4.6301,-4.6301,-4.6301,-4.6301,-4.6301,-4.6301,-4.6301,-4.6301,-4.6652,-4.7255,-4.836,-4.9138,-4.959,-4.959,-5.0487,-5.1721,-5.2342,-5.4259,-5.6509,-5.7078,-5.8085,-5.9099,0.0,0.0,-3.3418,-3.3418,0.0,0.0,0.0,0.0,0.0,0.0,0.0,0.0,0.0,0.0,0.0,0.0,0.0,0.0,0.0,-3.3418,-3.3613,-3.4062,-3.4824,-3.5527,-3.6152,-3.6152,-3.6035,-3.5801,-3.6484,-3.6973,-3.7285,-3.7051,-3.707,-3.7285,-3.6953,-3.6523,-3.5996,-3.5566,-3.5137,-3.4707,-3.4707,-3.4453,-3.4082,-3.4082,-3.3809,0.0,0.0,0.0,0.0,0.0,0.0,0.0,-3.3418,-3.3125,-3.2793,-3.2793,-3.2793,-3.2793,0.0,0.0,0.0,0.0,0.0,0.0,0.0,0.0,0.0,-3.6113,-3.6094,-3.6171,-3.6522,-3.6813,-3.7064,-3.7883,-3.8345,-3.9009,-4.0105,-4.0603,-4.1226,-4.242,-4.2673,-4.2925,-4.3529,-4.3927,-4.4175,-4.4546,-4.4915,-4.5306,-4.5817,-4.5939,-4.6059,-4.6301,-4.6301,-4.6301,-4.6301,-4.6301,-4.6301,-4.6301,-4.6301,-4.6301,-4.6301,-4.6301,-4.6828,-4.7807,-4.8937,-4.949,-4.959,-4.9847,-5.0614,-5.1721,-5.2929,-5.4588,-5.6509,-5.7303,-5.8335,-5.9099,0.0,0.0,0.0,0.0,0.0,0.0,0.0,0.0,0.0,0.0,0.0,0.0,0.0,0.0,0.0,0.0,0.0,0.0,0.0,0.0,-3.3711,-3.4336,-3.5039,-3.5488,-3.5723,-3.5723,-3.5508,-3.5059,-3.5508,-3.5957,-3.6387,-3.6367,-3.6582,-3.6973,-3.6543,-3.6113,-3.5684,-3.5039,-3.4492,-3.4082,-3.4082,-3.3965,-3.375,-3.375,-3.3613,-3.3418,-3.3418,0.0,0.0,0.0,0.0,0.0,0.0,0.0,-3.2793,-3.2793,-3.2793,-3.2754,0.0,0.0,0.0,0.0,0.0,0.0,0.0,0.0,-3.6016,-3.6016,-3.6016,-3.6016,-3.6268,-3.6268,-3.6539,-3.6944,-3.7193,-3.7575,-3.8528,-3.9035,-3.9561,-4.0495,-4.0732,-4.1119,-4.1738,-4.2143,-4.265,-4.3529,-4.4051,-4.4669,-4.555,-4.5696,-4.5939,-4.6301,-4.6301,-4.6301,-4.6301,-4.6301,-4.6301,-4.6301,-4.6301,-4.6301,-4.6326,-4.6828,-4.7531,-4.836,-4.9213,-4.959,-4.959,-4.9976,-5.0741,-5.1721,-5.3025,-5.4706,-5.6509,-5.7445,-5.8335,-5.9099,0.0,0.0,0.0,0.0,0.0,0.0,0.0,0.0,0.0,0.0,0.0,0.0,0.0,0.0,0.0,0.0,0.0,0.0,0.0,0.0,0.0,-3.4551,-3.5019,-3.5273,-3.5273,-3.5273,-3.5039,-3.459,-3.4512,-3.4726,-3.5176,-3.5684,-3.6133,-3.6543,-3.6113,-3.5664,-3.5215,-3.4414,-3.3828,-3.3418,-3.3418,-3.3418,-3.3418,-3.3418,-3.3418,-3.3418,-3.3418,-3.3418,-3.3418,-3.3418,0.0,0.0,0.0,0.0,-3.2793,-3.2793,-3.2793,-3.2695,0.0,0.0,0.0,0.0,0.0,0.0,0.0,0.0,-3.5937,-3.5996,-3.6016,-3.6016,-3.6016,-3.6016,-3.6152,-3.6403,-3.6384,-3.6654,-3.7348,-3.7595,-3.7996,-3.8416,-3.8793,-3.9167,-3.9801,-4.0214,-4.0991,-4.227,-4.3051,-4.4051,-4.5037,-4.555,-4.5939,-4.6301,-4.6301,-4.6301,-4.6301,-4.6301,-4.6301,-4.6301,-4.6301,-4.6351,-4.6476,-4.738,-4.8083,-4.8661,-4.9314,-4.959,-4.959,-4.9976,-5.0741,-5.1721,-5.3146,-5.4825,-5.6509,-5.7557,-5.8445,-5.9099,0.0,0.0,0.0,0.0,0.0,0.0,0.0,0.0,0.0,0.0,-3.3418,-3.3418,0.0,0.0,0.0,0.0,0.0,0.0,-3.291,0.0,0.0,-3.416,-3.457,-3.4785,-3.4785,-3.4785,-3.459,-3.416,-3.3769,-3.3828,-3.4258,-3.5098,-3.5703,-3.6094,-3.5664,-3.5215,-3.4766,-3.4277,-3.3828,-3.3418,-3.3418,-3.3418,-3.3418,-3.3418,-3.3418,-3.3418,-3.3418,-3.3418,-3.3418,-3.3418,-3.3418,0.0,0.0,0.0,-3.2793,-3.2793,-3.2793,0.0,0.0,0.0,0.0,0.0,0.0,0.0,0.0,0.0,-3.5586,-3.5937,-3.6016,-3.6016,-3.6016,-3.6016,-3.6016,-3.6016,-3.6016,-3.6132,-3.6654,-3.6654,-3.6924,-3.7616,-3.775,-3.7996,-3.8374,-3.9057,-3.9713,-4.0452,-4.1761,-4.3051,-4.4422,-4.5061,-4.5696,-4.6301,-4.6301,-4.6301,-4.6301,-4.6301,-4.6301,-4.6301,-4.6301,-4.6552,-4.7029,-4.7179,-4.7531,-4.8083,-4.9138,-4.959,-4.959,-5.0232,-5.0968,-5.1846,-5.3658,-5.5205,-5.6509,-5.7751,-5.8555,-5.9099,0.0,0.0,0.0,0.0,0.0,0.0,0.0,0.0,0.0,0.0,0.0,-3.3418,0.0,0.0,0.0,-3.2812,-3.2754,-3.2734,-3.2793,-3.3359,-3.3828,-3.4062,-3.4258,-3.4336,-3.4336,-3.4336,-3.4141,-3.3711,-3.3281,-3.3418,0.0,-3.4473,-3.4883,-3.5273,-3.5078,-3.4766,-3.4316,-3.3887,-3.3594,-3.3418,-3.3418,-3.3418,-3.3418,-3.3418,-3.3418,-3.3418,-3.3418,-3.3418,-3.3418,-3.3418,-3.3418,-3.3418,-3.3418,0.0,0.0,0.0,0.0,0.0,0.0,0.0,0.0,0.0,0.0,0.0,0.0,0.0,-3.5508,-3.5937,-3.6016,-3.6016,-3.6016,-3.6016,-3.6016,-3.6016,-3.6016,-3.6016,-3.6132,-3.6268,-3.6268,-3.6674,-3.6694,-3.6809,-3.7193,-3.7863,-3.8681,-3.9583,-4.0884,-4.2293,-4.3678,-4.4446,-4.5184,-4.5939,-4.6059,-4.6059,-4.6301,-4.6301,-4.6301,-4.6301,-4.6301,-4.6426,-4.6677,-4.7004,-4.7581,-4.841,-4.8912,-4.9314,-4.959,-5.0104,-5.0842,-5.1721,-5.3268,-5.497,-5.6509,-5.7557,-5.8445,-5.9099,0.0,0.0,0.0,0.0,0.0,0.0,0.0,0.0,0.0,0.0,0.0,0.0,0.0,0.0,0.0,0.0,-3.2344,-3.2305,-3.2617,-3.3027,-3.3418,-3.373,-3.3848,-3.3906,-3.3906,-3.3906,-3.375,-3.3418,-3.3008,0.0,-3.3906,-3.4023,-3.418,0.0,-3.4609,-3.4531,-3.4199,0.0,0.0,-3.3418,-3.3418,-3.3418,-3.3418,-3.3418,-3.3359,-3.3262,-3.3262,-3.3262,-3.3262,0.0,-3.334,-3.3418,-3.3418,-3.3418,0.0,0.0,0.0,0.0,0.0,0.0,0.0,0.0,0.0,0.0,0.0,0.0,-3.5508,-3.5937,-3.6016,-3.6016,-3.6016,-3.6016,-3.6016,-3.6016,-3.6016,-3.6016,-3.6016,-3.6016,-3.6016,-3.6016,-3.6016,-3.6152,-3.6403,-3.6944,-3.775,-3.8681,-3.9997,-4.1421,-4.2822,-4.3678,-4.4546,-4.5671,-4.5817,-4.5939,-4.6301,-4.6301,-4.6301,-4.6301,-4.6301,-4.6301,-4.6326,-4.6878,-4.7657,-4.856,-4.8711,-4.9088,-4.959,-4.9976,-5.0741,-5.1721,-5.3025,-5.4706,-5.6509,-5.7445,-5.8335,-5.9099,0.0,0.0,0.0,0.0,0.0,0.0,0.0,0.0,0.0,0.0,0.0,0.0,-3.3418,-3.3047,-3.2637,-3.2226,-3.2187,-3.2187,-3.2207,-3.2598,-3.2832,-3.2851,-3.3242,0.0,-3.3457,-3.3457,-3.3437,-3.3418,-3.3008,-3.3027,-3.3457,-3.3887,-3.3867,-3.3516,-3.4336,-3.4687,-3.4609,0.0,0.0,-3.3418,-3.3418,-3.3418,-3.3418,-3.3418,-3.3184,-3.2832,-3.2832,-3.2832,0.0,0.0,0.0,-3.3418,-3.3418,-3.3418,-3.3418,0.0,0.0,0.0,0.0,0.0,0.0,0.0,0.0,0.0,0.0,-3.5371,-3.5508,-3.5937,-3.6016,-3.6016,-3.6016,-3.6016,-3.6016,-3.6016,-3.6016,-3.6016,-3.6016,-3.6016,-3.6016,-3.6016,-3.6016,-3.6016,-3.6016,-3.6403,-3.6924,-3.7616,-3.866,-4.0084,-4.1806,-4.2776,-4.3903,-4.5281,-4.5671,-4.5939,-4.6301,-4.6301,-4.6301,-4.6301,-4.6301,-4.6301,-4.6326,-4.6878,-4.7431,-4.7983,-4.8535,-4.9088,-4.959,-4.9976,-5.0741,-5.1721,-5.3025,-5.4706,-5.6509,-5.7445,-5.8335,-5.9099,0.0,0.0,0.0,0.0,0.0,0.0,0.0,0.0,0.0,0.0,0.0,0.0,0.0,-3.2812,-3.2344,-3.2187,-3.1914,-3.1758,-3.1758,-3.2402,-3.2793,-3.2793,-3.3203,-3.3418,-3.3418,-3.3418,-3.3418,-3.3418,-3.3008,-3.3008,-3.3418,-3.3574,-3.373,-3.3867,-3.4434,-3.4394,-3.3867,-3.3555,0.0,-3.3418,-3.3418,-3.3418,-3.3398,-3.3125,-3.293,-3.2754,0.0,0.0,0.0,0.0,0.0,0.0,-3.3418,-3.3418,-3.3418,0.0,0.0,0.0,0.0,0.0,0.0,0.0,0.0,-3.3887,-3.4746,-3.5391,-3.5918,-3.6348,-3.6641,-3.6758,-3.6484,-3.6211,-3.6016,-3.6016,-3.6016,-3.6016,-3.6016,-3.6016,-3.6016,-3.6016,-3.6016,-3.6016,-3.6016,-3.6268,-3.6654,-3.7213,-3.7996,-3.9035,-4.0366,-4.1505,-4.265,-4.4027,-4.4792,-4.555,-4.6301,-4.6301,-4.6301,-4.6301,-4.6301,-4.6502,-4.6853,-4.7054,-4.7606,-4.8485,-4.8686,-4.9088,-4.959,-4.9719,-5.0487,-5.1721,-5.2562,-5.4378,-5.6509,-5.7191,-5.8225,-5.9099,0.0,0.0,0.0,0.0,0.0,-3.3418,-3.3418,-3.3418,-3.3418,-3.3418,0.0,0.0,0.0,0.0,-3.2324,-3.2187,-3.1894,-3.1738,-3.1738,-3.2402,-3.2793,-3.2793,-3.3203,-3.3418,-3.3418,-3.3418,-3.3418,-3.3418,-3.3144,-3.3144,-3.3418,-3.3574,-3.3711,-3.3867,-3.4297,-3.418,0.0,0.0,0.0,-3.3418,-3.3418,-3.3418,-3.3398,-3.3105,-3.2832,0.0,0.0,0.0,0.0,0.0,0.0,0.0,-3.3418,-3.3418,-3.3418,-3.3418,0.0,0.0,-3.3008,0.0,0.0,0.0,0.0,-3.3867,-3.4726,-3.5391,-3.5937,-3.6367,-3.668,-3.6777,-3.6504,-3.6211,-3.6016,-3.6016,-3.6016,-3.6016,-3.6016,-3.6016,-3.6016,-3.6016,-3.6016,-3.6016,-3.6016,-3.6132,-3.6539,-3.6809,-3.7327,-3.8109,-3.932,-4.0236,-4.1633,-4.3404,-4.4275,-4.5184,-4.6059,-4.618,-4.618,-4.6301,-4.6301,-4.6602,-4.7154,-4.7305,-4.7908,-4.8786,-4.8962,-4.9264,-4.959,-4.959,-5.0334,-5.1721,-5.2342,-5.4139,-5.6509,-5.7078,-5.8085,-5.9099,0.0,0.0,-3.3418,-3.3418,-3.3418,-3.3418,-3.3418,-3.3418,-3.3418,-3.3418,0.0,0.0,0.0,0.0,0.0,-3.2207,-3.2168,-3.2168,-3.2168,-3.2559,-3.2793,-3.2793,-3.3203,-3.3418,-3.3418,-3.3418,-3.3418,-3.3418,-3.3418,-3.3418,-3.3437,-3.3848,-3.3828,-3.3437,-3.3867,-3.4062,-3.4023,0.0,-3.3418,-3.3418,0.0,-3.3418,-3.3418,0.0,0.0,0.0,-3.2148,-3.2148,0.0,-3.2148,0.0,-3.3398,-3.3418,-3.3418,-3.3418,-3.3418,-3.3418,0.0,0.0,0.0,0.0,0.0,-3.4062,-3.4297,-3.5156,-3.5371,-3.5508,-3.5918,-3.6016,-3.6016,-3.5996,-3.6016,-3.6016,-3.5996,-3.6016,-3.6016,-3.6016,-3.6016,-3.6016,-3.6016,-3.6016,-3.6016,-3.6016,-3.6016,-3.6132,-3.6519,-3.6519,-3.7059,-3.8549,-3.932,-4.0991,-4.3678,-4.4422,-4.5061,-4.5817,-4.5817,-4.5939,-4.6301,-4.6326,-4.6627,-4.7179,-4.7682,-4.8259,-4.8837,-4.9364,-4.959,-4.959,-4.959,-5.0334,-5.1596,-5.2342,-5.4139,-5.6394,-5.7078,-5.8085,-5.9099,0.0,-3.3418,-3.3418,-3.3418,-3.3418,-3.3418,-3.3418,-3.3418,-3.3418,0.0,0.0,0.0,-3.3418,-3.3047,-3.2617,-3.2207,-3.2168,-3.2168,-3.2168,-3.2559,-3.2793,-3.2793,-3.3203,-3.3418,-3.3418,-3.3418,-3.3418,-3.3418,-3.3418,-3.3418,-3.3418,-3.3535,-3.3535,-3.3437,-3.3555,-3.3594,-3.3594,-3.3476,0.0,-3.3418,-3.3418,-3.3418,0.0,0.0,0.0,0.0,0.0,-3.1894,-3.2129,0.0,-3.2266,-3.3027,-3.332,-3.3418,-3.3418,-3.3418,-3.3418,-3.3418,-3.3418,0.0,0.0,0.0,0.0,0.0,-3.4375,-3.4941,-3.543,-3.5547,-3.5801,-3.5918,-3.5894,-3.6206,-3.6285,-3.6256,-3.6071,-3.6016,-3.6016,-3.6016,-3.6016,-3.6016,-3.6016,-3.6016,-3.6016,-3.6016,-3.6016,-3.6132,-3.6152,-3.6403,-3.7059,-3.8507,-4.0344,-4.2673,-4.3404,-4.4275,-4.5428,-4.5696,-4.5939,-4.6326,-4.6702,-4.7179,-4.7707,-4.8284,-4.8837,-4.9364,-4.954,-4.959,-4.959,-4.959,-5.0232,-5.1372,-5.197,-5.3631,-5.5789,-5.6394,-5.7528,-5.8773,-3.3418,-3.3418,-3.3418,-3.3418,-3.3574,-3.3691,-3.3691,-3.3691,-3.3691,0.0,0.0,0.0,-3.3418,-3.3203,-3.2969,-3.2715,-3.2695,-3.2695,-3.2695,-3.293,-3.3066,-3.3066,-3.3281,-3.3418,-3.3418,-3.3418,-3.3418,-3.3418,-3.3418,-3.3418,-3.3418,-3.3418,-3.3418,-3.3418,-3.3418,-3.3418,-3.3418,-3.3418,0.0,0.0,-3.3418,0.0,0.0,-3.3144,-3.2949,0.0,0.0,0.0,-3.2109,-3.166,-3.209,-3.2871,-3.3281,-3.3418,-3.3418,-3.3418,-3.3418,-3.3418,-3.3418,-3.3418,-3.3418,-3.3418,0.0,0.0,-3.4023,-3.4336,-3.4629,-3.4805,-3.5176,-3.5465,-3.5317,-3.5865,-3.6256,-3.6062,-3.5984,-3.6091,-3.6248,-3.6152,-3.6016,-3.6016,-3.6016,-3.6016,-3.6016,-3.6016,-3.6016,-3.6016,-3.6016,-3.6287,-3.6654,-3.7975,-3.9561,-4.1377,-4.2143,-4.3279,-4.4915,-4.5184,-4.5671,-4.6326,-4.6878,-4.7405,-4.7933,-4.851,-4.9063,-4.959,-4.959,-4.959,-4.959,-4.959,-5.0232,-5.112,-5.1846,-5.3389,-5.5295,-5.6164,-5.7303,-5.8555,0.0,-3.3418,-3.3437,-3.3496,-3.3809,-3.4082,-3.4141,-3.4141,-3.4141,0.0,-3.3809,-3.3535,-3.3496,-3.3496,-3.3476,-3.3418,-3.3418,-3.3418,-3.3418,-3.3418,-3.3418,-3.3418,-3.3418,-3.3418,-3.3418,-3.3418,-3.3418,-3.3418,-3.3418,-3.3418,-3.3418,-3.3418,-3.3418,-3.3418,-3.3418,-3.3418,-3.3418,-3.3418,-3.3398,-3.3359,-3.3359,-3.332,0.0,0.0,-3.3047,-3.2676,-3.2246,-3.209,-3.2031,-3.1641,-3.2051,-3.2793,-3.3223,-3.3379,-3.3418,-3.3418,-3.3418,-3.3418,-3.3418,-3.3418,-3.3418,-3.3418,-3.3418,0.0,-3.3906,-3.3691,-3.3535,-3.3926,-3.4297,-3.4564,-3.4576,-3.525,-3.5838,-3.5811,-3.587,-3.6043,-3.64,-3.6248,-3.6016,-3.6016,-3.6016,-3.6035,-3.6094,-3.6094,-3.6094,-3.6094,-3.6055,-3.6287,-3.6944,-3.7595,-3.8639,-4.0084,-4.0732,-4.2143,-4.4175,-4.4669,-4.5331,-4.6401,-4.6954,-4.7481,-4.8033,-4.8611,-4.9138,-4.959,-4.959,-4.959,-4.959,-4.959,-5.0104,-5.112,-5.1721,-5.3146,-5.4852,-5.5817,-5.6964,-5.8085,-3.3418,-3.3418,-3.3535,-3.3887,-3.4023,-3.418,-3.4531,-3.457,-3.457,-3.457,-3.4492,-3.4316,-3.3984,-3.3945,-3.3809,-3.3457,-3.3418,-3.3418,-3.3418,-3.3418,-3.3418,-3.3418,-3.3418,-3.3418,-3.3418,-3.3418,-3.3418,-3.3418,-3.3418,-3.3418,-3.3418,-3.3418,-3.3418,-3.3418,-3.3418,-3.3418,-3.3418,-3.3418,-3.3223,-3.291,-3.291,-3.2715,-3.2422,-3.2422,-3.2363,-3.2226,-3.1797,-3.1641,-3.1621,-3.1543,-3.1855,-3.2363,-3.2793,-3.3144,-3.3418,-3.3418,-3.3418,-3.3418,-3.3418,-3.3418,-3.3418,-3.3418,-3.3418,0.0,-3.3535,-3.3476,-3.3437,-3.3535,-3.3613,-3.376,-3.4312,-3.516,-3.6002,-3.6547,-3.6656,-3.6587,-3.6023,-3.6071,-3.6016,-3.6016,-3.6016,-3.6152,-3.6504,-3.6543,-3.6543,-3.6543,-3.6211,-3.6152,-3.6654,-3.6789,-3.7595,-3.9341,-4.0084,-4.1505,-4.3927,-4.4546,-4.5503,-4.6979,-4.7506,-4.8058,-4.8611,-4.9188,-4.949,-4.959,-4.959,-4.959,-4.959,-4.959,-4.9847,-5.0359,-5.0994,-5.2192,-5.351,-5.4497,-5.5789,-5.722,-3.3418,-3.3418,-3.3555,-3.4004,-3.4238,-3.4531,-3.498,-3.5039,-3.5039,-3.5039,-3.4844,-3.4531,-3.4121,-3.4082,-3.3887,-3.3457,-3.3418,-3.3418,-3.3418,-3.3418,-3.3418,-3.3418,-3.3418,-3.3418,-3.3418,-3.3418,-3.3418,-3.3418,-3.3418,-3.3418,-3.3418,-3.3418,-3.3418,-3.3418,-3.3418,-3.3418,-3.3418,-3.3418,-3.3184,-3.2793,-3.2793,-3.2539,-3.2168,-3.2168,-3.2168,-3.2109,-3.168,-3.1387,-3.123,-3.1445,-3.166,-3.1992,-3.2832,-3.3105,-3.3203,-3.3613,-3.3594,-3.3418,-3.3418,-3.3418,-3.3418,-3.3418,-3.3418,0.0,0.0,-3.3262,-3.3105,-3.3105,-3.3281,-3.3485,-3.3769,-3.4572,-3.5348,-3.5763,-3.5983,-3.5881,-3.5771,-3.5825,-3.6051,-3.6248,-3.6152,-3.6113,-3.6328,-3.6348,-3.6348,-3.6348,-3.6152,-3.6016,-3.6268,-3.6268,-3.7079,-3.866,-3.9299,-4.0968,-4.3553,-4.4175,-4.5454,-4.7154,-4.7657,-4.8209,-4.8786,-4.9339,-4.959,-4.959,-4.959,-4.959,-4.959,-4.959,-4.9719,-4.9976,-5.0741,-5.1721,-5.2685,-5.4019,-5.5323,-5.6509,-3.3418,-3.3418,-3.3555,-3.4004,-3.4414,-3.4863,-3.5332,-3.5469,-3.5508,-3.5508,-3.5117,-3.4668,-3.4238,-3.4043,-3.3769,-3.334,-3.3223,-3.3223,-3.3301,-3.3301,-3.3301,-3.3301,-3.3379,-3.3379,-3.3301,-3.3379,-3.3418,-3.3418,-3.3418,-3.3418,-3.3418,-3.3418,-3.3418,-3.3418,-3.3418,-3.3418,0.0,0.0,0.0,-3.2793,-3.2715,-3.248,-3.2168,-3.2168,-3.2109,-3.1992,-3.1543,-3.123,-3.1055,-3.1406,-3.1562,-3.1836,-3.2949,-3.3125,-3.3066,-3.3848,-3.3887,-3.3672,-3.3672,-3.3613,-3.3535,-3.3535,-3.3496,-3.3418,0.0,0.0,0.0,-3.291,-3.3184,-3.3446,-3.3466,-3.4041,-3.4712,-3.498,-3.5118,-3.5382,-3.5718,-3.5771,-3.5825,-3.6222,-3.5955,-3.5937,-3.6016,-3.6172,-3.6269,-3.6269,-3.6191,-3.6152,-3.6152,-3.6074,-3.6674,-3.8109,-3.8772,-4.0581,-4.3279,-4.3903,-4.5256,-4.728,-4.7707,-4.8259,-4.8937,-4.9389,-4.959,-4.959,-4.959,-4.959,-4.959,-4.959,-4.959,-4.9719,-5.0614,-5.1246,-5.197,-5.3537,-5.4706,-5.5761,-3.3418,-3.3418,-3.3555,-3.4004,-3.4414,-3.4863,-3.5332,-3.5703,-3.5957,-3.5957,-3.5586,-3.5137,-3.4668,0.0,0.0,0.0,0.0,-3.248,-3.2832,-3.2871,-3.2871,-3.2871,-3.3223,-3.3242,-3.2871,-3.3242,-3.3418,-3.3418,-3.3418,-3.3418,-3.3418,-3.3418,-3.3418,-3.3418,-3.3418,0.0,0.0,0.0,-3.2832,-3.2754,-3.2383,-3.2207,-3.2168,-3.2168,-3.1934,-3.1543,-3.1113,-3.1172,-3.1445,-3.1504,-3.1777,-3.2187,-3.2695,-3.3086,-3.3437,-3.3926,-3.4297,-3.4551,-3.4551,-3.4277,-3.4004,-3.4004,-3.3711,-3.3418,-3.3418,0.0,-3.3359,-3.3359,0.0,-3.3524,-3.3737,0.0,0.0,-3.5407,-3.5575,-3.5865,-3.6531,-3.5814,-3.528,-3.531,-3.5481,-3.5605,-3.5996,-3.6699,-3.7148,-3.7148,-3.6797,-3.6601,-3.6601,-3.623,-3.6674,-3.8109,-3.8772,-4.0581,-4.3279,-4.3903,-4.5427,-4.7832,-4.7883,-4.846,-4.9515,-4.9565,-4.959,-4.959,-4.959,-4.959,-4.959,-4.959,-4.959,-4.959,-5.0104,-5.0487,-5.0842,-5.197,-5.32,-5.4378,-3.3544,-3.3418,-3.3555,-3.4004,-3.4219,-3.457,-3.5293,-3.5742,-3.6016,-3.6016,-3.5859,-3.5488,0.0,0.0,0.0,0.0,0.0,-3.2871,0.0,0.0,-3.3047,-3.2812,-3.3203,-3.334,-3.3164,-3.332,-3.3418,-3.3418,-3.3418,-3.3418,-3.3418,-3.3418,-3.3418,-3.3418,-3.3418,0.0,-3.3047,0.0,-3.2656,-3.2422,-3.2246,-3.2168,-3.2168,-3.2168,-3.1894,-3.1465,-3.1035,-3.1152,-3.1484,-3.123,-3.1445,-3.1914,-3.2578,-3.291,-3.3242,-3.416,-3.457,-3.4707,-3.4707,-3.457,-3.4375,-3.4141,-3.3945,-3.373,-3.3476,-3.3418,-3.3418,-3.3418,0.0,0.0,0.0,0.0,0.0,0.0,-3.5207,-3.5644,-3.5976,-3.5581,-3.5448,-3.5882,-3.5653,-3.5566,-3.5976,-3.6465,-3.6799,-3.6799,-3.7052,-3.7225,-3.7225,-3.7179,-3.7729,-3.9035,-3.9692,-4.1248,-4.3553,-4.4299,-4.5699,-4.7908,-4.7908,-4.851,-4.959,-4.959,-4.959,-4.959,-4.959,-4.959,-4.959,-4.959,-4.959,-4.959,-4.9719,-4.9976,-5.0487,-5.1622,-5.2711,-5.3631,-3.4173,-3.367,-3.3642,-3.3848,-3.3984,-3.4336,-3.5078,-3.5469,-3.5664,-3.5664,0.0,0.0,-3.4766,-3.4492,0.0,0.0,-3.3379,-3.3164,0.0,0.0,-3.3066,-3.2637,-3.3144,-3.332,-3.3086,-3.3301,-3.3418,-3.3418,-3.3418,-3.3418,-3.3418,-3.3418,-3.3418,-3.3418,0.0,-3.3242,-3.2969,0.0,-3.2793,-3.25,-3.2383,-3.2266,-3.2148,-3.2031,-3.1797,-3.1465,-3.1035,-3.1152,-3.1465,-3.1172,-3.1348,-3.1816,-3.2559,-3.2871,-3.3164,-3.4219,-3.4609,-3.4707,-3.4707,-3.4707,-3.459,-3.418,-3.4211,-3.4073,-3.3642,-3.3769,-3.3974,-3.3974,-3.4199,0.0,0.0,0.0,-3.4584,-3.5105,0.0,-3.5788,-3.5911,-3.5788,-3.579,-3.5881,-3.5435,-3.541,-3.6093,-3.6502,-3.6969,-3.7104,-3.7644,-3.813,-3.8367,-3.8387,-3.8967,-4.0149,-4.0669,-4.1888,-4.3927,-4.4546,-4.5822,-4.7908,-4.7908,-4.851,-4.959,-4.959,-4.959,-4.959,-4.959,-4.959,-4.959,-4.959,-4.959,-4.959,-4.959,-4.9719,-5.0104,-5.112,-5.197,-5.2903,-3.5418,-3.4548,0.0,-3.3437,-3.3789,-3.4219,-3.4648,-3.4726,-3.4746,0.0,0.0,0.0,0.0,0.0,0.0,0.0,0.0,-3.2988,-3.3379,0.0,-3.2637,0.0,0.0,-3.3047,0.0,-3.3008,-3.3418,-3.3418,-3.3418,-3.3418,-3.3418,-3.3418,-3.3418,-3.3418,-3.3418,-3.3418,-3.3398,-3.3398,-3.3398,-3.334,-3.293,-3.2539,-3.2129,-3.1699,-3.1523,-3.1465,-3.1035,-3.1152,-3.1523,-3.1504,-3.1777,-3.2226,-3.2656,-3.3066,-3.3496,-3.3945,-3.4375,-3.4707,-3.4707,-3.4707,-3.459,-3.418,-3.432,-3.4477,-3.4021,-3.4765,-3.5575,-3.5575,-3.6177,-3.6742,-3.6742,-3.6349,-3.6311,-3.6936,-3.6678,0.0,0.0,-3.6746,-3.5911,-3.4608,-3.4606,-3.5191,-3.644,-3.7169,-3.7976,-3.8635,-3.9062,-3.9656,-4.0529,-3.9678,-3.9908,-4.1418,-4.1365,-4.227,-4.4299,-4.4669,-4.5822,-4.7908,-4.7908,-4.851,-4.959,-4.959,-4.959,-4.959,-4.959,-4.959,-4.959,-4.959,-4.959,-4.959,-4.959,-4.959,-4.9719,-4.9976,-5.0741,-5.1846,-3.6746,-3.6258,0.0,0.0,0.0,0.0,-3.459,-3.4707,0.0,0.0,0.0,0.0,0.0,-3.4707,-3.4668,0.0,0.0,-3.3867,-3.3457,-3.3555,0.0,0.0,0.0,-3.3711,0.0,-3.3711,-3.3848,-3.3848,-3.3808,-3.367,0.0,-3.4173,-3.4298,-3.4047,0.0,-3.4298,0.0,0.0,0.0,-3.361,-3.3223,-3.2962,-3.25,-3.1797,-3.1523,-3.1465,-3.1035,-3.1348,-3.1894,-3.1621,-3.1992,-3.2598,-3.2754,-3.3086,-3.3496,-3.3945,-3.4375,-3.4707,-3.4707,-3.4922,-3.5191,-3.5001,-3.5142,-3.534,-3.5692,-3.6078,-3.6352,-3.6603,-3.6834,-3.7065,-3.7065,-3.7313,-3.7434,-3.7703,-3.8387,-3.8649,0.0,-3.7473,-3.6975,-3.6806,-3.666,-3.6689,-3.6994,-3.8109,-3.8891,-3.9422,-4.0345,-4.1195,-4.1741,-4.1791,-4.2212,-4.3032,-4.3247,-4.3778,-4.4915,-4.5306,-4.6339,-4.7908,-4.7908,-4.851,-4.959,-4.959,-4.959,-4.959,-4.959,-4.959,-4.959,-4.959,-4.959,-4.959,-4.959,-4.959,-4.959,-5.0001,-5.0614,-5.1471,-3.7948,-3.7701,0.0,0.0,0.0,0.0,0.0,0.0,0.0,0.0,-3.5019,0.0,-3.4941,0.0,-3.5332,0.0,-3.5039,-3.4707,-3.416,-3.4238,0.0,-3.3281,-3.3769,0.0,-3.3848,-3.4113,-3.4241,-3.3975,-3.4346,-3.4458,0.0,0.0,-3.5149,-3.5149,0.0,-3.5376,-3.5437,-3.5602,-3.5396,-3.4841,-3.4146,-3.3656,-3.3331,-3.2474,-3.2076,-3.1914,-3.1504,-3.1699,-3.2129,-3.1836,-3.2226,-3.2793,-3.2793,-3.3086,-3.3476,-3.375,-3.4152,-3.4367,-3.4367,-3.4961,-3.546,-3.528,-3.5645,-3.6218,-3.6687,-3.7292,-3.787,-3.8292,-3.8715,-3.9117,-3.9294,-3.94,-3.9421,-3.9543,-3.9951,-3.9962,0.0,-3.8766,-3.8545,-3.8739,-3.7885,-3.7419,-3.7845,-3.8808,-3.9715,-4.0467,-4.1693,-4.2639,-4.3332,-4.3687,-4.4159,-4.475,-4.5001,-4.5278,-4.5724,-4.6167,-4.686,-4.7908,-4.8109,-4.8686,-4.959,-4.959,-4.959,-4.959,-4.959,-4.959,-4.959,-4.959,-4.959,-4.959,-4.959,-4.959,-4.959,-4.9847,-5.0359,-5.122,-3.9175,-3.901,0.0,0.0,-3.5915,0.0,0.0,0.0,-3.4586,0.0,-3.4355,-3.4434,-3.5293,-3.541,-3.5586,-3.5996,-3.5664,-3.541,-3.5391,-3.498,0.0,0.0,-3.4121,-3.3945,-3.3642,-3.429,-3.4545,-3.4107,-3.5118,-3.5602,0.0,0.0,-3.6237,-3.6502,-3.6502,0.0,-3.7271,-3.7719,-3.7424,-3.6729,-3.5456,-3.4838,-3.4553,-3.3981,-3.3457,-3.2917,-3.2446,-3.2187,-3.2207,-3.2207,-3.248,-3.2832,-3.2832,-3.3105,-3.3418,-3.3418,-3.367,-3.3922,-3.4047,-3.4745,-3.5493,-3.5189,-3.6019,-3.7121,-3.7205,-3.8398,-3.9818,-4.0709,-4.1853,-4.2715,-4.3286,-4.2555,-4.1895,-4.2257,-4.1377,-4.0803,-4.0803,-4.0803,-4.0663,-4.0292,-3.843,-3.7584,-3.8707,-3.9567,-4.059,-4.1986,-4.2849,-4.3867,-4.502,-4.5194,-4.5586,-4.6372,-4.6548,-4.6557,-4.6687,-4.7184,-4.7683,-4.7958,-4.851,-4.9063,-4.959,-4.959,-4.959,-4.959,-4.959,-4.959,-4.959,-4.959,-4.959,-4.959,-4.959,-4.959,-4.959,-4.959,-4.9976,-5.0715,-4.2158,-4.1757,-4.1111,0.0,-3.8043,-3.6434,0.0,0.0,0.0,0.0,-3.474,-3.4766,-3.5332,-3.5664,-3.5898,-3.6016,-3.5918,0.0,0.0,0.0,0.0,-3.4961,-3.5258,-3.5639,-3.6042,-3.597,-3.6044,-3.6411,-3.6476,-3.663,-3.6868,-3.791,-3.8149,-3.7812,-3.8291,-3.8761,-3.9095,-3.9228,-3.9176,-3.8825,-3.8114,-3.7377,-3.6834,-3.5998,-3.5645,-3.5355,-3.3274,-3.2607,-3.2637,-3.2637,-3.291,-3.3262,-3.3513,-3.3697,-3.3922,-3.4423,-3.4548,-3.4797,-3.5273,-3.5853,-3.6436,-3.7057,-3.7616,-3.8618,-4.0309,-4.0999,-4.1583,-4.2611,-4.3378,-4.3788,-4.3525,-4.3505,-4.3313,-4.3022,-4.2311,-4.1859,-4.2061,-4.1606,-4.1378,-4.1239,-4.0526,-4.0104,-4.0278,-4.1126,-4.1794,-4.2399,-4.353,-4.4427,-4.5058,-4.6068,-4.6687,-4.696,-4.7334,-4.7608,-4.7583,-4.7733,-4.8008,-4.856,-4.8711,-4.9063,-4.959,-4.959,-4.959,-4.959,-4.959,-4.959,-4.959,-4.959,-4.959,-4.959,-4.959,-4.959,-4.959,-4.9847,-5.0104,-5.0359,-4.3413,-4.3183,0.0,-4.2518,0.0,0.0,-3.7678,-3.6621,0.0,-3.5972,-3.5639,0.0,-3.6142,-3.642,-3.6423,-3.6423,-3.6539,0.0,-3.6336,0.0,0.0,-3.6466,-3.6395,-3.6679,-3.7467,-3.729,-3.7318,-3.7591,-3.8043,-3.8274,-3.841,-3.9357,-3.9709,-3.9474,-3.9826,-4.0269,-4.0699,-4.0785,-4.093,-4.0944,-4.0095,-3.9333,0.0,-3.8043,-3.7378,-3.6678,-3.5286,-3.433,-3.3937,-3.3937,-3.4097,-3.4298,-3.4548,-3.4673,-3.4901,-3.5273,-3.5644,-3.6013,-3.638,-3.704,-3.7846,-3.8331,-3.9115,-4.0181,-4.1704,-4.228,-4.288,-4.4037,-4.4524,-4.4767,-4.4448,-4.4126,-4.3653,-4.2865,-4.2673,-4.2538,-4.2762,-4.2202,-4.1903,-4.215,-4.184,-4.1687,-4.174,-4.2038,-4.2493,-4.2964,-4.4077,-4.4878,-4.5235,-4.6631,-4.7355,-4.7154,-4.8109,-4.8535,-4.8284,-4.8761,-4.9163,-4.949,-4.949,-4.9665,-4.9941,-4.9715,-4.959,-4.959,-4.959,-4.959,-4.959,-4.959,-4.959,-4.959,-4.959,-4.959,-4.959,-4.9847,-4.9847,-4.9976,-4.3979,-4.4394,0.0,0.0,0.0,0.0,-3.9538,-3.8509,-3.7905,-3.7315,0.0,-3.6729,-3.7368,-3.7294,-3.7334,-3.751,-3.7779,-3.7893,-3.7831,-3.7831,-3.8058,-3.8242,-3.7757,-3.7812,-3.8463,-3.8571,-3.8597,-3.8653,-3.959,-4.0032,-3.9966,-4.0663,-4.1033,-4.1263,-4.1263,-4.1601,-4.2179,-4.24,-4.2831,-4.3164,-4.1828,-4.0974,-4.0398,-3.989,-3.8971,-3.789,-3.789,-3.6832,-3.5541,-3.5541,-3.5541,-3.5541,-3.5665,-3.589,-3.6114,-3.6237,-3.6967,-3.7594,-3.778,-3.8619,-3.959,-3.9636,-4.074,-4.1827,-4.2228,-4.3203,-4.419,-4.4997,-4.541,-4.5673,-4.5522,-4.4568,-4.3463,-4.2434,-4.271,-4.3062,-4.2986,-4.2635,-4.2484,-4.2836,-4.2434,0.0,-4.271,-4.2633,-4.2774,-4.3258,-4.4394,-4.5135,-4.5372,-4.6979,-4.7657,-4.7154,-4.8736,-4.9364,-4.8887,-4.9891,-5.0444,-5.0519,-5.0444,-5.0419,-5.0393,-4.9841,-4.959,-4.959,-4.959,-4.959,-4.959,-4.959,-4.959,-4.959,-4.959,-4.959,-4.959,-4.959,-4.959,-4.959,-4.7007,0.0,0.0,0.0,0.0,-4.4659,-4.3781,-4.077,-3.8698,-3.868,-3.7838,-3.7757,-3.8854,-3.8709,-3.8854,-3.95,-3.9657,-3.9647,-3.9516,-3.9495,-3.946,-3.9451,-3.9606,-4.0083,-4.1136,-4.0615,-4.0709,-4.1489,-4.1117,-4.099,-4.1239,-4.1948,-4.2061,-4.1972,-4.2199,-4.2627,-4.335,-4.3423,-4.389,-4.4426,-4.324,-4.2856,-4.283,-4.2041,-4.1589,-4.1349,-4.1084,-3.8963,-3.6258,-3.6258,-3.6258,-3.6258,-3.6868,-3.6989,-3.721,-3.8268,-3.8744,-3.9094,-4.048,-4.0952,-4.1306,-4.2351,-4.278,-4.3211,-4.4245,-4.4655,-4.4997,-4.593,-4.6527,-4.6577,-4.5648,-4.4568,-4.3589,-4.2936,-4.3288,-4.3489,-4.3037,-4.3288,-4.3212,-4.2384,-4.2208,-4.2007,-4.1656,-4.2424,-4.2887,-4.3025,-4.4026,-4.4653,-4.4769,-4.6778,-4.7657,-4.7154,-4.8736,-4.954,-4.9464,-5.0092,-5.067,-5.1122,-5.0645,-5.0419,-5.0393,-4.9841,-4.959,-4.959,-4.959,-4.959,-4.959,-4.959,-4.959,-4.959,-4.959,-4.959,-4.959,-4.959,-4.959,-4.959,-4.7807,0.0,0.0,0.0,-4.691,-4.6287,-4.5493,-4.3781,-4.2212,-4.1013,-4.0454,-4.0496,-4.1107,-4.1017,-4.1125,-4.1477,-4.1902,-4.2082,-4.1994,-4.1727,-4.1614,-4.1759,-4.1254,-4.1527,-4.2546,-4.218,-4.2131,-4.2735,-4.2117,-4.1948,-4.2037,-4.1941,-4.2102,-4.2538,-4.2924,-4.3522,-4.4202,-4.4501,-4.4606,-4.466,-4.4438,-4.422,-4.3839,-4.3451,-4.3093,-4.2855,-4.2616,-4.1398,-3.9636,-3.9273,-3.9152,-3.9273,-3.9538,-3.9779,-4.002,-4.0618,-4.1117,-4.1543,-4.2279,-4.2705,-4.3013,-4.3634,-4.4166,-4.4556,-4.5185,-4.546,-4.576,-4.625,-4.6527,-4.6276,-4.4869,-4.4166,-4.3614,-4.3062,-4.3438,-4.3815,-4.384,-4.3815,-4.3489,-4.2685,-4.2333,-4.2057,-4.1781,-4.2233,-4.2559,-4.2559,-4.384,-4.4618,-4.4618,-4.6451,-4.738,-4.7154,-4.8736,-4.959,-4.959,-5.0444,-5.0996,-5.1272,-5.0695,-5.0419,-5.0393,-4.9841,-4.959,-4.959,-4.959,-4.959,-4.959,-4.959,-4.959,-4.959,-4.959,-4.959,-4.959,-4.959,-4.9766,-5.0017,0.0,-4.8259,0.0,0.0,-4.7658,-4.7507,-4.6784,-4.6524,-4.5605,-4.3646,-4.3248,-4.3258,-4.3504,-4.3526,-4.3439,-4.3686,-4.4239,-4.4457,-4.4495,-4.41,-4.3951,-4.4091,-4.3206,-4.3078,-4.3844,-4.3716,-4.3675,-4.3737,-4.3119,-4.28,-4.28,-4.2048,-4.2158,-4.2986,-4.3438,-4.3991,-4.4644,-4.4995,-4.507,-4.502,-4.5347,-4.5178,-4.4668,-4.4668,-4.4289,-4.3934,-4.3934,-4.379,-4.3408,-4.2904,-4.2399,-4.1969,-4.2089,-4.2353,-4.2496,-4.2735,-4.3093,-4.3497,-4.3737,-4.4116,-4.4519,-4.4618,-4.511,-4.5673,-4.5673,-4.5999,-4.6301,-4.6301,-4.6225,-4.5723,-4.4392,-4.4066,-4.384,-4.3388,-4.3689,-4.4091,-4.4392,-4.4066,-4.3589,-4.3037,-4.2384,-4.2032,-4.2158,-4.2057,-4.2032,-4.2158,-4.3589,-4.4493,-4.4618,-4.61,-4.7004,-4.7129,-4.8636,-4.9464,-4.959,-5.0594,-5.1147,-5.1272,-5.0695,-5.0419,-5.0393,-4.9841,-4.959,-4.959,-4.959,-4.959,-4.959,-4.959,-4.959,-4.959,-4.959,-4.959,-4.9615,-4.9715,-5.0042,-5.0444,-4.9339,0.0,-4.9414,-4.9364,-4.8732,-4.8327,-4.8774,-4.8194,-4.7213,-4.5886,-4.5066,-4.4995,-4.5752,-4.5536,-4.5747,-4.6461,-4.6508,-4.6584,-4.6501,-4.6405,-4.6189,-4.5862,-4.5917,-4.6032,-4.5895,-4.5625,-4.547,-4.5279,-4.4152,-4.3714,-4.3714,-4.3112,-4.2886,-4.2986,-4.3037,-4.3639,-4.4593,-4.4141,-4.4794,-4.6125,-4.5673,-4.5748,-4.615,-4.615,-4.603,-4.603,-4.603,-4.603,-4.591,-4.591,-4.4495,-4.2711,-4.3093,-4.3235,-4.3354,-4.3826,-4.406,-4.4302,-4.5035,-4.5304,-4.5522,-4.6024,-4.62,-4.6225,-4.6225,-4.6276,-4.6301,-4.6301,-4.5924,-4.5522,-4.5372,-4.4895,-4.4543,-4.4468,-4.4518,-4.4392,-4.394,-4.384,-4.3589,-4.3037,-4.2057,-4.1605,-4.2108,-4.1706,-4.163,-4.2108,-4.3212,-4.4091,-4.4593,-4.5748,-4.6627,-4.7104,-4.8259,-4.9088,-4.959,-5.0193,-5.077,-5.1272,-5.0695,-5.0419,-5.0393,-4.9841,-4.959,-4.959,-4.959,-4.959,-4.959,-4.959,-4.959,-4.959,-4.959,-4.959,-4.9665,-5.0167,-5.0368,-5.0569,-4.949,-4.959,-4.949,-4.9163,-4.906,-4.9085,-4.8985,-4.8932,-4.8675,-4.8194,-4.7499,-4.7206,-4.7555,-4.7579,-4.7544,-4.787,-4.8158,-4.8167,-4.8101,-4.7912,-4.7641,-4.742,-4.6974,-4.683,-4.6985,-4.6886,-4.6487,-4.5974,-4.5196,-4.4644,-4.4267,-4.3388,-4.3338,-4.3991,-4.4317,-4.4719,-4.5146,-4.5246,-4.5497,-4.5824,-4.5949,-4.6125,-4.6301,-4.6301,-4.6301,-4.6301,-4.6301,-4.6301,-4.6301,-4.6301,-4.564,-4.4907,-4.5052,-4.5052,-4.5171,-4.541,-4.541,-4.5579,-4.5924,-4.5974,-4.6024,-4.625,-4.6301,-4.6301,-4.6301,-4.6301,-4.6301,-4.6301,-4.6125,-4.5874,-4.5547,-4.5296,-4.5146,-4.5146,-4.5146,-4.507,-4.4844,-4.4819,-4.4468,-4.3589,-4.2785,-4.2409,-4.2635,-4.2158,-4.2183,-4.3062,-4.3564,-4.4041,-4.4593,-4.5372,-4.6376,-4.7556,-4.8686,-4.9364,-4.959,-5.0494,-5.072,-5.0268,-5.0042,-4.9916,-4.9916,-4.969,-4.959,-4.959,-4.959,-4.959,-4.959,-4.959,-4.959,-4.959,-4.959,-4.9791,-5.0117,-5.0343,-5.0845,-5.1498,-4.9515,-4.959,-4.9464,-4.9088,-4.9339,-4.9464,-4.9063,-4.9339,-4.959,-4.959,-4.9227,-4.8837,-4.8837,-4.8837,-4.8837,-4.8837,-4.9072,-4.9202,-4.9202,-4.8828,-4.8629,-4.8629,-4.8128,-4.783,-4.7933,-4.7933,-4.7483,-4.6778,-4.6075,-4.5522,-4.5095,-4.3991,-4.3966,-4.4895,-4.5296,-4.5673,-4.5999,-4.6376,-4.6426,-4.6225,-4.6451,-4.6552,-4.6552,-4.6552,-4.6552,-4.6577,-4.6728,-4.6677,-4.6552,-4.6552,-4.6451,-4.6301,-4.6301,-4.6301,-4.6301,-4.6301,-4.6301,-4.6301,-4.6301,-4.6301,-4.6301,-4.6301,-4.6301,-4.6301,-4.6301,-4.6301,-4.6301,-4.6301,-4.6301,-4.62,-4.5799,-4.5723,-4.5723,-4.5723,-4.5598,-4.5422,-4.5246,-4.5095,-4.4744,-4.4116,-4.3263,-4.2986,-4.3664,-4.2911,-4.2861,-4.3966,-4.4041,-4.4292,-4.4844,-4.5422,-4.6401,-4.7857,-4.9012,-4.9665,-4.9841,-5.0619,-5.0619,-4.9841,-4.9665,-4.959,-4.959,-4.959,-4.959,-4.959,-4.959,-4.959,-4.959,-4.959,-4.959,-4.959,-4.959,-4.9941,-5.0444,-5.0619,-5.1272,-5.2126,-4.959,-4.959,-4.959,-4.959,-4.959,-4.959,-4.959,-4.959,-4.959,-4.959,-4.959,-4.959,-4.959,-4.959,-4.959,-4.959,-4.959,-4.959,-4.959,-4.959,-4.959,-4.959,-4.9565,-4.9314,-4.8786,-4.8761,-4.8485,-4.7883,-4.6828,-4.6301,-4.6276,-4.5121,-4.492,-4.5472,-4.5497,-4.61,-4.7104,-4.7129,-4.7405,-4.7832,-4.733,-4.7129,-4.7129,-4.7129,-4.7129,-4.7205,-4.7707,-4.7556,-4.7129,-4.7129,-4.6753,-4.6301,-4.6301,-4.6301,-4.6301,-4.6301,-4.6301,-4.6301,-4.6301,-4.6301,-4.6301,-4.6301,-4.6301,-4.6301,-4.6301,-4.6301,-4.6301,-4.6301,-4.6301,-4.6301,-4.6301,-4.6301,-4.6301,-4.6301,-4.5849,-4.5296,-4.4719,-4.4166,-4.4016,-4.4543,-4.3162,-4.3037,-4.5246,-4.394,-4.3413,-4.4543,-4.4618,-4.4869,-4.5447,-4.5999,-4.6803,-4.7883,-4.9012,-4.9866,-5.0393,-5.0419,-5.0419,-5.0393,-4.9866,-4.959,-4.959,-4.959,-4.959,-4.959,-4.959,-4.959,-4.959,-4.959,-4.959,-4.959,-4.959,-4.9941,-5.0494,-5.1046,-5.1624,-5.2176,-4.959,-4.959,-4.959,-4.959,-4.959,-4.959,-4.959,-4.959,-4.959,-4.959,-4.959,-4.959,-4.959,-4.959,-4.959,-4.959,-4.959,-4.959,-4.959,-4.959,-4.959,-4.959,-4.959,-4.9515,-4.9339,-4.9339,-4.9063,-4.8485,-4.8159,-4.7782,-4.738,-4.7029,-4.6954,-4.7129,-4.7129,-4.733,-4.7657,-4.7657,-4.7757,-4.7883,-4.7732,-4.7657,-4.7657,-4.7657,-4.7657,-4.7682,-4.7857,-4.7807,-4.7657,-4.7657,-4.7531,-4.7405,-4.7405,-4.6903,-4.6301,-4.6301,-4.6301,-4.6301,-4.6301,-4.6301,-4.6301,-4.6301,-4.6301,-4.6301,-4.6301,-4.6301,-4.6301,-4.6301,-4.6301,-4.6301,-4.6301,-4.6301,-4.6301,-4.6301,-4.6175,-4.5723,-4.4769,-4.4819,-4.4869,-4.4644,-4.384,-4.3714,-4.4794,-4.374,-4.3438,-4.4543,-4.4995,-4.5447,-4.6024,-4.6225,-4.7154,-4.8987,-4.9766,-5.0419,-5.0996,-5.0996,-5.082,-5.0419,-4.9866,-4.9719,-4.9976,-5.0232,-5.0232,-5.0232,-4.9976,-5.0001,-4.9847,-4.9719,-4.959,-4.964,-5.0017,-5.0494,-5.1071,-5.1624,-5.2201,-5.2678,-4.959,-4.959,-4.959,-4.959,-4.959,-4.959,-4.959,-4.959,-4.959,-4.959,-4.959,-4.959,-4.959,-4.959,-4.959,-4.959,-4.959,-4.959,-4.959,-4.959,-4.959,-4.959,-4.959,-4.959,-4.959,-4.959,-4.9414,-4.9088,-4.8862,-4.8485,-4.7908,-4.7908,-4.8033,-4.8234,-4.8234,-4.836,-4.8535,-4.8535,-4.8535,-4.8535,-4.8309,-4.8234,-4.8234,-4.8234,-4.8234,-4.8259,-4.846,-4.841,-4.8234,-4.8234,-4.8083,-4.7908,-4.7908,-4.7456,-4.6903,-4.6903,-4.6903,-4.6903,-4.6903,-4.6903,-4.6903,-4.6903,-4.6903,-4.6853,-4.6677,-4.6451,-4.6301,-4.6301,-4.6301,-4.6301,-4.6301,-4.6301,-4.6301,-4.6301,-4.6301,-4.5924,-4.4794,-4.5121,-4.5271,-4.4694,-4.4317,-4.4418,-4.5171,-4.4443,-4.4292,-4.5196,-4.5598,-4.6024,-4.6602,-4.6803,-4.7531,-4.8912,-4.9715,-5.0393,-5.0946,-5.1103,-5.0902,-5.055,-5.0254,-5.0359,-5.0842,-5.1094,-5.122,-5.1094,-5.0968,-5.0741,-5.0614,-5.0487,-5.0334,-5.041,-5.0946,-5.1532,-5.2119,-5.2654,-5.3215,-5.37,-4.959,-4.959,-4.959,-4.959,-4.959,-4.959,-4.959,-4.959,-4.959,-4.959,-4.959,-4.959,-4.959,-4.959,-4.959,-4.959,-4.959,-4.959,-4.959,-4.959,-4.959,-4.959,-4.959,-4.959,-4.959,-4.959,-4.959,-4.959,-4.9088,-4.856,-4.8033,-4.8033,-4.8309,-4.8837,-4.8837,-4.9113,-4.959,-4.959,-4.959,-4.9565,-4.9038,-4.8837,-4.8837,-4.8837,-4.8837,-4.8887,-4.9414,-4.9264,-4.8837,-4.8837,-4.846,-4.8033,-4.8033,-4.8033,-4.8008,-4.7933,-4.7908,-4.7908,-4.7908,-4.7908,-4.7908,-4.7908,-4.7908,-4.7782,-4.7305,-4.6803,-4.6426,-4.6426,-4.6426,-4.6426,-4.6426,-4.6401,-4.6376,-4.6376,-4.6326,-4.5924,-4.4844,-4.5171,-4.5321,-4.4744,-4.4694,-4.5095,-4.615,-4.5748,-4.5673,-4.6276,-4.6351,-4.6602,-4.7154,-4.7682,-4.7983,-4.8033,-4.9088,-4.9916,-5.0469,-5.0836,-5.0916,-5.102,-5.1252,-5.1596,-5.2192,-5.2192,-5.2315,-5.2315,-5.2192,-5.2068,-5.1721,-5.1721,-5.1747,-5.1826,-5.2402,-5.2979,-5.3555,-5.4132,-5.4682,-5.5153,-4.959,-4.959,-4.959,-4.959,-4.959,-4.959,-4.959,-4.959,-4.959,-4.959,-4.959,-4.959,-4.959,-4.959,-4.959,-4.959,-4.959,-4.959,-4.959,-4.959,-4.959,-4.959,-4.959,-4.959,-4.959,-4.959,-4.959,-4.959,-4.9464,-4.9339,-4.9188,-4.9188,-4.9264,-4.9389,-4.9389,-4.9464,-4.959,-4.959,-4.959,-4.959,-4.9464,-4.9389,-4.9389,-4.9389,-4.9389,-4.9414,-4.954,-4.9515,-4.9389,-4.9389,-4.9314,-4.9188,-4.9188,-4.9188,-4.9038,-4.8159,-4.7908,-4.7908,-4.7908,-4.7908,-4.7908,-4.7908,-4.7908,-4.7883,-4.7757,-4.7631,-4.7531,-4.7531,-4.7531,-4.7531,-4.7531,-4.7205,-4.6928,-4.6928,-4.6577,-4.6075,-4.5372,-4.5773,-4.5899,-4.5347,-4.5271,-4.5397,-4.5648,-4.5171,-4.5246,-4.6225,-4.6702,-4.7154,-4.7682,-4.8259,-4.8761,-4.9188,-4.9866,-5.0625,-5.1443,-5.1405,-5.146,-5.1779,-5.2615,-5.3025,-5.3146,-5.3631,-5.3899,-5.3899,-5.3389,-5.3146,-5.3025,-5.2562,-5.2607,-5.3058,-5.3615,-5.4198,-5.4781,-5.5391,-5.5683,-5.5815,-4.959,-4.959,-4.959,-4.959,-4.959,-4.959,-4.959,-4.959,-4.959,-4.959,-4.959,-4.959,-4.959,-4.959,-4.959,-4.959,-4.959,-4.959,-4.959,-4.959,-4.959,-4.959,-4.959,-4.959,-4.959,-4.959,-4.959,-4.959,-4.959,-4.959,-4.959,-4.959,-4.959,-4.959,-4.959,-4.959,-4.959,-4.959,-4.959,-4.959,-4.959,-4.959,-4.959,-4.959,-4.959,-4.959,-4.959,-4.959,-4.959,-4.959,-4.959,-4.959,-4.959,-4.959,-4.9464,-4.8862,-4.8686,-4.8686,-4.8686,-4.8686,-4.8686,-4.8686,-4.8485,-4.8309,-4.8309,-4.8109,-4.7908,-4.7908,-4.7908,-4.7908,-4.7908,-4.7682,-4.7405,-4.7179,-4.6878,-4.6401,-4.5598,-4.5974,-4.61,-4.5547,-4.5924,-4.6225,-4.6225,-4.6175,-4.6376,-4.6979,-4.733,-4.7606,-4.7883,-4.846,-4.8912,-4.9213,-4.9515,-5.0071,-5.1017,-5.1486,-5.2161,-5.2929,-5.3752,-5.435,-5.4825,-5.5295,-5.5556,-5.5556,-5.5178,-5.5082,-5.5214,-5.4884,-5.5122,-5.5728,-5.6307,-5.6748,-5.7106,-5.774,-5.7961,-5.7961,-4.959,-4.959,-4.959,-4.959,-4.959,-4.959,-4.959,-4.959,-4.959,-4.959,-4.959,-4.959,-4.959,-4.959,-4.959,-4.959,-4.959,-4.959,-4.959,-4.959,-4.959,-4.959,-4.959,-4.959,-4.959,-4.959,-4.959,-4.959,-4.959,-4.959,-4.959,-4.959,-4.959,-4.959,-4.959,-4.959,-4.959,-4.959,-4.959,-4.959,-4.959,-4.959,-4.959,-4.959,-4.959,-4.959,-4.959,-4.959,-4.959,-4.959,-4.959,-4.959,-4.959,-4.959,-4.959,-4.959,-4.959,-4.959,-4.959,-4.959,-4.959,-4.959,-4.9238,-4.8887,-4.8887,-4.851,-4.8159,-4.8159,-4.8159,-4.8159,-4.8159,-4.8083,-4.7857,-4.733,-4.7255,-4.6878,-4.5773,-4.6075,-4.625,-4.5799,-4.6577,-4.7154,-4.7255,-4.7657,-4.7933,-4.8033,-4.8033,-4.8083,-4.8159,-4.8636,-4.8887,-4.8887,-4.8887,-4.9368,-5.0232,-5.1622,-5.2956,-5.4139,-5.4852,-5.5701,-5.6509,-5.6937,-5.7193,-5.7193,-5.7195,-5.7427,-5.7656,-5.7656,-5.8029,-5.866,-5.9205,-5.9463,-5.9606,-6.003,-6.0259,-6.0259,-4.959,-4.959,-4.959,-4.959,-4.959,-4.959,-4.959,-4.959,-4.959,-4.959,-4.959,-4.959,-4.959,-4.959,-4.959,-4.959,-4.959,-4.959,-4.959,-4.959,-4.959,-4.959,-4.959,-4.959,-4.959,-4.959,-4.959,-4.959,-4.959,-4.959,-4.959,-4.959,-4.959,-4.959,-4.959,-4.959,-4.959,-4.959,-4.959,-4.959,-4.959,-4.959,-4.959,-4.959,-4.959,-4.959,-4.959,-4.959,-4.959,-4.959,-4.959,-4.959,-4.959,-4.959,-4.959,-4.959,-4.959,-4.959,-4.959,-4.959,-4.959,-4.959,-4.954,-4.9464,-4.9464,-4.9389,-4.9339,-4.9339,-4.9339,-4.9339,-4.9339,-4.8962,-4.846,-4.7883,-4.7782,-4.7405,-4.6326,-4.6652,-4.6979,-4.6878,-4.7029,-4.7305,-4.7732,-4.7857,-4.8109,-4.8611,-4.8636,-4.8837,-4.9314,-4.9414,-4.9464,-4.9464,-4.9464,-4.99,-5.0994,-5.2615,-5.3685,-5.4378,-5.5933,-5.6737,-5.722,-5.8307,-5.8796,-5.8825,-5.9156,-5.9333,-5.9306,-5.9074,-5.9335,-5.9885,-6.0001,-6.0378,-6.0841,-6.0928,-6.0957,-6.0957,-4.959,-4.959,-4.959,-4.959,-4.959,-4.959,-4.959,-4.959,-4.959,-4.959,-4.959,-4.959,-4.959,-4.959,-4.959,-4.959,-4.959,-4.959,-4.959,-4.959,-4.959,-4.959,-4.959,-4.959,-4.959,-4.959,-4.959,-4.959,-4.959,-4.959,-4.959,-4.959,-4.959,-4.959,-4.959,-4.959,-4.959,-4.959,-4.959,-4.959,-4.959,-4.959,-4.959,-4.959,-4.959,-4.959,-4.959,-4.959,-4.959,-4.959,-4.959,-4.959,-4.959,-4.959,-4.959,-4.959,-4.959,-4.959,-4.959,-4.959,-4.959,-4.959,-4.959,-4.959,-4.959,-4.959,-4.959,-4.959,-4.959,-4.959,-4.959,-4.9389,-4.9038,-4.846,-4.836,-4.8083,-4.728,-4.738,-4.7556,-4.7556,-4.7832,-4.8109,-4.836,-4.8636,-4.8937,-4.9188,-4.9213,-4.9314,-4.959,-4.959,-4.959,-4.959,-4.9719,-5.0232,-5.0867,-5.2342,-5.3443,-5.4259,-5.6361,-5.7598,-5.8195,-5.9546,-6.0179,-6.0209,-6.0393,-6.0605,-6.0931,-6.0816,-6.12,-6.1761,-6.1791,-6.1968,-6.2204,-6.2204,-6.2204,-6.2204,-4.959,-4.959,-4.959,-4.959,-4.959,-4.959,-4.959,-4.959,-4.964,-4.9766,-4.9791,-4.9841,-4.9967,-4.9992,-4.9992,-4.9992,-4.9992,-4.9992,-4.9992,-4.9866,-4.9715,-4.9615,-4.959,-4.959,-4.959,-4.959,-4.959,-4.959,-4.959,-4.959,-4.959,-4.959,-4.959,-4.959,-4.959,-4.959,-4.959,-4.959,-4.959,-4.959,-4.959,-4.959,-4.959,-4.959,-4.959,-4.959,-4.959,-4.959,-4.959,-4.959,-4.959,-4.959,-4.959,-4.959,-4.959,-4.959,-4.959,-4.959,-4.959,-4.959,-4.959,-4.959,-4.959,-4.959,-4.959,-4.959,-4.959,-4.959,-4.959,-4.959,-4.959,-4.959,-4.9414,-4.8862,-4.8887,-4.8711,-4.8008,-4.8033,-4.8109,-4.8109,-4.851,-4.8812,-4.8962,-4.9339,-4.959,-4.959,-4.959,-4.959,-4.959,-4.959,-4.959,-4.959,-5.0001,-5.0232,-5.0487,-5.1846,-5.301,-5.409,-5.6467,-5.809,-5.9094,-6.0565,-6.1231,-6.1343,-6.1493,-6.1852,-6.2331,-6.2331,-6.263,-6.3079,-6.3079,-6.3079,-6.3079,-6.3079,-6.3079,-6.3079,-4.959,-4.959,-4.959,-4.959,-4.959,-4.959,-4.959,-4.959,-4.9766,-5.0293,-5.0368,-5.0569,-5.1096,-5.1147,-5.1147,-5.1147,-5.1147,-5.1147,-5.1147,-5.0645,-5.0117,-4.9615,-4.959,-4.959,-4.959,-4.959,-4.959,-4.959,-4.959,-4.959,-4.959,-4.959,-4.959,-4.959,-4.959,-4.959,-4.959,-4.959,-4.959,-4.959,-4.959,-4.959,-4.959,-4.959,-4.959,-4.959,-4.959,-4.959,-4.959,-4.959,-4.959,-4.959,-4.959,-4.959,-4.959,-4.959,-4.959,-4.959,-4.959,-4.959,-4.959,-4.959,-4.959,-4.959,-4.959,-4.959,-4.959,-4.959,-4.959,-4.959,-4.959,-4.959,-4.9414,-4.8862,-4.9213,-4.9163,-4.8058,-4.836,-4.8711,-4.8711,-4.8736,-4.8962,-4.949,-4.9565,-4.959,-4.959,-4.959,-4.959,-4.959,-4.959,-4.959,-4.959,-5.0001,-5.0129,-5.0129,-5.1497,-5.2855,-5.4447,-5.6073,-5.7856,-5.9653,-6.099,-6.1774,-6.2061,-6.266,-6.2959,-6.3019,-6.3019,-6.3019,-6.3079,-6.3079,-6.3079,-6.3079,-6.3079,-6.3079,-6.3079,-4.959,-4.959,-4.959,-4.959,-4.9866,-5.0117,-5.0117,-5.0419,-5.072,-5.0921,-5.0946,-5.1046,-5.1247,-5.1272,-5.1272,-5.1272,-5.1272,-5.1272,-5.1272,-5.1071,-5.0544,-4.964,-4.959,-4.959,-4.959,-4.959,-4.959,-4.959,-4.959,-4.959,-4.959,-4.959,-4.959,-4.959,-4.959,-4.959,-4.9615,-4.9967,-5.0117,-5.0142,-5.0494,-5.0645,-5.0645,-5.0645,-5.0645,-5.0645,-5.0645,-5.0645,-5.0645,-5.0645,-5.0393,-5.0117,-5.0117,-4.9866,-4.959,-4.959,-4.959,-4.959,-4.959,-4.959,-4.959,-4.959,-4.959,-4.959,-4.959,-4.959,-4.959,-4.959,-4.959,-4.959,-4.959,-4.959,-4.9515,-4.9314,-4.9464,-4.9439,-4.9012,-4.9138,-4.9289,-4.9289,-4.9289,-4.9364,-4.9565,-4.959,-4.959,-4.959,-4.959,-4.959,-4.959,-4.959,-4.959,-4.959,-5.0046,-5.0247,-5.0247,-5.1382,-5.266,-5.4073,-5.6565,-5.8355,-5.9711,-6.1438,-6.2344,-6.272,-6.2959,-6.3079,-6.3079,-6.3079,-6.3079,-6.3079,-6.3079,-6.3079,-6.3079,-6.3079,-6.3079,-6.3079,-4.9856,-4.9987,-4.9987,-5.0117,-5.0444,-5.0695,-5.0695,-5.1021,-5.1348,-5.1523,-5.1548,-5.1599,-5.1774,-5.18,-5.18,-5.18,-5.18,-5.18,-5.18,-5.1624,-5.1122,-5.0167,-5.0117,-5.0117,-5.0117,-5.0117,-5.0117,-5.0117,-5.0117,-5.0117,-5.0117,-5.0117,-5.0117,-5.0117,-5.0117,-5.0117,-5.0142,-5.0519,-5.0695,-5.072,-5.1122,-5.1272,-5.1272,-5.1272,-5.1272,-5.1272,-5.1272,-5.1272,-5.1272,-5.1272,-5.1021,-5.0695,-5.0695,-5.0293,-4.9816,-4.964,-4.959,-4.959,-4.959,-4.959,-4.959,-4.959,-4.959,-4.959,-4.959,-4.959,-4.959,-4.959,-4.959,-4.959,-4.959,-4.959,-4.959,-4.959,-4.959,-4.959,-4.959,-4.959,-4.959,-4.959,-4.959,-4.959,-4.959,-4.959,-4.959,-4.959,-4.959,-4.959,-4.959,-4.959,-4.9665,-4.9841,-5.0218,-5.0594,-5.0946,-5.1558,-5.2621,-5.3945,-5.6358,-5.8306,-5.975,-6.1556,-6.2498,-6.2963,-6.3079,-6.3079,-6.3079,-6.3079,-6.3079,-6.3079,-6.3079,-6.3079,-6.3079,-6.3079,-6.3079,-6.3079,-5.0553,-5.0687,-5.0846,-5.1272,-5.1272,-5.1297,-5.1297,-5.1297,-5.1498,-5.2051,-5.2126,-5.2327,-5.2879,-5.2929,-5.2929,-5.2929,-5.2929,-5.2929,-5.2929,-5.2427,-5.1875,-5.1322,-5.1297,-5.1272,-5.1272,-5.1272,-5.1272,-5.1272,-5.1272,-5.1272,-5.1272,-5.1272,-5.1272,-5.1272,-5.1272,-5.1272,-5.1272,-5.1297,-5.1297,-5.1297,-5.1297,-5.1297,-5.1297,-5.1297,-5.1297,-5.1297,-5.1297,-5.1297,-5.1297,-5.1297,-5.1297,-5.1297,-5.1272,-5.0896,-5.0318,-4.9766,-4.9615,-4.9615,-4.9615,-4.9615,-4.9615,-4.959,-4.959,-4.959,-4.959,-4.959,-4.959,-4.959,-4.959,-4.959,-4.959,-4.959,-4.959,-4.959,-4.959,-4.959,-4.959,-4.959,-4.959,-4.959,-4.959,-4.959,-4.959,-4.959,-4.959,-4.959,-4.959,-4.959,-4.959,-4.959,-4.9841,-5.0393,-5.0419,-5.0971,-5.2101,-5.1924,-5.2561,-5.4158,-5.5559,-5.7382,-5.9617,-6.0986,-6.1969,-6.2615,-6.2963,-6.3079,-6.3079,-6.3079,-6.3079,-6.3079,-6.3079,-6.3079,-6.3079,-6.3079,-6.3079,-6.3079,-4.8923,-4.9334,-4.9631,-5.0038,-5.0493,-5.0875,-5.1419,-5.1768,-5.2229,-5.2653,-5.2678,-5.2754,-5.2904,-5.2929,-5.2929,-5.2929,-5.2929,-5.2929,-5.2929,-5.2779,-5.2603,-5.2452,-5.1699,-5.1272,-5.1272,-5.1272,-5.1272,-5.1272,-5.1272,-5.1272,-5.1272,-5.1272,-5.1272,-5.1272,-5.1272,-5.1272,-5.1297,-5.1699,-5.185,-5.19,-5.2277,-5.2427,-5.2427,-5.2427,-5.2427,-5.2427,-5.2427,-5.2427,-5.2427,-5.2427,-5.2176,-5.18,-5.1398,-5.1172,-5.0996,-5.082,-5.077,-5.077,-5.077,-5.077,-5.0594,-4.9791,-4.959,-4.959,-4.959,-4.959,-4.959,-4.959,-4.959,-4.959,-4.959,-4.959,-4.959,-4.959,-4.959,-4.959,-4.959,-4.959,-4.959,-4.959,-4.959,-4.959,-4.959,-4.959,-4.959,-4.959,-4.959,-4.959,-4.959,-4.9967,-5.0243,-5.0419,-5.1197,-5.1774,-5.2101,-5.2329,-5.3017,-5.4386,-5.5785,-5.7287,-5.8996,-6.0259,-6.1255,-6.1969,-6.2468,-6.2731,-6.2731,-6.2963,-6.3079,-6.3079,-6.3079,-6.3079,-6.3079,-6.3079,-6.3079,-6.3139,-4.8122,-4.8568,-4.8849,-4.9384,-4.995,-5.0446,-5.1003,-5.1575,-5.2074,-5.2654,-5.2654,-5.2792,-5.2929,-5.2929,-5.2929,-5.2929,-5.2929,-5.2929,-5.2929,-5.2929,-5.2929,-5.2929,-5.2277,-5.1925,-5.1925,-5.1925,-5.1925,-5.1925,-5.1925,-5.1925,-5.1925,-5.1925,-5.1925,-5.1925,-5.1925,-5.1925,-5.195,-5.2277,-5.2427,-5.2452,-5.2804,-5.2929,-5.2929,-5.2929,-5.2929,-5.2929,-5.2929,-5.2929,-5.2929,-5.2929,-5.2703,-5.2327,-5.1774,-5.1599,-5.1548,-5.1348,-5.1272,-5.1272,-5.1272,-5.1272,-5.1122,-5.0419,-5.0268,-5.0268,-5.0268,-5.0268,-5.0268,-5.0268,-5.0268,-5.0268,-5.0268,-5.0268,-5.0193,-4.9967,-4.9916,-4.9841,-4.9615,-4.959,-4.959,-4.959,-4.959,-4.959,-4.959,-4.959,-4.959,-4.959,-4.9791,-4.9916,-4.9916,-5.0444,-5.087,-5.1071,-5.1749,-5.2201,-5.2427,-5.2674,-5.3258,-5.4106,-5.5419,-5.6574,-5.7734,-5.9245,-6.0381,-6.1106,-6.1998,-6.2498,-6.2615,-6.2963,-6.3079,-6.3079,-6.3079,-6.3228,-6.3438,-6.3438,-6.3617,-6.3887,-4.7726,-4.8018,-4.8308,-4.9031,-4.9462,-4.989,-5.034,-5.0765,-5.1352,-5.2074,-5.2352,-5.2515,-5.2792,-5.2929,-5.2929,-5.2929,-5.2929,-5.2929,-5.2929,-5.2929,-5.2929,-5.2929,-5.2929,-5.2929,-5.2929,-5.2929,-5.2929,-5.2929,-5.2929,-5.2929,-5.2929,-5.2929,-5.2929,-5.2929,-5.2929,-5.2929,-5.2929,-5.2929,-5.2929,-5.2929,-5.2929,-5.2929,-5.2929,-5.298,-5.3005,-5.3005,-5.3005,-5.3005,-5.298,-5.2955,-5.2929,-5.2829,-5.2327,-5.2176,-5.2076,-5.1574,-5.1423,-5.1423,-5.1423,-5.1423,-5.1423,-5.1423,-5.1423,-5.1398,-5.1297,-5.1272,-5.1272,-5.1272,-5.1272,-5.1272,-5.1272,-5.1272,-5.1096,-5.0569,-5.0494,-5.0318,-4.9816,-4.9741,-4.9715,-4.9665,-4.9665,-4.964,-4.959,-4.964,-4.9665,-4.9665,-5.0167,-5.0494,-5.0494,-5.1046,-5.1599,-5.2076,-5.2151,-5.2427,-5.2929,-5.2929,-5.3067,-5.3478,-5.4511,-5.5286,-5.6078,-5.7961,-5.9245,-6.0014,-6.1375,-6.2116,-6.2498,-6.2963,-6.3079,-6.3079,-6.3139,-6.3498,-6.4006,-6.4066,-6.4485,-6.5054,-4.4913,-4.5341,-4.5788,-4.6677,-4.6824,-4.7265,-4.8598,-4.9175,-4.9771,-5.0906,-5.1492,-5.2074,-5.2515,-5.2792,-5.2929,-5.2929,-5.2929,-5.2929,-5.2929,-5.2929,-5.2929,-5.2929,-5.2929,-5.2929,-5.2929,-5.2929,-5.2929,-5.2929,-5.2929,-5.2929,-5.2929,-5.2929,-5.2929,-5.2929,-5.2929,-5.2929,-5.2929,-5.2929,-5.2929,-5.2929,-5.2929,-5.2929,-5.298,-5.3381,-5.3532,-5.3532,-5.3532,-5.3532,-5.3457,-5.3055,-5.2929,-5.2904,-5.2779,-5.2754,-5.2729,-5.2603,-5.2578,-5.2578,-5.2578,-5.2578,-5.2578,-5.2578,-5.2578,-5.2352,-5.1473,-5.1272,-5.1272,-5.1272,-5.1272,-5.1272,-5.1272,-5.1272,-5.1247,-5.1122,-5.1096,-5.1046,-5.0946,-5.0921,-5.0745,-5.0293,-5.0243,-5.0067,-4.964,-4.9992,-5.0243,-5.0243,-5.077,-5.1096,-5.1096,-5.1624,-5.1975,-5.2101,-5.2528,-5.2804,-5.2929,-5.2929,-5.3067,-5.3478,-5.3997,-5.4645,-5.526,-5.6574,-5.7606,-5.862,-5.9986,-6.0986,-6.185,-6.2468,-6.2847,-6.3139,-6.3617,-6.3887,-6.4066,-6.4605,-6.4904,-6.5114,-4.3442,-4.3746,-4.418,-4.4784,-4.5063,-4.5512,-4.6677,-4.7434,-4.8308,-4.9605,-5.0482,-5.1211,-5.2074,-5.2491,-5.2792,-5.2929,-5.2929,-5.2929,-5.2929,-5.2929,-5.2929,-5.2929,-5.2929,-5.2929,-5.2929,-5.2929,-5.2929,-5.2929,-5.2929,-5.2929,-5.2929,-5.2929,-5.2929,-5.2929,-5.2929,-5.2929,-5.2955,-5.3181,-5.3306,-5.3331,-5.3607,-5.3708,-5.3733,-5.4009,-5.411,-5.411,-5.411,-5.411,-5.4034,-5.3482,-5.3306,-5.3256,-5.3005,-5.2929,-5.2929,-5.2929,-5.2929,-5.2929,-5.2929,-5.2929,-5.2929,-5.2929,-5.2929,-5.2779,-5.2201,-5.2076,-5.2076,-5.2076,-5.2076,-5.2076,-5.2076,-5.2076,-5.1975,-5.1724,-5.1674,-5.1574,-5.1322,-5.1272,-5.1172,-5.087,-5.082,-5.072,-5.0419,-5.067,-5.082,-5.082,-5.1348,-5.1674,-5.1674,-5.2201,-5.2503,-5.2503,-5.2779,-5.2929,-5.2929,-5.2929,-5.3067,-5.3204,-5.3614,-5.3997,-5.4376,-5.5551,-5.6574,-5.7478,-5.8996,-6.023,-6.1255,-6.1998,-6.2615,-6.2907,-6.365,-6.4216,-6.4575,-6.5233,-6.5682,-6.6011,-4.2544,-4.2697,-4.2851,-4.3157,-4.3594,-4.4008,-4.4913,-4.5661,-4.6699,-4.8186,-4.9221,-5.0222,-5.1352,-5.2149,-5.269,-5.3206,-5.3206,-5.3206,-5.3206,-5.3206,-5.3206,-5.3206,-5.3206,-5.3206,-5.3206,-5.3206,-5.313,-5.2929,-5.2929,-5.2929,-5.2929,-5.2929,-5.2929,-5.2929,-5.303,-5.3055,-5.308,-5.3632,-5.3858,-5.3884,-5.4386,-5.4561,-5.4587,-5.4662,-5.4712,-5.4712,-5.4712,-5.4637,-5.4486,-5.4009,-5.3858,-5.3783,-5.3331,-5.3206,-5.3206,-5.3206,-5.3206,-5.3181,-5.308,-5.3055,-5.303,-5.2955,-5.2929,-5.2929,-5.2929,-5.2929,-5.2929,-5.2929,-5.2929,-5.2929,-5.2929,-5.2929,-5.2779,-5.2327,-5.2251,-5.2076,-5.1624,-5.1548,-5.1523,-5.1423,-5.1348,-5.1272,-5.1272,-5.1373,-5.1423,-5.1423,-5.1925,-5.2251,-5.2251,-5.2678,-5.2929,-5.2929,-5.2929,-5.2929,-5.2929,-5.3005,-5.3055,-5.3055,-5.3431,-5.3569,-5.3605,-5.4801,-5.5895,-5.6739,-5.8181,-5.9414,-6.0553,-6.1433,-6.2057,-6.2705,-6.3564,-6.4338,-6.5144,-6.5922,-6.652,-6.6999,-4.1483,-4.1483,-4.1638,-4.1927,-4.2082,-4.237,-4.3157,-4.405,-4.4955,-4.6299,-4.7603,-4.9054,-5.0246,-5.1932,-5.3412,-5.431,-5.4336,-5.4336,-5.4336,-5.4336,-5.4336,-5.4336,-5.4336,-5.4336,-5.4336,-5.4336,-5.3884,-5.2929,-5.2929,-5.2929,-5.2929,-5.2929,-5.2929,-5.2955,-5.3406,-5.3607,-5.3632,-5.421,-5.4436,-5.4461,-5.4536,-5.4561,-5.4612,-5.5089,-5.5265,-5.5265,-5.5265,-5.4963,-5.4561,-5.4486,-5.4436,-5.4436,-5.4361,-5.4336,-5.4336,-5.4336,-5.4336,-5.4235,-5.3733,-5.3607,-5.3482,-5.303,-5.2929,-5.2929,-5.2929,-5.2929,-5.2929,-5.2929,-5.2929,-5.2929,-5.2929,-5.2929,-5.2904,-5.2829,-5.2804,-5.2779,-5.2703,-5.2703,-5.2528,-5.2051,-5.1574,-5.1272,-5.1272,-5.1699,-5.2,-5.2,-5.2503,-5.2804,-5.2804,-5.2879,-5.2929,-5.2929,-5.2929,-5.2929,-5.2929,-5.3381,-5.3607,-5.3607,-5.425,-5.4225,-5.3747,-5.4163,-5.5246,-5.6757,-5.7304,-5.8502,-6.0033,-6.0394,-6.1363,-6.267,-6.3436,-6.4449,-6.5588,-6.6488,-6.6909,-6.6999,-4.1172,-4.1172,-4.1327,-4.1483,-4.1463,-4.1618,-4.2236,-4.283,-4.3677,-4.5167,-4.6523,-4.81,-4.9747,-5.1874,-5.3601,-5.4252,-5.442,-5.4561,-5.4561,-5.4561,-5.4561,-5.4561,-5.4561,-5.4561,-5.4561,-5.4561,-5.4336,-5.3833,-5.3833,-5.3833,-5.3833,-5.3833,-5.3833,-5.3858,-5.4084,-5.4185,-5.421,-5.4787,-5.5039,-5.5039,-5.5365,-5.5491,-5.5516,-5.5767,-5.5842,-5.5842,-5.5842,-5.5691,-5.544,-5.5139,-5.5039,-5.4963,-5.4662,-5.4561,-5.4561,-5.4561,-5.4561,-5.4511,-5.426,-5.4185,-5.4135,-5.3909,-5.3833,-5.3833,-5.3833,-5.3833,-5.3658,-5.3055,-5.2929,-5.2929,-5.2929,-5.2929,-5.2929,-5.2929,-5.2929,-5.2929,-5.2929,-5.2929,-5.2829,-5.2603,-5.2352,-5.2201,-5.2201,-5.2427,-5.2578,-5.2578,-5.2779,-5.2929,-5.2929,-5.2929,-5.2929,-5.2929,-5.2929,-5.3055,-5.3356,-5.3582,-5.3858,-5.4185,-5.4436,-5.4436,-5.4185,-5.4632,-5.5178,-5.6054,-5.7029,-5.7972,-5.9133,-5.9918,-6.0863,-6.1805,-6.3063,-6.4326,-6.5595,-6.6387,-6.6753,-6.6753]}]]